GFSNGP_850_thetae_003.txt.gz
Theta_e
317 317 316 317 317 317 319 318 319 317 317 316 314 313 315 319 317 316 315 313 311 311 310 310 310 310 307 305 306 307 307 307 306 305 303 301 300 298 298 298 298 299 299 300
314 314 313 313 312 312 314 315 316 316 317 315 317 316 318 317 317 315 312 311 310 309 309 309 308 305 305 305 305 305 304 302 300 299 297 295 293 292 293 294 295 295 298 299
313 313 314 317 315 313 313 313 313 314 314 313 316 317 318 318 316 314 310 309 309 308 307 305 305 305 304 304 302 300 298 297 295 292 290 290 289 289 289 290 290 292 295 295
313 314 317 316 314 315 314 315 313 313 313 314 316 316 315 317 316 312 309 309 308 305 306 305 305 304 302 301 298 295 292 290 289 289 289 288 288 288 288 288 289 291 291 292
314 315 315 317 314 316 317 316 314 315 314 315 315 314 310 313 314 312 310 308 307 307 306 305 303 302 300 297 292 290 289 289 288 287 287 287 287 287 287 288 288 288 289 290
305 312 318 316 314 315 313 315 316 316 316 316 316 314 310 310 311 311 309 308 306 306 307 306 303 298 294 290 289 288 288 287 287 287 287 287 287 287 287 287 287 287 288 288
312 313 313 313 314 315 317 314 316 317 317 317 313 313 311 310 310 309 308 307 307 307 306 301 296 291 289 288 288 287 287 287 287 287 287 287 287 287 286 286 287 287 287 289
312 313 314 314 315 317 312 313 312 312 313 313 311 310 309 309 309 308 307 307 306 304 299 293 289 288 288 287 286 286 286 287 287 287 286 286 286 286 286 286 286 286 287 288
313 312 313 313 313 311 312 311 310 310 310 311 310 310 309 309 310 309 308 305 304 299 293 289 288 288 287 287 286 286 286 286 286 286 286 286 285 285 285 285 286 286 287 287
313 313 313 313 310 311 311 311 311 310 309 309 309 309 308 307 307 306 305 303 298 294 288 288 288 287 287 286 286 286 286 286 286 285 285 285 285 285 285 285 286 286 287 288
311 311 312 312 312 311 311 311 310 309 308 308 307 306 306 305 305 304 301 299 294 288 288 288 287 287 287 286 286 286 285 285 285 285 285 285 285 285 285 285 286 287 287 287
310 311 310 310 311 310 310 310 310 309 308 307 306 305 304 304 302 298 295 291 288 288 288 287 287 286 286 286 285 285 285 285 285 284 284 284 284 284 285 285 285 286 286 287
311 310 309 310 310 309 309 308 307 306 304 304 304 303 302 300 297 294 289 288 288 287 287 286 286 286 286 285 284 284 284 284 284 284 284 284 284 285 285 284 284 285 286 286
309 309 309 308 308 308 307 307 306 305 304 303 302 301 298 296 291 288 288 287 287 286 286 286 285 285 285 284 284 284 284 284 284 283 283 284 284 285 284 284 284 284 284 285
309 309 308 308 308 307 306 306 305 304 302 301 299 298 294 289 288 288 287 286 286 286 286 285 285 285 284 284 284 284 284 284 283 283 283 284 284 284 284 283 284 284 284 284
308 308 307 305 303 303 303 302 302 301 300 300 297 291 287 287 287 287 286 286 285 285 285 285 284 284 284 283 283 284 283 283 283 283 283 283 283 283 283 283 283 284 284 283
306 305 301 300 300 301 301 301 300 299 298 293 288 287 287 287 287 287 286 285 285 285 284 284 284 284 283 283 283 283 282 282 282 283 283 283 283 282 282 283 283 283 283 282
300 299 299 299 301 301 300 299 298 294 291 287 287 287 287 287 287 286 285 285 285 285 285 284 284 283 283 282 282 282 282 282 282 282 282 282 282 283 283 282 282 282 282 282
298 298 299 300 300 300 299 297 296 290 288 288 287 287 287 286 286 285 285 284 284 284 284 283 283 283 282 282 282 282 282 282 282 282 282 282 282 282 282 282 282 282 282 282
299 298 298 299 299 299 298 295 288 288 288 287 287 287 286 286 285 284 284 284 284 283 283 282 282 282 281 281 281 282 282 282 282 282 282 282 282 281 281 282 281 281 280 280
297 297 297 298 298 296 291 287 288 288 287 287 287 286 286 285 285 284 284 283 284 282 282 281 281 281 281 281 282 282 282 282 282 281 281 281 281 281 281 281 280 280 280 280
296 296 296 296 295 290 287 287 287 287 287 287 286 286 285 285 284 284 283 283 282 281 281 281 281 281 281 282 282 282 281 281 281 281 281 280 280 280 280 279 280 280 280 279
295 295 295 295 293 290 287 287 287 287 287 287 286 285 284 284 283 282 282 282 281 280 280 280 280 281 281 281 281 281 280 280 279 279 279 279 279 279 280 280 280 279 279 279
294 294 295 293 291 289 288 287 287 287 287 286 284 284 283 282 282 282 281 280 280 280 280 280 280 280 281 280 280 279 279 279 279 279 279 279 279 279 279 279 279 279 279 279
293 294 294 293 291 290 288 287 287 287 285 284 284 283 282 282 281 280 280 280 279 279 279 280 280 280 280 279 279 279 279 279 278 279 279 279 278 278 278 278 278 278 279 279
292 293 293 292 291 289 288 287 286 285 284 283 283 282 282 281 280 279 279 279 279 279 280 280 280 279 279 279 279 279 278 278 278 278 278 278 278 278 278 278 278 278 278 278
291 291 291 290 289 288 286 285 284 283 282 282 281 281 280 279 279 279 279 279 279 279 279 279 279 279 279 279 279 278 278 278 278 277 277 277 277 277 278 278 278 278 278 278

GFSNGP_850_thetae_006.txt.gz
Theta_e
317 316 316 318 318 318 318 316 317 316 316 316 313 312 314 315 315 315 316 314 313 312 311 311 310 308 305 306 306 305 303 301 299 297 294 292 291 291 291 290 290 290 290 290
313 312 313 313 313 312 314 316 316 316 316 313 314 314 315 317 315 315 315 312 311 311 310 309 307 306 307 306 305 302 299 296 293 291 291 291 290 290 290 289 289 289 289 289
313 312 314 316 314 312 310 310 311 312 311 312 313 314 315 316 315 315 312 311 311 310 308 306 307 307 306 304 301 297 293 290 290 290 290 289 289 289 289 288 288 288 288 288
313 314 318 316 312 313 312 313 312 312 312 313 314 314 315 316 316 314 312 310 309 308 306 306 306 305 303 299 295 291 290 290 290 289 289 288 288 288 288 288 287 287 287 287
314 314 314 316 315 316 317 315 313 314 314 315 314 313 313 314 315 314 310 309 307 306 306 306 304 304 300 294 291 290 290 289 289 288 288 288 288 287 287 287 286 286 286 286
306 313 318 315 314 314 312 312 314 315 314 315 314 312 310 312 312 311 309 307 307 306 306 305 303 300 294 290 289 289 289 288 288 287 287 287 287 286 286 286 286 286 286 286
312 312 312 310 312 314 316 311 312 312 312 312 312 312 313 312 310 309 308 308 307 306 306 305 302 295 290 289 288 288 287 287 287 287 286 286 286 286 285 285 285 285 285 286
310 312 312 312 314 316 311 311 311 311 311 310 311 311 311 311 310 310 308 306 306 305 305 303 295 290 288 288 287 287 287 287 287 286 286 285 285 285 285 285 285 285 285 286
311 310 310 313 312 312 312 312 311 311 311 310 310 310 310 309 308 307 306 305 304 304 302 296 289 288 287 287 287 287 287 286 286 286 285 285 284 284 284 284 284 284 285 286
312 311 309 311 311 311 311 311 311 311 310 309 309 308 308 308 307 305 304 302 301 300 294 288 288 287 287 287 286 286 286 286 285 285 285 284 284 284 284 284 284 285 286 286
310 310 310 310 310 310 310 310 310 309 308 309 308 307 306 306 305 304 302 300 298 292 288 288 287 287 287 286 286 286 285 285 285 284 284 284 284 283 284 284 284 285 285 285
310 309 310 310 309 309 309 309 308 308 308 307 306 305 304 303 303 301 299 295 292 288 288 287 287 287 286 286 285 285 285 285 284 284 284 283 283 283 283 284 284 285 285 285
310 310 309 309 309 308 308 307 307 307 306 305 304 303 302 301 300 298 295 289 288 288 287 287 286 287 286 285 285 285 284 284 284 283 283 283 283 283 283 283 283 283 284 284
310 309 308 308 307 307 307 305 304 304 304 302 302 299 299 298 296 291 288 288 288 287 287 286 286 286 285 285 284 284 284 283 283 283 282 282 283 283 283 283 283 282 282 283
308 309 308 307 306 305 303 302 302 302 301 300 299 298 297 294 289 288 288 287 287 287 286 285 285 285 284 284 284 283 283 283 282 282 282 283 283 282 282 282 282 282 282 282
308 308 307 305 301 300 300 300 301 301 300 299 298 296 291 288 288 288 288 287 286 286 286 285 285 284 284 283 283 283 282 282 282 282 282 282 282 282 282 282 282 282 282 282
307 305 302 299 299 300 301 301 300 299 298 298 295 290 288 288 288 287 286 285 285 285 285 284 284 284 283 283 282 282 282 281 282 282 282 282 282 282 282 282 282 282 281 281
300 299 299 299 299 300 300 299 299 299 298 295 289 288 288 287 287 286 286 285 286 286 286 285 284 284 283 282 281 281 281 281 281 282 282 282 282 282 282 281 281 281 281 281
299 299 299 298 299 299 299 300 299 298 293 288 288 287 287 287 286 286 285 285 286 285 285 284 283 283 282 281 281 281 281 281 282 282 282 281 281 281 281 281 281 281 281 280
300 300 298 297 297 299 299 298 296 291 288 287 287 287 287 287 286 286 285 285 286 283 283 283 282 281 281 280 281 281 282 282 281 281 281 281 281 281 281 280 281 280 280 279
300 299 296 296 296 297 296 292 288 287 287 287 287 287 287 286 286 285 285 285 284 283 282 282 281 281 280 280 281 282 281 281 281 281 280 280 280 280 280 279 279 279 279 279
299 299 296 295 295 295 293 290 287 287 287 287 287 287 286 286 285 285 284 283 282 282 281 280 280 280 280 281 281 281 281 280 280 279 279 279 279 278 279 279 279 279 279 279
299 298 297 295 295 294 292 289 288 287 287 287 287 287 286 285 284 283 282 282 281 281 280 280 280 280 280 281 280 280 279 279 279 279 279 278 278 278 279 279 278 278 278 278
298 298 296 294 294 293 293 291 289 287 287 287 287 286 285 284 283 283 282 281 280 280 280 280 280 280 280 280 280 280 279 279 279 279 278 278 278 278 278 278 278 278 278 278
298 297 294 293 294 294 292 290 289 287 287 286 286 285 284 282 281 281 280 280 280 279 279 280 280 280 280 280 280 279 279 279 278 278 278 278 277 277 277 277 277 278 278 278
296 293 292 292 292 291 290 290 288 287 286 285 284 283 282 282 281 280 280 279 279 279 279 280 280 279 279 279 279 279 279 278 278 278 277 277 277 277 277 277 277 277 277 277
293 291 291 291 291 290 289 288 287 285 284 283 282 282 281 280 279 279 279 279 279 279 279 279 279 279 279 279 279 279 279 278 278 276 276 277 277 277 277 277 277 277 277 278

GFSNGP_850_thetae_009.txt.gz
Theta_e
315 315 317 318 319 315 315 314 316 316 315 315 314 313 314 315 314 315 315 315 314 313 312 312 310 308 306 307 306 306 305 300 296 292 291 291 291 291 291 290 290 290 290 290
312 312 312 313 314 316 317 317 315 316 315 312 313 314 315 316 315 314 315 314 312 312 311 310 307 306 306 306 305 303 299 294 291 290 290 290 290 290 290 290 289 289 289 288
313 313 314 314 312 310 310 310 312 312 311 311 313 313 315 316 316 315 315 314 312 311 309 306 306 306 306 305 304 298 292 290 290 289 290 289 289 289 289 288 288 288 287 287
312 313 316 313 312 312 312 312 311 313 313 313 314 314 314 315 316 316 315 313 311 309 306 305 306 306 305 303 298 292 290 289 289 289 289 288 288 288 288 287 287 287 286 286
316 314 314 315 314 312 315 316 313 314 314 313 313 313 313 314 314 314 313 311 310 307 306 306 307 305 303 299 291 289 289 289 289 288 288 288 288 287 287 286 286 286 285 285
309 315 320 315 314 313 311 316 312 314 313 313 312 311 309 312 313 312 311 309 307 307 306 306 304 302 296 293 290 289 289 288 288 287 287 287 286 286 286 285 285 285 285 285
314 314 313 311 312 313 316 311 311 311 311 310 309 311 311 311 312 310 309 308 308 306 305 302 301 298 293 292 289 288 288 288 287 287 286 286 286 285 285 285 284 284 284 284
311 313 316 311 313 314 310 310 310 310 310 310 310 310 310 310 310 309 308 306 304 304 303 302 299 296 293 289 288 287 287 287 287 286 286 285 285 285 284 284 284 284 284 284
310 311 309 311 311 312 311 311 311 311 310 310 309 309 309 309 309 307 306 305 304 303 301 298 295 292 289 288 287 287 287 287 286 286 285 285 285 284 284 283 283 283 284 284
311 309 310 311 311 311 311 311 311 310 310 309 309 308 307 307 307 306 305 304 303 301 300 295 290 288 287 286 286 286 286 286 285 285 285 285 284 283 283 283 283 284 284 284
310 309 309 309 310 310 310 310 310 309 309 308 308 307 306 306 305 304 303 302 300 297 292 288 288 287 286 286 286 286 286 286 285 285 284 284 283 283 282 282 283 284 284 284
310 309 308 308 309 309 308 308 308 308 308 307 307 306 305 304 303 302 301 299 295 290 288 288 287 287 286 286 285 285 285 285 284 284 283 283 283 282 282 282 283 284 284 284
309 309 309 309 308 307 307 307 306 306 305 305 305 304 303 303 301 299 298 295 289 288 287 287 287 286 286 285 285 285 285 284 283 283 283 282 282 282 282 282 282 282 283 283
309 309 308 308 307 307 306 305 304 303 303 303 303 302 301 299 298 297 293 288 288 287 287 286 286 286 286 286 286 284 284 283 283 282 282 282 282 282 282 282 282 282 281 282
308 308 308 307 306 305 302 300 299 300 300 300 299 299 298 297 295 289 287 287 287 287 287 286 287 287 286 285 284 283 283 282 282 282 281 282 282 281 281 281 281 281 281 281
307 308 307 306 302 300 300 300 299 299 299 300 299 298 296 292 288 288 288 287 287 287 287 286 286 285 285 284 283 282 282 282 281 281 281 281 281 281 281 281 281 281 281 281
306 306 305 300 299 299 299 299 300 300 298 298 298 296 292 288 288 288 287 287 287 286 286 285 285 285 284 283 282 282 281 281 281 281 281 281 281 281 281 282 282 281 281 280
303 300 299 300 299 299 299 299 299 299 298 298 297 292 288 288 288 287 287 287 286 286 286 286 285 284 283 282 282 281 281 281 281 281 281 281 281 282 281 281 281 280 280 280
300 301 301 300 298 297 298 298 299 299 298 297 293 289 288 287 287 287 286 286 286 286 286 285 284 283 282 281 281 280 281 281 281 281 281 281 281 281 281 280 280 280 280 280
300 300 300 299 297 296 296 298 298 298 296 292 288 288 287 287 286 286 286 286 286 285 284 284 283 282 281 281 280 281 281 281 281 280 280 280 280 279 279 279 279 279 279 279
299 300 300 300 298 296 295 296 296 294 291 288 288 287 287 287 286 286 286 285 286 284 283 283 282 281 281 280 281 281 281 280 280 279 279 279 279 279 278 278 278 278 278 278
298 298 299 299 298 297 295 294 294 291 288 287 287 287 287 286 286 286 285 285 284 283 282 282 281 280 280 281 281 280 280 280 279 279 279 279 279 278 278 278 278 278 278 278
298 296 297 298 298 296 295 294 293 290 287 287 286 286 286 286 286 285 285 284 283 282 281 281 280 280 280 280 280 280 280 280 279 279 279 279 278 278 277 277 277 277 277 277
298 298 297 297 298 295 294 293 292 290 287 286 286 286 286 286 285 284 283 282 281 281 280 280 280 279 279 279 279 279 280 279 279 279 279 278 278 277 277 277 277 277 277 277
297 296 296 297 295 293 293 293 291 289 288 287 286 286 285 284 283 282 282 281 280 280 280 280 279 279 279 280 280 280 279 279 279 277 277 277 277 277 277 277 277 277 277 277
296 296 295 294 292 292 292 291 290 289 288 287 286 285 283 283 282 281 281 280 280 279 279 279 279 279 279 279 279 279 279 279 279 278 277 277 277 277 277 277 277 277 277 277
294 295 294 291 291 291 290 289 288 287 286 284 283 283 282 282 281 280 279 279 279 279 279 279 279 279 279 279 279 279 279 279 279 277 276 276 277 277 277 277 277 278 278 278

GFSNGP_850_thetae_012.txt.gz
Theta_e
313 316 316 317 317 313 314 314 317 317 314 314 314 314 314 313 314 315 315 314 314 313 313 312 310 308 306 306 307 307 304 298 295 292 291 290 290 290 290 290 290 290 290 290
312 312 313 316 317 313 313 313 314 314 314 311 312 313 315 315 316 314 314 314 313 313 312 311 309 306 306 307 305 304 301 297 293 291 290 289 290 290 290 290 289 289 289 288
315 313 313 313 311 314 314 313 314 316 313 311 314 313 314 315 315 316 316 315 313 312 311 309 306 306 306 305 303 301 300 296 291 289 289 289 289 289 289 289 289 288 288 287
310 313 312 312 311 309 310 311 310 312 312 312 313 313 313 314 314 314 314 314 311 310 309 306 305 306 305 302 301 299 295 293 289 289 289 289 288 288 289 288 287 287 286 286
314 312 312 315 311 312 314 315 313 313 312 312 312 313 312 314 313 313 313 312 310 309 306 305 306 304 302 301 296 294 292 289 289 288 288 288 288 288 287 286 286 285 285 284
310 316 317 314 313 312 312 317 312 312 312 312 312 311 309 312 312 312 311 309 309 307 305 305 304 303 301 297 295 290 289 288 288 287 287 288 287 287 286 285 285 285 284 284
314 315 313 311 312 312 316 314 312 312 312 312 309 310 310 310 310 309 308 308 306 305 304 304 303 302 300 292 289 289 288 288 288 287 287 287 286 285 285 284 284 284 284 284
311 314 316 310 312 314 310 310 311 311 310 310 309 309 309 309 309 308 308 306 305 304 304 303 301 297 290 288 288 288 288 287 287 287 287 286 285 285 284 284 284 283 283 283
311 312 309 310 311 312 311 311 310 310 310 310 309 309 308 308 308 307 307 305 304 303 302 300 296 293 288 288 287 287 288 287 287 286 286 285 285 284 284 284 283 282 283 283
310 309 309 310 310 311 311 311 310 310 310 309 308 308 307 306 306 306 305 304 302 301 299 296 292 288 287 287 287 287 287 286 286 286 286 285 285 284 283 282 282 283 283 284
309 308 309 309 310 311 310 310 309 309 309 308 308 307 306 306 305 304 303 302 301 300 296 293 289 288 287 287 287 286 286 286 286 286 285 285 284 283 282 282 282 283 283 283
310 309 308 308 310 309 309 308 308 308 307 307 306 306 305 304 303 302 301 300 299 296 294 289 288 287 287 286 286 285 285 286 285 285 284 283 283 282 282 282 282 283 283 283
308 309 309 309 308 308 307 307 306 305 303 303 304 303 303 302 301 300 299 299 297 292 288 288 288 287 286 285 285 285 285 285 284 284 283 282 282 281 281 281 281 281 282 282
309 308 307 307 307 306 306 305 302 301 300 300 301 301 300 299 299 298 298 296 290 288 288 287 287 286 285 286 286 285 285 284 283 282 282 281 281 281 281 281 281 281 281 281
308 308 308 307 306 305 302 300 300 300 299 299 299 299 298 298 298 297 295 289 288 288 287 286 286 286 287 287 286 285 284 283 282 281 281 281 281 281 281 281 281 281 281 281
307 307 306 306 302 300 300 300 299 299 298 298 298 299 298 298 297 292 288 288 287 287 286 286 286 287 287 285 284 283 283 282 281 281 281 281 281 281 281 281 281 281 281 280
306 306 305 300 300 300 299 299 298 298 298 298 298 298 297 296 290 288 287 287 287 286 286 286 286 286 285 284 283 282 281 281 281 281 281 281 281 281 281 281 280 280 280 280
305 300 300 300 300 299 298 298 298 298 298 298 298 298 297 291 288 287 287 287 287 286 286 286 286 285 284 283 282 281 281 281 281 281 281 281 280 281 280 280 280 279 279 279
300 301 300 299 299 299 298 297 296 297 298 298 298 297 292 288 287 287 287 287 287 286 286 286 285 284 283 282 281 281 281 281 281 281 280 280 280 280 279 279 279 278 278 278
301 300 300 300 300 299 298 297 296 296 297 297 296 294 289 287 287 287 287 287 286 285 285 285 284 283 282 281 281 281 281 281 280 280 280 279 279 279 279 279 278 278 278 278
300 300 299 299 300 299 298 297 296 295 295 295 293 290 287 287 287 286 286 286 286 285 285 284 283 282 281 280 281 281 280 280 280 279 279 279 279 279 279 278 278 278 277 277
298 298 297 297 298 298 298 297 296 294 293 292 289 287 287 286 286 286 286 286 285 285 284 283 282 281 280 280 280 280 280 279 279 279 279 279 279 279 278 278 277 277 277 277
299 299 297 296 296 297 297 297 295 294 292 290 287 286 286 286 286 286 286 286 285 283 282 281 280 280 280 280 279 279 279 279 279 279 279 279 279 278 278 277 276 277 277 277
298 298 298 297 296 296 297 295 293 292 291 288 287 286 286 286 286 286 284 283 282 281 280 280 279 279 279 279 279 279 279 279 279 279 279 279 278 278 277 277 277 277 276 276
297 297 297 296 296 296 295 293 292 292 290 288 287 287 287 286 285 284 283 282 281 280 280 279 279 279 279 279 279 279 279 279 279 278 278 278 278 277 277 277 276 276 276 277
297 297 296 295 295 294 292 291 291 289 288 288 287 287 285 283 283 282 281 280 280 279 279 279 279 279 279 279 279 279 279 279 279 279 279 278 277 277 277 276 277 277 277 278
296 295 294 294 293 291 290 289 289 288 287 286 284 283 283 282 282 281 280 279 279 279 279 279 279 279 279 279 279 279 279 279 279 278 276 277 277 277 277 277 277 277 278 278

GFSNGP_850_thetae_015.txt.gz
Theta_e
313 316 316 315 315 311 314 316 319 317 314 314 313 313 313 314 315 315 315 313 313 313 312 312 311 308 305 306 307 306 305 302 300 296 292 290 290 289 289 290 290 289 289 289
313 313 315 317 315 314 313 312 313 313 314 310 311 312 313 314 314 313 313 313 313 312 312 311 309 306 305 307 306 305 301 298 294 295 290 289 289 289 289 289 290 289 289 288
316 312 312 316 312 314 314 311 314 316 316 310 312 312 313 313 313 314 314 313 313 312 311 309 307 305 306 306 304 301 297 293 291 291 289 289 289 289 289 289 290 289 287 287
311 311 314 314 310 312 314 310 310 310 309 311 312 312 312 313 313 313 313 313 312 311 310 307 304 305 305 304 302 298 295 292 289 289 289 289 289 289 289 289 288 287 286 285
314 311 312 314 311 310 313 313 308 312 311 311 312 312 311 313 313 312 312 312 311 309 308 305 304 304 304 302 300 297 292 289 288 288 288 288 289 289 288 287 287 286 285 284
311 316 315 313 312 311 312 316 312 312 311 310 311 312 310 311 311 311 311 310 310 308 305 304 304 304 301 300 298 293 289 288 288 287 288 288 288 288 287 286 286 285 284 284
314 314 313 311 311 311 316 315 311 313 312 311 309 309 310 309 309 309 309 309 307 305 303 303 303 301 300 297 294 289 288 288 287 287 287 288 287 287 286 285 285 284 284 283
311 314 315 310 312 314 310 311 312 311 311 310 309 309 309 308 308 308 308 307 305 303 303 303 301 300 297 293 290 288 287 287 287 287 287 287 287 286 285 284 284 283 282 283
311 312 308 309 310 310 312 310 310 310 309 309 309 308 308 307 307 307 306 304 303 302 302 302 300 295 293 289 288 287 287 287 287 287 288 287 286 285 284 283 282 282 282 283
309 309 308 309 310 311 311 311 310 310 309 309 308 308 307 306 305 305 305 303 302 301 301 298 297 293 288 287 287 287 287 287 287 288 287 286 285 284 283 282 282 282 283 283
308 307 308 309 310 310 310 310 310 309 309 308 308 307 307 306 305 304 304 302 302 301 298 295 291 287 287 287 287 287 287 288 288 287 286 284 283 282 281 282 282 283 283 283
310 308 309 309 309 310 309 309 308 308 307 307 306 306 305 305 304 303 303 302 299 298 295 291 288 287 287 287 287 287 288 288 286 285 284 283 282 282 282 282 282 282 282 282
308 309 309 309 309 309 308 307 306 305 303 302 302 303 303 303 302 302 300 299 297 296 290 288 288 287 287 286 287 288 287 286 284 283 283 282 281 282 282 281 281 281 281 282
309 309 306 307 307 307 306 305 303 301 300 300 300 300 300 300 298 298 297 296 295 289 288 288 287 287 287 287 287 287 285 284 283 283 282 281 281 281 281 281 281 281 281 281
307 308 309 308 306 305 305 301 300 299 299 298 298 297 296 296 298 297 296 294 288 288 287 287 287 287 287 287 287 285 284 284 283 282 281 281 281 281 281 280 281 280 280 280
306 307 307 306 305 303 300 299 299 299 298 298 297 298 298 297 297 296 293 288 288 287 287 287 287 286 287 286 285 285 284 282 281 281 281 281 281 281 280 280 280 280 280 280
306 304 305 304 300 300 300 299 299 298 298 298 298 298 298 297 296 292 288 288 287 287 287 286 286 286 286 286 285 284 282 281 281 281 281 280 280 280 280 280 280 279 279 279
307 306 304 300 300 299 299 298 297 297 297 298 298 297 298 297 295 288 288 287 287 287 286 286 286 286 286 284 283 282 281 281 281 281 280 280 280 280 280 279 279 279 278 278
302 300 300 299 299 299 298 297 297 296 297 297 298 297 297 295 290 288 287 287 286 286 286 286 286 285 284 283 282 281 281 281 280 280 280 279 280 279 279 279 278 278 278 278
300 299 299 299 299 299 298 298 297 296 296 296 296 296 295 292 288 287 287 287 286 286 286 286 285 284 283 282 281 281 281 280 280 279 279 279 279 279 279 279 278 277 278 277
300 299 299 299 299 299 298 298 297 296 295 294 294 294 293 288 287 286 286 286 286 286 286 285 284 283 282 281 281 280 280 279 279 279 279 279 279 279 279 278 278 278 277 277
299 299 298 297 297 297 297 297 297 296 295 294 293 291 289 287 286 286 286 286 286 286 284 283 283 282 281 280 280 280 279 279 279 279 279 279 279 279 278 278 278 277 277 277
298 298 297 297 296 296 296 296 296 295 294 292 291 288 286 286 286 286 286 286 285 283 283 282 282 281 280 280 279 279 279 279 279 279 279 279 279 279 278 277 277 277 277 277
298 298 297 297 296 296 295 295 295 293 292 290 288 287 286 286 287 286 285 284 283 282 282 281 280 280 279 279 279 279 279 279 279 279 279 279 279 278 278 278 278 277 277 276
298 297 297 296 295 295 295 294 293 292 291 289 288 287 287 287 286 284 283 283 282 281 280 280 280 279 279 279 279 279 279 279 279 279 278 278 279 278 278 278 277 277 276 277
296 296 296 295 294 294 294 292 291 290 289 288 288 287 286 284 283 282 282 281 280 280 280 279 279 279 279 279 279 279 279 279 279 279 279 279 278 278 278 277 278 278 277 278
295 295 294 293 293 292 291 290 289 289 288 287 285 284 283 282 282 281 280 280 280 279 279 279 279 279 279 279 279 279 279 279 279 279 278 278 278 278 278 277 278 278 278 278

GFSNGP_850_thetae_018.txt.gz
Theta_e
320 319 320 320 321 320 322 324 324 324 322 321 320 320 319 317 316 315 315 314 313 312 310 309 309 308 306 305 306 305 303 300 298 297 295 291 289 289 289 290 290 290 289 289
318 317 319 320 320 321 322 324 323 322 322 319 317 316 316 317 316 316 315 313 313 312 310 307 307 307 305 305 305 304 301 299 297 295 292 289 289 289 289 290 289 289 288 287
323 316 318 321 321 319 319 319 320 321 322 317 316 316 316 316 315 315 314 313 312 311 309 308 308 306 305 305 304 302 300 298 295 292 289 288 288 289 289 289 289 288 287 286
321 316 325 321 314 319 320 319 318 319 317 317 317 316 314 314 314 313 313 313 312 311 310 309 307 305 305 304 303 301 299 296 292 289 288 288 288 289 289 289 288 286 286 285
319 319 319 315 314 315 319 320 316 317 315 315 313 313 312 311 312 312 312 312 311 311 310 308 305 304 303 303 300 299 298 292 289 288 288 288 289 289 289 288 286 286 285 284
319 319 322 317 314 312 315 319 314 315 315 314 313 318 315 310 311 311 311 311 310 309 308 305 303 303 303 300 298 298 293 289 288 288 288 288 288 288 287 286 285 284 284 284
322 322 317 314 313 313 318 320 314 314 314 313 315 314 310 309 309 309 309 309 309 307 305 303 303 302 300 298 298 294 290 288 288 288 287 287 287 287 286 285 284 284 284 284
320 320 321 312 312 317 315 313 314 313 313 311 310 309 308 308 308 308 308 307 306 304 303 302 302 301 298 296 294 290 288 288 288 287 288 287 286 286 285 284 284 283 283 284
317 318 312 310 312 311 313 312 311 311 310 310 309 308 308 308 307 307 307 306 305 303 303 302 301 297 294 294 290 288 288 288 287 288 288 286 285 284 284 283 283 283 284 284
313 311 310 309 309 310 311 311 311 310 309 309 308 308 307 306 306 305 306 305 304 303 302 301 298 294 293 291 288 288 288 287 288 288 286 285 284 284 283 283 283 283 284 284
312 310 309 309 310 310 310 310 309 309 309 308 308 307 307 306 305 305 305 304 303 301 300 297 293 292 290 288 288 287 287 288 287 286 285 284 284 283 282 282 282 283 283 283
318 313 314 312 309 309 310 309 309 309 308 307 307 306 306 305 305 304 303 302 301 299 296 295 292 289 288 287 287 287 288 287 286 285 284 284 283 283 283 283 283 282 282 282
313 311 310 309 309 309 309 309 308 307 305 304 303 303 303 303 303 303 302 300 298 297 296 294 288 287 287 286 287 287 287 286 285 284 283 282 282 283 283 283 282 282 282 282
310 309 306 307 308 308 308 307 306 303 302 301 300 301 301 302 301 300 299 298 297 296 291 288 287 287 287 287 287 287 287 286 284 283 282 282 282 282 282 282 282 282 282 282
307 309 308 308 308 307 306 305 303 301 300 299 299 298 299 299 298 298 298 297 296 289 288 287 287 286 287 287 287 287 286 285 283 282 282 282 282 282 282 282 282 282 282 281
307 308 308 308 306 305 304 301 300 300 299 298 297 297 297 297 298 297 296 295 289 288 287 287 287 287 287 287 287 286 285 284 283 281 282 282 281 281 281 282 282 281 281 281
306 303 305 305 305 304 300 300 300 299 298 297 297 297 297 297 297 296 295 289 287 287 287 287 287 287 287 287 286 285 284 283 281 281 281 281 281 281 281 281 281 281 280 280
309 309 307 306 303 300 300 299 298 298 297 297 297 297 297 297 297 295 290 287 287 287 287 287 286 286 287 286 285 284 283 281 281 281 281 281 281 281 281 280 280 280 280 279
307 306 304 300 300 299 298 298 297 297 297 297 297 297 297 297 295 293 288 287 287 287 286 286 286 286 286 285 283 282 281 281 281 281 281 280 280 280 280 280 279 279 279 279
305 301 300 299 298 298 298 298 297 297 297 296 296 296 296 295 294 290 287 287 286 286 286 286 287 286 284 283 282 281 281 281 281 280 280 280 279 279 279 279 279 278 278 277
299 299 299 299 299 298 298 298 297 297 296 295 295 294 294 293 291 288 286 286 286 286 286 286 285 284 283 282 281 281 280 280 279 279 279 279 279 278 278 278 277 277 277 277
299 299 298 298 298 298 297 297 297 296 295 294 293 293 292 291 288 286 286 286 286 286 286 285 284 283 281 280 280 280 279 279 279 279 279 278 278 278 278 277 277 276 276 276
298 297 297 297 296 296 296 295 295 295 294 293 292 291 289 287 286 286 286 286 286 285 283 283 282 281 280 280 279 279 279 279 279 279 279 279 278 278 278 277 276 276 276 276
298 298 297 297 296 295 295 295 295 294 293 292 290 289 287 286 286 287 287 285 283 283 282 281 280 280 280 279 279 279 279 279 279 279 279 279 279 278 278 278 277 276 276 276
297 297 296 296 295 295 295 294 293 292 291 290 288 288 287 287 287 285 283 283 282 281 281 280 280 280 280 280 279 279 279 279 279 279 278 278 279 279 278 277 276 277 277 278
296 296 295 294 294 294 294 293 291 290 289 288 288 287 286 284 283 283 282 281 280 280 280 280 280 279 279 279 279 279 279 279 279 279 279 279 278 278 277 278 278 278 278 279
294 294 294 293 293 292 292 291 289 289 288 287 286 284 283 282 282 281 280 280 280 280 280 279 279 279 279 279 279 279 279 279 279 279 278 278 278 278 278 278 278 278 279 280

GFSNGP_850_thetae_021.txt.gz
Theta_e
321 322 324 325 325 326 327 327 327 326 324 323 322 322 321 320 319 319 318 317 316 316 314 311 308 305 302 302 305 305 304 303 302 300 297 293 290 290 290 290 290 290 290 289
322 321 321 322 322 324 325 325 324 324 325 324 322 320 321 320 319 319 318 317 316 315 314 311 307 304 301 303 305 304 304 302 300 297 294 290 289 289 290 290 290 289 289 288
324 320 321 323 322 322 322 322 322 325 324 324 319 319 319 320 319 318 317 317 316 315 314 310 306 303 300 302 304 304 302 300 297 294 291 289 289 289 289 289 289 288 288 287
325 320 327 323 318 320 321 322 322 323 322 321 320 318 318 318 318 318 317 316 315 314 312 307 304 301 299 303 303 302 300 297 294 292 289 289 289 289 289 288 288 287 287 286
323 323 323 322 316 318 321 322 321 321 320 318 318 315 314 313 315 314 314 314 313 311 308 304 303 302 303 303 302 299 297 294 292 289 289 289 288 289 289 288 287 287 286 285
322 323 325 319 316 315 319 322 321 321 320 318 316 319 317 311 311 311 311 311 310 308 306 304 300 302 303 302 299 297 295 294 290 289 288 288 289 289 288 287 286 286 285 285
325 325 325 316 315 315 319 322 315 317 318 316 317 317 313 310 309 309 309 309 309 307 303 300 302 302 302 300 297 295 295 292 289 288 288 289 289 288 287 286 285 285 285 284
324 326 326 315 314 318 318 315 315 316 316 315 312 310 309 308 308 308 308 308 306 303 301 302 302 302 300 296 295 296 293 289 288 288 289 289 288 287 286 285 285 284 284 284
323 323 314 313 314 313 316 316 315 314 313 311 310 309 308 307 307 306 306 306 303 302 302 302 302 301 296 296 296 293 289 288 288 289 289 288 287 286 285 284 284 284 284 284
315 314 314 312 311 313 315 314 313 312 311 310 309 308 307 306 306 305 305 304 302 300 301 302 301 299 297 297 293 288 288 288 289 289 288 287 286 285 284 284 284 284 284 284
315 312 312 311 312 312 311 311 310 310 310 309 308 308 306 306 305 304 304 303 302 300 300 299 300 297 296 291 288 288 288 289 289 288 286 285 285 284 284 284 284 284 283 283
318 315 316 314 312 310 310 309 309 309 308 307 306 306 306 305 305 304 303 303 302 300 299 299 297 294 290 288 288 288 288 288 287 286 285 285 284 284 284 284 284 284 283 283
315 314 313 312 310 310 310 309 308 308 307 306 305 304 304 304 304 303 303 302 301 300 298 297 295 289 288 288 288 288 288 287 286 285 284 284 284 283 283 283 283 283 283 283
311 311 311 310 310 309 308 308 307 306 304 303 302 301 301 302 302 302 301 301 300 298 296 294 289 288 288 288 287 287 287 286 285 284 284 283 283 283 283 282 282 282 282 283
309 309 311 310 308 307 308 307 305 302 301 300 300 299 299 300 300 299 299 299 298 296 294 288 288 288 287 287 287 287 287 286 284 284 283 283 283 282 282 282 282 282 282 282
307 308 308 307 307 307 306 304 302 300 300 299 298 298 297 297 297 298 298 297 296 294 288 288 287 287 286 286 287 287 286 285 284 283 282 282 282 282 282 282 282 282 281 281
306 304 305 306 306 305 304 301 300 300 299 298 298 297 297 297 297 297 296 296 295 289 288 287 287 286 286 286 287 286 285 284 283 282 282 282 282 281 281 281 281 281 280 280
309 310 308 308 305 303 300 300 299 299 298 298 297 297 297 297 297 297 296 295 290 288 287 286 286 286 286 286 286 285 284 283 282 282 282 282 281 281 281 281 280 280 280 279
308 307 306 305 304 300 300 299 298 298 297 297 297 297 297 297 297 296 295 292 288 287 286 286 286 286 286 286 285 284 283 282 282 282 281 281 280 280 280 280 280 279 279 279
306 305 305 301 299 299 298 298 297 297 297 297 296 296 296 296 296 295 294 289 286 286 286 286 286 286 286 285 284 283 282 282 282 281 280 280 280 279 279 279 279 279 278 278
304 300 299 299 298 298 298 298 297 297 297 296 296 295 295 295 294 293 289 286 286 286 286 286 287 286 284 284 282 281 281 281 280 279 279 279 279 279 279 279 278 277 277 277
299 299 298 298 298 298 298 297 297 297 296 296 295 294 293 292 291 288 286 285 286 286 286 287 285 284 283 281 281 280 280 279 279 279 279 279 279 279 278 278 277 277 277 276
299 298 298 298 297 297 296 296 296 296 296 295 293 292 291 289 287 286 285 286 286 287 286 284 283 282 281 280 280 279 279 279 279 279 279 279 279 278 278 277 276 276 276 276
298 297 297 296 295 295 296 296 295 295 294 293 292 290 288 287 286 286 286 287 286 284 284 282 281 280 280 280 280 279 279 279 279 279 279 278 278 278 278 277 276 277 276 276
297 297 296 296 295 295 295 295 294 293 292 291 290 288 287 287 287 287 286 284 284 282 281 281 280 280 280 279 279 279 279 279 279 278 278 278 279 278 278 277 277 277 276 277
297 297 296 295 295 294 294 293 293 291 290 289 288 287 288 287 285 284 283 282 281 280 280 280 279 279 279 279 279 279 279 279 279 279 279 279 278 278 278 278 278 278 278 278
296 295 294 294 293 293 292 291 290 289 288 287 288 287 284 283 283 282 281 280 280 280 279 279 279 279 279 279 279 279 279 279 279 279 278 278 278 278 278 278 278 278 278 279

GFSNGP_850_thetae_024.txt.gz
Theta_e
323 324 324 324 325 325 326 325 326 325 320 319 319 317 317 319 320 320 319 318 317 316 314 311 309 307 305 304 304 305 305 305 304 303 301 298 294 291 290 290 290 291 291 290
321 324 324 325 325 325 325 324 325 324 323 320 319 320 319 319 320 319 319 318 316 316 314 311 309 306 304 303 304 304 304 304 303 301 298 295 291 290 290 290 291 291 290 288
322 320 321 322 321 324 324 323 324 325 323 321 317 318 318 319 319 319 319 317 316 316 314 311 308 306 303 303 303 303 303 302 301 299 296 291 290 290 290 291 290 289 288 287
325 320 323 321 317 319 320 320 321 320 320 320 316 317 318 319 319 319 318 317 316 316 314 311 308 305 302 301 302 303 302 300 299 296 292 290 290 290 290 290 289 288 287 286
323 321 322 320 316 318 319 320 318 319 319 315 315 316 313 316 317 317 317 316 315 315 313 309 306 304 302 301 302 302 300 298 295 292 290 289 290 290 290 289 288 287 286 285
317 321 324 318 316 314 317 320 315 317 317 315 315 314 311 313 314 314 314 314 314 313 311 307 304 303 302 302 301 300 298 296 293 289 289 289 290 290 289 288 287 286 285 284
322 323 321 316 314 315 319 320 314 317 316 315 313 313 312 311 311 312 312 312 311 309 306 305 303 301 302 301 300 297 296 293 290 289 289 290 290 289 288 287 286 285 285 284
322 324 323 314 314 317 316 315 316 316 315 311 311 310 310 309 309 308 307 307 306 306 303 302 301 301 301 299 297 297 294 290 289 289 290 290 288 288 287 286 285 284 284 284
322 323 315 313 314 314 316 315 315 314 313 312 310 309 308 306 306 306 306 305 304 304 303 301 301 301 300 298 296 295 289 289 289 290 290 289 288 287 286 285 284 284 284 284
316 313 313 313 312 314 316 315 314 313 312 311 309 307 306 306 305 305 304 304 303 302 302 302 301 300 298 296 294 289 289 289 289 290 289 289 288 286 285 284 284 284 284 284
313 312 312 312 312 314 314 313 312 311 310 309 308 307 306 305 304 304 303 302 301 301 301 301 300 298 296 294 290 289 289 289 289 290 289 288 287 285 284 284 284 284 284 284
316 313 314 312 312 312 311 310 310 309 309 308 306 306 305 305 304 303 303 302 300 299 299 299 298 296 295 290 289 288 288 288 289 289 288 287 285 284 283 283 283 284 284 284
313 314 314 312 311 311 310 309 309 308 307 306 306 305 305 304 304 303 302 302 301 300 299 298 297 296 289 289 288 288 288 289 289 288 287 285 284 283 283 283 282 282 283 283
313 313 310 310 310 309 309 308 308 307 305 304 303 303 302 302 302 302 301 301 300 300 299 297 295 289 288 288 287 288 288 288 288 287 285 284 283 282 282 282 282 282 281 282
312 312 311 310 310 309 308 308 306 304 302 301 301 300 300 300 300 300 300 300 299 298 296 295 289 288 287 287 287 288 288 288 287 285 284 283 282 282 282 282 281 281 281 281
310 310 310 309 308 307 306 304 303 301 301 300 299 298 298 298 298 298 297 297 297 296 296 289 288 287 287 287 287 287 288 286 284 283 283 282 282 282 281 281 281 281 281 280
309 307 307 306 307 305 304 303 302 300 299 298 298 297 297 297 297 297 297 296 296 296 290 287 287 287 287 287 287 287 286 284 283 283 282 282 281 281 281 281 280 280 280 280
309 310 308 308 306 303 302 301 300 299 298 297 297 297 297 297 296 296 297 296 295 290 287 287 287 287 287 286 287 286 284 284 282 282 282 281 281 281 280 280 280 279 279 279
309 309 307 306 304 303 300 299 298 298 297 297 297 297 297 296 296 296 295 294 291 288 287 287 286 286 286 287 286 284 283 282 282 282 281 280 280 280 279 279 279 279 279 278
306 306 306 304 301 300 299 298 297 297 297 297 296 296 296 296 296 295 294 292 289 287 286 286 286 286 287 286 284 283 281 281 281 280 280 279 279 279 279 279 279 278 278 278
305 304 302 300 298 298 297 297 297 297 296 296 296 296 295 295 294 293 292 289 287 286 286 286 286 287 285 283 282 281 281 281 280 280 280 279 279 279 279 279 279 278 277 277
300 299 299 298 298 297 297 297 297 296 296 296 295 295 294 293 292 291 289 287 286 286 286 287 285 284 283 281 281 281 280 280 280 280 279 279 279 278 278 278 278 277 276 277
298 298 298 298 298 297 297 296 296 296 296 295 294 293 292 291 290 288 287 286 286 287 286 284 283 282 281 281 281 280 280 280 280 279 279 279 279 278 278 277 277 277 277 277
298 298 297 297 296 296 296 296 295 295 294 294 293 292 291 289 287 286 286 287 286 284 284 282 281 281 281 280 280 280 280 279 279 279 279 278 278 278 278 278 277 276 277 279
297 297 296 296 296 296 295 295 295 294 293 293 291 289 288 287 288 288 286 284 284 283 281 281 281 280 280 279 279 279 279 279 279 279 279 279 279 278 278 277 277 277 277 278
296 296 296 295 295 295 294 294 294 293 292 291 289 288 288 288 286 284 284 283 281 281 281 280 280 279 279 279 279 279 279 279 279 279 279 279 278 278 278 278 278 278 279 278
296 295 295 294 294 293 293 293 292 292 290 289 289 288 286 284 284 283 282 281 281 280 280 280 279 279 278 279 279 279 280 280 279 279 279 278 278 278 278 278 278 279 278 279

GFSNGP_850_thetae_027.txt.gz
Theta_e
320 318 322 323 325 324 326 326 326 319 320 317 315 314 314 317 317 317 317 317 317 316 315 314 311 309 307 306 305 304 304 304 304 304 303 301 297 293 291 290 291 291 290 289
324 324 323 324 324 324 324 324 324 324 324 315 315 315 315 317 317 317 316 316 316 316 315 313 311 308 306 305 304 303 303 304 304 302 301 298 293 291 290 291 291 290 289 288
321 322 323 324 323 323 323 322 323 325 321 315 316 315 315 316 318 317 317 317 316 316 315 313 310 308 306 304 303 302 303 303 302 300 298 293 290 290 291 291 290 289 288 287
323 318 322 319 316 320 324 322 320 322 320 316 314 313 316 317 319 318 318 317 316 316 314 312 310 307 305 303 302 302 302 301 300 298 294 290 290 290 291 290 289 288 287 286
320 319 319 319 315 316 318 319 317 320 317 313 313 315 313 316 319 319 318 317 316 316 314 311 309 306 304 302 301 301 301 299 298 295 290 290 290 291 290 289 288 287 286 286
312 318 322 317 314 313 315 318 314 314 314 313 313 315 310 314 317 317 317 317 316 315 312 310 306 305 303 301 301 301 299 298 295 290 289 290 291 290 289 288 287 286 286 284
319 321 318 316 313 314 319 317 313 314 314 313 312 312 312 314 315 316 316 315 314 312 310 308 305 303 301 302 301 298 297 295 290 289 290 291 290 290 289 287 287 285 285 284
319 322 319 314 313 316 313 314 314 312 313 310 310 310 311 312 313 313 313 311 311 309 307 304 303 302 302 301 298 297 295 290 289 290 290 290 290 289 288 286 285 285 284 284
320 319 314 313 314 315 315 315 312 312 311 313 310 310 310 310 310 309 309 308 307 306 304 301 300 300 301 299 296 295 291 289 289 290 290 290 289 288 286 285 284 284 284 284
317 315 312 312 313 315 315 315 314 313 312 312 310 309 307 306 306 306 305 305 304 303 302 300 300 300 298 297 295 291 289 289 289 290 291 290 288 286 286 284 283 284 284 284
312 311 311 312 312 314 313 313 312 311 311 310 309 307 306 305 304 304 303 303 302 302 301 301 300 299 297 295 290 288 288 289 289 290 290 289 287 286 284 283 283 283 283 283
316 312 312 312 313 313 313 312 311 310 308 307 307 306 305 304 303 303 302 301 300 300 301 300 299 296 295 290 288 288 289 289 289 289 289 287 286 286 284 283 282 282 282 283
313 314 313 312 312 312 312 310 310 308 307 306 305 304 304 303 303 302 301 301 300 300 299 298 296 295 289 288 288 288 288 288 289 289 288 286 285 283 282 282 282 281 281 282
314 313 310 311 310 311 310 309 308 307 306 305 305 304 303 303 302 302 301 300 299 298 297 296 295 291 288 288 288 288 288 287 288 288 286 285 283 282 282 281 281 281 280 281
312 313 312 311 310 309 309 307 306 305 305 304 303 301 301 301 301 300 300 299 298 297 296 295 292 288 288 287 287 287 287 288 288 286 285 283 282 282 281 281 281 280 280 280
311 311 310 309 308 308 307 306 304 302 301 300 300 299 299 299 299 298 298 298 297 296 295 292 288 287 287 287 287 287 288 288 286 285 283 282 282 281 281 280 280 280 280 279
309 306 308 307 307 306 306 304 302 301 299 298 298 297 297 297 297 297 296 296 295 294 291 288 287 287 287 286 286 287 288 286 285 283 282 282 281 280 280 280 280 279 279 279
311 311 309 309 307 305 302 301 300 299 298 297 297 297 297 296 296 296 296 295 294 292 288 287 287 286 286 286 287 288 286 284 282 282 281 281 280 280 280 280 279 279 279 279
309 309 308 307 305 303 301 300 299 298 297 297 297 296 296 296 296 295 294 293 292 289 287 286 286 286 286 287 287 285 284 282 282 281 280 280 280 280 280 279 279 279 279 279
307 307 306 305 303 301 299 298 297 297 297 296 296 296 296 295 295 294 293 292 290 288 286 285 285 286 287 286 285 283 282 281 281 280 280 280 280 280 279 279 279 279 279 278
305 305 303 301 299 299 298 297 297 296 296 296 296 296 295 294 293 293 292 291 288 286 285 285 287 288 285 284 282 282 281 281 280 280 280 280 279 279 279 279 279 278 278 277
303 302 300 298 297 297 297 296 296 296 295 295 295 295 294 293 292 291 289 287 286 285 286 287 286 285 283 282 281 281 280 280 280 280 280 280 279 279 279 279 278 278 278 278
300 299 298 297 297 297 296 296 295 295 295 295 294 293 292 291 289 287 287 286 286 287 286 285 283 282 281 281 280 280 280 280 280 280 280 280 280 279 278 278 278 278 278 278
297 297 297 297 296 296 296 295 295 295 294 293 293 291 290 289 287 287 287 288 286 285 284 282 281 281 281 280 280 279 279 280 280 280 280 280 279 279 279 278 279 278 278 279
297 297 296 296 296 295 295 295 294 294 293 292 291 289 288 288 289 288 286 285 284 283 281 281 281 280 280 279 279 279 280 280 280 280 280 280 279 279 278 278 278 278 278 279
296 296 295 295 295 295 295 294 294 292 292 290 289 288 288 288 286 285 284 283 282 281 281 281 280 280 279 279 279 279 280 280 280 280 279 279 279 278 278 278 278 278 279 279
295 295 295 294 294 294 293 293 293 291 289 289 289 288 286 285 285 284 282 281 281 281 281 280 279 279 279 279 279 280 280 280 280 279 279 279 278 278 278 278 278 279 279 279

GFSNGP_850_thetae_030.txt.gz
Theta_e
313 314 316 319 319 319 317 316 316 315 318 319 314 312 314 315 315 314 315 315 316 316 315 313 312 311 308 307 305 304 304 304 304 304 303 302 298 293 291 291 292 291 290 289
318 322 319 322 320 320 319 318 314 323 324 315 312 312 313 314 315 315 315 315 315 316 315 314 312 310 308 306 304 303 303 303 304 303 301 298 294 291 291 291 291 290 289 288
324 321 322 324 317 323 317 321 325 327 321 315 315 313 313 314 315 315 315 315 316 316 316 314 312 310 308 306 304 303 302 303 302 300 298 294 291 290 291 291 290 289 288 287
323 317 322 319 314 321 323 322 321 320 317 315 314 312 315 316 316 316 316 315 315 316 315 314 312 309 307 304 303 302 302 302 300 298 296 291 290 291 291 290 289 288 287 286
321 318 318 317 314 317 322 322 318 320 314 312 312 314 313 315 317 317 317 316 316 316 315 314 311 308 305 303 302 301 301 300 299 297 291 290 291 291 290 290 288 287 286 285
313 317 322 317 314 312 314 318 314 314 312 312 312 316 312 314 316 317 316 316 316 316 314 312 308 306 304 302 301 301 301 299 297 292 290 291 291 291 290 288 287 286 286 285
317 319 317 315 313 313 319 315 313 313 313 313 313 311 313 312 314 316 316 316 315 315 313 310 306 304 302 301 301 300 298 297 292 289 291 291 291 290 289 287 287 286 285 284
320 319 317 313 312 316 311 313 312 311 312 311 310 312 311 312 314 314 315 315 314 313 309 306 304 303 302 301 300 298 297 293 289 290 291 291 290 289 288 287 286 285 284 284
316 317 313 313 313 314 314 314 311 311 311 312 310 310 311 311 312 312 312 311 309 309 305 302 301 301 302 301 298 297 294 289 290 290 290 290 289 288 287 286 285 284 283 283
318 316 314 313 313 315 314 314 312 311 311 312 311 310 310 310 309 309 309 309 307 306 303 301 300 300 300 299 297 294 289 289 290 289 289 289 289 287 286 285 283 283 282 282
313 311 311 312 312 314 314 313 312 310 311 311 311 309 309 307 307 306 305 304 304 304 302 301 300 299 298 296 294 289 289 289 289 289 289 290 288 287 285 283 282 282 282 282
317 313 313 311 312 313 313 311 311 312 309 309 309 308 306 305 304 304 303 302 302 301 301 301 299 298 296 293 289 288 288 288 288 289 289 288 287 286 284 283 282 282 281 281
314 314 312 312 312 312 312 311 310 310 309 307 306 305 304 304 303 302 302 301 301 301 300 299 298 296 293 288 288 288 288 288 288 289 289 287 285 283 283 282 282 281 281 281
314 312 309 310 310 311 311 309 308 307 306 305 304 303 303 302 302 301 301 300 299 299 298 297 295 293 288 288 287 287 287 287 288 289 287 285 283 282 282 281 281 281 281 280
312 312 312 311 310 309 309 308 306 305 305 304 303 303 302 302 301 300 300 299 298 298 297 295 293 289 288 287 287 287 287 288 289 287 285 283 282 282 281 281 281 280 280 280
310 311 310 310 309 308 308 306 305 305 304 303 302 301 301 300 300 299 299 298 298 297 295 293 289 287 287 287 287 286 287 288 286 285 283 282 282 281 281 280 280 280 280 280
308 305 307 307 307 307 306 306 305 303 301 300 299 299 299 299 298 297 296 295 295 295 293 289 287 287 287 286 286 287 288 286 284 282 282 281 281 281 280 280 280 280 280 280
312 311 310 310 308 306 305 303 302 300 299 298 298 297 297 297 296 296 295 295 294 292 289 287 286 286 286 286 287 287 285 284 282 282 281 281 281 280 280 280 280 279 280 280
310 310 309 308 307 306 303 301 300 298 297 297 297 296 296 296 296 295 295 294 293 290 287 287 286 286 286 287 287 285 283 282 282 281 281 280 280 280 280 279 279 279 279 279
308 308 308 307 305 303 301 299 298 297 297 296 296 296 295 295 295 294 293 292 289 287 287 286 286 286 287 285 284 282 282 281 281 281 280 280 280 280 279 280 279 279 279 279
306 306 305 304 302 300 299 298 297 297 296 296 296 296 295 294 293 293 291 290 288 287 286 286 287 287 284 284 282 282 281 281 280 280 280 280 280 280 280 280 280 279 279 279
305 305 303 301 299 298 297 297 296 296 296 295 295 295 294 293 292 290 288 288 287 286 287 287 285 284 282 282 282 281 281 280 280 280 280 280 280 280 280 279 279 279 279 279
302 301 300 298 297 296 296 296 295 295 295 294 294 293 292 291 290 289 288 286 287 287 286 284 283 282 282 281 281 280 280 280 280 280 280 280 280 280 279 279 278 278 278 278
300 299 298 297 296 296 295 295 294 294 294 293 292 291 291 290 288 287 288 288 286 284 283 282 282 282 281 281 280 280 280 280 280 280 280 280 279 279 279 278 278 278 278 279
299 297 297 296 296 295 295 294 294 293 292 291 290 289 288 288 289 289 287 285 284 282 282 282 281 281 281 280 280 279 280 280 280 280 280 280 279 279 278 278 278 278 278 278
297 296 296 295 295 295 294 293 293 292 291 290 289 288 289 289 287 285 284 283 282 282 281 281 281 281 280 279 279 279 280 280 280 280 280 279 279 278 278 278 278 278 279 279
295 295 295 294 294 293 293 293 292 291 290 290 290 289 287 285 284 283 282 282 281 281 281 281 280 280 279 279 280 280 280 280 280 279 279 279 279 279 279 278 278 279 279 279

GFSNGP_850_thetae_033.txt.gz
Theta_e
313 313 314 315 313 312 312 311 313 312 313 312 312 314 314 314 313 314 314 314 315 315 313 311 310 308 307 306 305 305 304 305 305 304 304 303 301 297 293 291 291 292 291 290
314 315 315 317 315 313 314 311 313 316 315 314 312 314 312 313 314 314 314 314 315 314 313 311 310 308 307 306 304 304 304 304 303 304 302 300 297 294 291 291 292 291 290 289
320 317 319 320 319 314 315 314 313 317 316 313 313 313 313 313 314 314 314 315 315 316 314 312 310 309 307 306 304 303 302 302 303 302 300 298 295 291 291 292 292 291 289 288
321 318 323 319 317 316 317 317 316 316 316 315 316 312 314 314 314 314 315 315 315 315 314 313 311 309 307 305 303 302 301 302 301 300 299 296 291 291 292 292 291 290 289 288
323 317 318 315 317 316 316 316 315 316 316 313 311 313 312 314 315 315 316 316 316 316 315 314 312 309 307 304 303 301 301 301 300 299 297 291 290 292 292 291 290 289 288 287
318 317 321 317 313 312 312 321 316 316 315 311 312 317 315 314 315 315 316 316 316 316 315 313 310 308 306 304 301 300 300 300 299 297 292 290 291 291 291 291 289 288 287 285
316 319 316 314 312 311 317 314 312 312 313 311 314 313 312 313 315 316 316 316 315 314 315 312 310 307 304 303 301 300 300 298 297 292 290 291 291 291 291 290 288 287 285 284
319 319 316 311 311 315 311 312 311 311 312 310 308 308 310 312 313 314 314 314 314 314 312 310 307 305 303 301 300 299 298 297 293 289 290 291 291 290 289 288 287 285 284 284
316 316 312 312 312 313 313 312 311 310 310 312 308 307 308 309 311 312 313 313 312 313 310 306 304 303 302 300 300 298 296 293 289 290 290 290 290 290 289 287 285 284 283 283
317 314 313 312 313 314 313 312 310 310 310 312 310 307 307 308 309 311 311 311 310 309 306 302 301 301 301 300 298 296 294 289 289 289 289 290 290 289 287 285 284 283 282 282
313 311 311 312 312 313 313 312 310 309 309 310 311 308 309 309 309 309 309 308 308 307 305 302 299 299 298 297 296 294 289 289 289 289 289 289 289 287 286 284 283 282 282 281
317 313 313 311 312 313 313 311 310 311 309 309 312 311 310 309 309 309 308 306 305 303 302 300 299 299 297 295 292 289 288 289 288 288 289 289 288 287 284 283 282 282 281 281
315 313 312 312 312 312 312 311 310 311 311 310 309 309 308 306 305 304 304 303 302 301 300 299 298 297 295 292 288 288 288 288 288 288 288 287 286 284 283 284 283 282 281 281
313 314 310 310 311 311 312 310 309 309 308 308 306 305 304 303 302 302 301 300 300 300 299 298 297 295 292 288 288 288 287 287 287 288 287 285 284 283 282 281 281 281 281 281
311 312 312 312 311 309 310 309 307 306 305 304 303 303 302 302 301 300 299 299 299 299 298 296 294 292 288 287 287 287 287 287 288 287 285 283 283 282 281 281 281 281 281 280
310 311 310 310 309 308 308 307 306 304 303 303 302 302 301 301 300 299 299 299 298 297 296 294 292 288 287 287 287 286 286 287 287 285 283 283 282 281 281 281 280 280 280 280
309 306 307 307 308 307 307 306 305 303 303 302 302 301 300 300 299 298 297 296 295 295 294 291 288 287 287 286 286 286 287 287 285 283 282 282 281 281 280 280 280 280 280 280
311 311 310 311 309 307 305 305 304 303 302 301 300 300 299 299 298 297 296 295 294 293 290 287 287 286 286 286 286 287 287 285 283 282 282 281 281 280 280 280 280 280 280 280
310 311 310 309 308 307 305 304 302 301 300 299 298 298 297 297 296 296 295 294 293 291 288 287 286 286 286 287 288 286 284 283 282 281 281 280 280 280 280 280 280 280 280 280
309 308 308 308 307 306 304 302 300 299 298 297 296 296 296 295 295 294 293 292 290 288 287 287 286 286 287 287 285 283 282 282 281 281 280 280 280 280 280 280 280 279 279 279
307 307 307 306 304 303 301 299 298 297 296 296 296 296 295 294 294 293 292 291 289 288 287 286 287 288 286 284 283 282 281 281 281 280 280 280 280 280 280 280 279 279 279 278
305 305 305 304 302 300 299 297 297 296 296 295 295 295 294 293 292 291 290 289 288 287 287 288 287 285 283 282 282 281 281 280 280 280 280 280 280 280 280 279 279 278 278 278
303 304 303 301 299 298 297 296 296 296 295 295 295 294 294 293 292 291 290 287 287 288 287 285 284 283 282 281 281 281 280 280 280 280 280 280 280 280 279 279 278 278 278 278
302 301 300 299 297 296 296 295 295 295 294 294 293 292 292 291 289 288 288 288 288 286 285 283 282 282 281 281 280 280 280 279 280 280 280 280 280 279 279 278 278 278 278 279
300 299 299 297 296 296 295 295 294 293 293 292 291 290 289 288 288 289 288 286 285 284 282 282 281 281 281 280 280 279 279 280 280 280 280 280 280 279 279 279 278 278 279 279
300 299 296 296 296 295 294 294 294 292 292 291 289 289 289 289 289 287 286 285 283 282 281 281 281 281 280 279 279 279 280 280 280 280 280 279 279 279 279 279 278 278 279 279
297 296 295 295 294 294 294 293 293 292 291 290 290 289 289 287 286 285 284 283 282 281 281 281 280 280 279 279 279 280 280 280 280 280 280 279 279 279 279 278 278 279 279 280

GFSNGP_850_thetae_036.txt.gz
Theta_e
313 313 313 313 314 312 312 311 310 310 310 310 310 311 311 313 315 313 311 310 311 312 315 315 314 312 310 309 307 306 305 305 305 305 305 304 303 302 298 295 292 292 293 292
314 314 315 315 314 314 312 312 310 310 310 310 312 312 311 312 314 314 311 310 310 312 313 312 311 309 308 306 305 304 304 304 304 304 304 303 301 298 294 292 292 293 292 291
317 316 317 321 316 316 313 312 311 311 311 310 311 313 313 312 313 314 312 311 311 313 313 312 310 308 306 305 303 303 303 303 303 303 302 301 298 294 292 292 293 293 291 290
317 319 323 318 316 315 314 313 311 311 311 313 314 314 313 313 314 314 313 312 312 313 311 309 308 307 306 304 303 302 302 302 302 302 300 298 295 292 292 292 292 292 291 290
322 321 318 316 316 315 313 315 313 314 313 312 314 311 312 313 314 315 315 315 316 314 313 311 309 308 306 304 302 301 301 301 301 300 298 295 292 291 292 292 292 291 290 289
319 321 321 316 311 314 314 322 316 314 314 313 311 314 313 313 314 314 315 316 316 315 313 312 309 308 306 304 301 301 300 300 299 297 295 292 291 292 292 292 291 290 289 287
320 320 317 314 312 314 317 314 313 314 314 316 313 312 309 312 314 315 315 315 315 314 314 313 310 308 305 303 301 300 299 298 297 295 293 291 291 291 291 291 290 289 287 286
317 318 316 311 311 314 310 311 312 312 313 315 317 313 309 312 314 314 314 313 313 314 313 311 309 307 304 302 299 298 297 296 295 293 290 291 291 291 291 290 289 287 286 285
315 314 311 313 312 313 312 311 310 310 310 311 310 306 306 309 311 312 313 313 312 313 312 309 306 304 303 300 298 297 297 296 293 290 290 290 290 290 290 289 287 285 284 283
315 314 312 312 312 312 312 310 310 309 309 309 308 306 307 308 309 310 311 311 311 311 309 305 302 301 301 299 298 297 296 293 289 289 289 289 290 290 289 288 285 284 283 282
313 311 311 313 311 312 311 310 309 308 308 308 309 307 307 307 308 309 309 309 308 308 305 301 299 299 298 298 297 296 293 289 289 289 289 289 289 289 288 285 283 282 282 281
315 314 313 311 311 310 311 310 309 310 307 306 308 309 308 307 307 308 308 307 305 303 302 299 298 298 297 296 295 291 289 289 289 288 288 289 289 288 285 283 283 282 281 281
313 313 311 311 310 310 310 310 309 310 309 309 307 309 309 308 306 305 304 303 303 302 301 299 298 298 296 293 290 288 288 288 288 288 288 289 287 285 284 284 282 282 281 281
312 312 310 311 310 309 310 309 309 309 309 309 308 308 308 307 304 304 302 302 301 300 299 298 297 296 293 290 288 288 288 288 288 288 288 287 284 283 282 281 281 282 281 281
311 312 312 312 312 309 309 310 309 308 307 306 305 305 304 303 301 300 300 299 299 299 298 297 295 293 290 288 288 288 287 287 287 288 286 284 283 282 281 281 281 280 281 281
309 310 310 311 310 309 308 308 308 305 304 303 303 302 301 301 300 299 299 299 299 298 296 295 293 291 288 287 287 287 287 287 288 286 284 282 282 281 281 281 280 280 280 280
309 307 308 308 309 309 307 307 306 304 303 302 301 301 300 300 299 298 297 296 296 296 294 293 291 288 287 287 287 286 287 287 285 283 282 282 281 281 280 280 280 280 280 280
310 311 311 311 309 308 306 305 304 303 302 301 301 300 300 299 299 297 296 295 295 294 292 289 287 287 287 286 286 287 287 284 283 282 282 281 281 280 280 280 280 280 280 280
310 310 310 310 308 307 305 303 303 302 301 301 300 299 299 298 297 296 295 295 294 293 289 287 287 286 286 286 287 286 284 283 282 281 281 280 280 280 280 280 280 280 279 279
309 308 309 308 307 306 304 303 302 301 300 299 298 298 297 296 295 295 293 293 291 289 288 287 287 286 287 287 285 283 282 282 281 281 280 280 280 280 280 280 280 279 279 278
308 307 307 307 305 304 304 302 301 299 298 297 297 296 295 295 294 294 293 292 290 288 287 286 286 288 286 284 283 282 282 281 281 280 280 280 280 280 280 280 279 279 278 278
306 306 305 305 304 303 301 300 298 297 297 296 295 295 295 294 293 292 290 290 289 287 286 287 287 285 283 283 282 282 281 281 280 280 280 280 280 280 280 279 279 279 279 278
304 304 304 303 302 300 298 297 297 296 296 295 295 294 294 293 292 292 290 288 287 287 288 286 285 283 282 282 282 281 280 280 280 280 280 280 280 280 279 279 279 279 278 278
303 303 302 301 299 297 297 296 295 295 295 294 294 293 293 292 290 289 288 287 288 287 285 284 283 282 282 282 281 280 279 280 280 280 280 280 280 279 279 279 279 279 278 279
302 301 299 298 297 296 296 295 295 294 294 293 292 291 291 289 289 289 289 288 286 284 283 282 282 282 282 281 280 279 279 280 280 280 280 280 280 279 279 279 279 278 278 279
299 298 298 299 298 296 295 295 295 293 293 292 291 290 289 289 289 289 286 285 284 283 282 282 282 281 280 279 279 279 279 280 280 280 280 280 279 279 279 279 278 278 278 279
298 299 299 296 295 295 294 294 294 293 292 291 291 289 289 289 287 286 285 284 283 282 282 281 281 280 279 279 279 279 280 280 280 280 280 279 279 279 279 278 278 278 279 279

GFSNGP_850_thetae_039.txt.gz
Theta_e
311 311 312 313 313 312 312 311 313 311 310 309 309 310 309 311 313 312 309 307 308 309 312 316 318 319 317 315 311 308 306 305 305 305 305 305 304 302 300 298 295 293 293 293
314 314 314 315 315 314 315 312 311 311 311 310 307 311 311 311 313 313 309 307 307 309 312 316 317 315 312 310 308 306 305 304 304 304 304 303 302 300 297 294 293 293 293 292
315 315 316 321 318 315 314 312 312 313 312 309 309 310 312 313 313 314 309 307 306 309 313 314 314 314 311 308 306 304 304 304 303 303 303 301 299 297 294 293 293 293 292 292
316 317 321 318 315 316 315 314 312 311 310 310 311 312 313 313 312 314 310 309 309 311 311 312 311 309 308 306 304 303 302 302 302 302 301 299 297 295 293 292 292 292 292 291
320 320 317 316 313 316 316 317 313 312 311 310 311 314 311 312 313 314 313 312 311 311 312 310 309 307 306 303 302 301 302 301 301 300 299 297 295 293 292 292 292 292 291 290
317 321 321 316 312 312 312 321 313 311 312 313 313 315 311 311 313 313 313 314 313 312 310 309 307 305 303 301 301 301 300 300 299 298 297 295 293 292 292 292 292 291 290 288
317 320 315 314 310 313 317 318 310 313 313 313 314 310 309 311 312 313 314 314 312 311 310 308 305 303 302 301 300 300 299 299 298 297 295 295 291 291 291 291 291 290 289 286
317 318 317 312 310 313 310 312 312 312 313 315 312 311 311 311 311 311 312 311 312 312 309 306 304 303 302 300 299 299 298 298 297 297 294 291 291 291 290 290 290 288 286 286
313 314 311 313 312 312 312 310 311 310 311 312 310 309 312 312 312 312 312 312 312 311 308 305 303 303 303 300 299 298 298 297 296 293 290 290 290 290 290 289 288 286 284 284
314 313 311 314 313 311 311 310 309 309 309 310 311 309 310 307 308 309 308 309 309 309 306 303 302 301 302 300 298 298 297 296 293 290 290 289 289 289 289 287 285 284 283 283
313 312 312 312 311 310 309 307 308 307 308 309 310 307 309 308 306 306 307 307 308 308 306 303 300 299 299 298 297 297 295 292 289 289 289 289 289 289 288 285 284 282 282 281
315 313 312 310 311 310 309 307 307 308 306 306 309 308 308 306 305 306 307 306 306 305 303 299 298 298 297 296 295 295 292 289 289 288 288 288 289 288 285 284 283 282 282 281
313 312 311 309 310 310 309 308 307 307 306 305 305 307 306 305 306 306 305 304 303 301 300 298 298 298 296 295 292 290 288 288 288 287 288 289 288 286 285 285 283 282 281 281
312 312 310 310 310 310 309 307 309 308 306 307 306 305 306 306 303 303 302 301 300 300 299 298 297 296 294 292 289 288 288 287 287 288 289 287 285 283 283 282 282 282 282 281
311 311 311 311 310 310 308 308 308 309 305 305 305 305 305 303 302 301 300 300 299 299 297 297 296 294 290 288 287 287 287 287 288 289 287 284 283 282 282 281 281 281 281 281
309 309 309 311 308 309 308 307 309 305 305 304 304 303 303 302 301 299 298 299 299 298 296 295 293 290 287 287 287 287 287 288 289 286 284 283 282 282 281 281 281 281 281 280
309 306 307 307 308 308 308 308 309 306 304 303 302 301 300 300 299 298 297 296 297 295 293 292 291 288 287 287 287 287 288 288 285 283 283 282 281 281 280 280 280 280 280 280
309 310 310 310 309 306 306 306 305 303 302 301 300 299 299 299 298 297 296 295 295 293 291 289 288 287 287 287 287 289 287 284 283 283 282 281 281 280 280 280 280 280 280 279
309 310 310 309 308 307 305 304 303 302 300 300 299 299 298 298 297 296 295 295 294 293 290 288 287 287 287 287 288 286 284 283 283 282 281 281 280 280 280 280 280 280 279 279
309 308 308 308 307 307 304 302 301 301 300 299 299 298 297 296 296 295 294 293 291 290 289 287 287 287 288 288 285 283 283 282 282 281 280 280 280 280 280 280 280 279 279 279
308 308 308 307 305 304 303 302 301 300 299 299 298 297 296 295 295 294 293 293 290 288 287 287 287 288 286 284 283 283 282 282 281 280 280 280 280 280 280 280 279 279 279 279
307 307 306 305 304 303 302 301 300 299 298 297 296 296 295 294 293 291 291 291 289 288 287 288 288 285 283 283 282 282 281 281 280 280 280 280 280 280 280 279 279 279 279 278
305 305 305 304 303 302 300 300 298 297 297 296 295 295 294 293 293 292 291 289 288 287 288 287 285 283 283 282 282 281 281 280 280 280 280 280 280 280 279 279 279 279 278 278
303 303 304 303 302 300 299 297 297 295 295 295 294 294 294 293 291 290 289 288 288 288 286 284 283 282 282 282 281 281 280 280 280 280 280 280 280 279 279 279 279 278 278 278
302 302 301 301 299 298 297 296 295 294 294 294 293 292 291 290 290 289 288 289 286 285 284 283 282 282 282 281 281 280 280 280 280 280 280 280 279 279 279 279 278 278 278 279
300 299 298 298 298 296 296 295 295 294 294 293 292 291 290 289 289 289 288 286 284 283 283 282 282 282 281 281 280 279 280 280 280 280 280 280 279 279 279 279 279 278 278 279
299 298 297 296 296 296 295 295 294 294 293 292 291 289 289 290 288 286 285 285 284 283 282 282 282 281 281 280 279 279 280 280 280 280 280 279 279 279 279 279 279 279 279 279

GFSNGP_850_thetae_042.txt.gz
Theta_e
312 312 312 314 314 313 313 312 314 314 314 313 312 311 310 310 311 314 313 310 309 309 309 305 307 316 320 320 317 316 312 307 305 304 304 305 305 303 302 300 298 295 294 293
314 313 314 316 316 317 317 317 314 314 314 312 312 310 311 312 312 313 314 308 307 305 303 301 309 316 316 316 312 308 305 305 305 304 304 304 303 301 299 297 295 294 293 293
315 315 316 322 320 318 317 313 314 316 313 312 312 313 311 312 313 314 312 307 305 302 300 305 311 316 314 311 307 304 304 304 304 304 303 302 300 299 297 295 293 293 293 293
317 316 322 318 317 316 317 316 313 314 313 313 312 311 312 312 312 315 310 306 303 300 302 307 311 311 311 305 303 303 303 303 303 302 302 300 298 296 295 293 293 293 292 292
318 318 317 318 316 316 318 318 317 316 315 314 312 313 312 312 314 312 309 305 304 307 308 307 309 307 304 302 302 302 302 302 302 301 300 298 296 294 293 292 292 292 292 291
316 317 320 319 315 313 315 323 313 314 315 314 315 319 313 311 312 309 306 305 305 305 305 307 304 304 304 302 301 301 302 301 300 299 298 296 294 293 292 292 291 291 291 289
314 317 318 317 312 314 320 321 312 313 315 315 317 311 308 310 309 308 309 309 308 308 308 308 306 304 303 301 301 301 300 300 299 297 296 295 292 291 291 291 291 290 290 287
315 319 320 314 315 318 314 313 312 311 313 313 309 307 308 308 310 306 306 309 310 309 307 305 304 303 302 301 300 300 299 299 297 296 293 292 291 291 290 290 290 290 288 286
317 318 316 313 315 314 311 311 311 309 311 313 313 307 308 309 309 308 308 308 309 308 306 300 300 301 302 301 299 299 298 297 295 294 292 290 290 290 290 290 289 287 285 285
317 318 316 315 312 311 310 309 307 308 309 309 309 308 309 309 309 306 306 305 305 304 301 300 300 301 302 299 298 297 297 295 294 292 290 289 289 289 290 289 286 285 284 284
317 317 316 313 310 310 309 308 306 306 307 307 308 307 307 306 307 307 305 305 304 303 303 301 299 299 299 298 296 296 295 294 291 289 289 289 289 289 289 286 284 283 283 282
319 316 315 312 309 309 308 306 305 305 305 304 305 306 305 304 306 306 306 306 304 303 302 299 298 298 296 295 295 296 294 290 289 288 288 288 289 288 286 284 283 283 282 281
316 312 311 309 309 308 308 306 305 305 303 303 301 304 306 305 305 306 306 304 303 301 300 298 297 297 295 295 294 292 289 288 288 288 288 289 288 285 284 284 284 283 282 282
313 312 311 310 308 307 309 306 305 307 304 304 303 303 305 306 304 305 303 302 300 299 298 298 297 297 295 293 290 289 288 288 288 288 289 286 284 284 284 283 283 282 282 281
312 311 311 310 308 309 309 303 304 306 306 306 304 305 305 305 304 302 300 299 299 298 298 297 297 295 291 289 288 288 288 288 288 288 286 284 284 284 283 282 281 281 281 281
308 309 309 309 309 307 310 304 305 305 305 305 304 303 303 303 301 299 298 298 299 298 297 296 294 292 289 288 288 287 287 289 288 285 284 284 283 282 282 281 281 281 280 280
308 306 306 307 309 308 309 308 304 307 306 304 303 302 301 301 299 298 297 297 297 296 294 293 292 289 288 287 287 287 289 287 285 284 283 283 282 281 281 281 281 281 280 280
310 314 313 312 311 310 309 309 305 305 304 303 302 301 300 299 298 297 296 296 295 293 291 290 288 287 287 287 288 289 286 284 284 283 283 282 281 281 281 281 280 280 280 280
309 311 310 309 310 308 310 307 305 304 302 301 301 299 299 298 298 297 296 295 294 292 289 287 287 287 287 288 288 286 284 284 283 283 282 281 281 281 280 280 280 280 280 279
309 309 309 308 309 309 308 305 303 302 300 300 299 299 298 297 297 296 294 293 291 290 288 287 287 287 289 287 285 284 284 283 282 282 281 281 281 280 280 280 280 280 279 279
308 308 307 307 307 306 306 303 302 301 299 299 299 298 297 296 294 294 292 292 289 288 288 287 287 289 286 285 284 283 283 282 281 281 280 280 280 280 280 280 280 279 279 279
306 306 306 306 305 303 302 301 300 300 299 298 297 297 296 294 293 292 291 291 289 288 287 288 288 286 284 284 283 283 282 281 280 280 280 280 280 280 280 280 279 279 279 278
305 305 305 304 303 302 301 300 299 299 298 297 297 296 295 294 293 292 291 289 289 288 289 287 285 284 283 283 283 282 281 280 280 280 280 280 280 280 280 279 279 279 278 278
303 302 302 302 301 300 299 298 298 297 297 296 295 295 294 293 291 290 290 289 288 289 287 285 284 283 283 283 282 281 280 280 280 280 280 280 280 280 279 279 279 278 278 278
302 302 301 300 300 300 299 298 297 296 295 294 294 293 292 292 292 290 289 289 288 286 285 284 283 283 283 282 281 280 280 280 280 280 280 280 280 279 279 279 279 278 278 278
300 300 300 300 300 299 297 296 295 294 294 293 292 291 291 290 289 289 289 287 286 285 284 283 283 283 282 281 280 280 280 280 280 280 280 280 279 279 279 279 279 279 279 279
299 299 299 298 298 297 296 296 295 294 293 293 292 290 290 289 289 288 287 285 285 284 283 283 282 282 281 280 280 280 280 280 280 280 280 279 279 279 279 279 279 279 279 279

GFSNGP_850_thetae_045.txt.gz
Theta_e
313 312 312 314 315 315 315 314 314 314 315 315 315 315 313 312 311 310 313 315 313 313 313 313 313 310 305 303 303 310 312 311 310 308 305 303 304 303 303 302 301 300 297 295
313 313 314 317 316 317 318 318 317 317 316 314 314 313 313 311 311 312 312 313 310 311 310 306 303 302 300 300 304 309 311 310 305 303 302 303 304 303 302 300 299 298 295 294
315 315 316 321 320 319 318 317 317 317 316 314 313 313 313 312 312 313 313 310 308 307 303 300 302 299 298 303 309 309 308 305 303 302 303 303 302 301 299 299 297 295 294 293
315 316 322 318 318 317 318 317 318 317 316 315 315 313 313 312 315 313 309 307 304 301 299 300 299 297 299 306 307 305 304 303 301 302 303 301 301 299 298 297 295 293 293 293
316 317 316 317 318 316 318 319 315 317 318 317 315 313 312 312 313 311 307 304 301 298 299 298 299 299 299 301 301 302 301 301 301 302 301 300 299 297 298 296 293 293 292 292
315 316 317 319 316 314 317 323 316 314 317 318 318 317 313 310 309 306 302 301 300 300 300 300 299 300 303 301 303 304 301 300 300 300 300 298 297 302 295 292 292 292 292 291
312 315 315 316 315 316 321 321 314 313 313 317 315 312 311 309 306 305 303 303 302 301 303 302 301 301 300 298 296 298 300 300 300 299 297 299 300 293 292 291 291 291 291 289
317 317 317 316 317 320 317 315 313 313 312 311 310 308 307 306 303 302 301 301 300 298 298 297 297 298 297 299 300 301 300 300 299 300 302 296 293 291 291 290 290 290 289 287
316 317 316 316 316 316 314 313 313 311 312 313 310 309 308 304 308 303 302 301 299 299 298 298 300 304 304 301 300 300 300 300 299 297 294 292 291 290 290 290 290 288 286 286
318 319 318 317 317 313 310 311 309 308 309 314 311 307 304 302 303 305 304 305 304 304 304 303 302 301 302 300 300 300 299 297 296 294 292 290 290 289 290 290 287 285 285 284
318 318 318 314 312 311 308 307 305 305 306 310 312 306 304 305 303 301 302 300 298 299 301 300 299 299 300 299 297 297 297 296 294 291 290 289 289 289 289 287 285 285 284 283
319 317 317 314 310 309 307 305 303 303 304 305 305 305 302 299 300 301 299 297 298 300 300 299 299 299 297 297 296 297 296 293 290 289 289 288 289 289 288 286 285 284 283 282
317 313 312 310 309 307 305 303 302 301 301 301 300 300 300 298 298 300 299 300 301 300 301 298 298 297 296 295 295 295 293 290 289 288 288 289 289 286 285 285 284 283 282 282
314 312 312 310 310 306 306 305 302 299 301 298 299 298 298 298 297 297 299 300 300 300 299 298 296 296 295 295 293 290 289 288 288 288 290 288 286 285 284 283 282 282 281 281
312 311 311 311 308 307 306 306 300 298 301 299 299 299 298 298 298 298 299 298 299 299 297 297 296 295 293 291 289 288 288 288 289 290 287 285 285 284 283 282 282 281 281 282
310 309 309 309 308 308 304 306 301 298 301 300 301 300 300 300 299 299 298 298 299 298 296 296 295 293 290 288 288 288 288 289 289 286 285 284 283 283 282 281 281 281 281 281
309 306 306 307 307 306 306 307 304 302 300 301 302 302 302 301 299 297 296 296 298 297 296 295 293 290 288 288 288 288 290 288 286 285 284 283 283 282 281 281 281 281 281 280
309 309 310 310 310 310 308 309 307 303 303 304 303 302 300 299 299 297 297 297 296 295 292 291 289 288 288 288 289 290 287 285 284 284 283 282 282 281 281 281 281 280 280 280
309 310 312 310 311 310 310 307 305 304 303 303 301 299 299 299 298 297 296 295 294 293 290 289 288 288 288 289 289 286 285 284 284 283 282 282 281 281 281 280 280 280 280 280
308 308 308 308 309 311 309 306 306 303 301 301 301 299 298 297 297 296 294 293 292 292 290 288 288 288 289 288 286 285 284 284 283 282 282 281 281 281 280 280 280 280 280 279
307 307 307 307 307 307 308 306 305 302 301 300 299 298 298 297 296 296 295 294 292 290 289 289 288 289 287 286 285 284 283 283 282 281 281 281 281 280 280 280 280 280 279 279
306 305 305 305 305 305 305 304 303 301 300 299 298 298 297 296 295 294 293 293 291 289 289 288 289 287 285 284 284 283 282 282 281 281 280 280 280 280 280 280 279 279 279 279
305 304 303 302 302 303 302 301 300 300 299 299 298 298 297 296 294 294 292 290 290 289 288 289 287 285 284 284 283 283 282 281 281 280 280 280 280 280 280 279 279 279 279 279
303 303 303 302 302 301 300 299 299 298 298 298 297 296 296 294 293 292 291 290 289 289 289 286 285 284 283 283 283 282 281 281 280 280 280 280 280 280 279 279 279 279 279 279
302 302 302 301 300 300 300 299 298 298 297 296 295 294 293 293 293 291 290 289 289 288 287 285 284 284 283 283 282 281 281 280 280 280 280 280 280 279 279 279 279 279 279 279
300 300 300 299 300 300 299 298 298 297 296 295 294 293 292 292 291 290 289 290 288 286 285 284 284 283 283 283 281 281 280 280 280 280 280 280 280 279 279 279 279 279 279 279
298 298 298 298 298 299 299 298 297 296 296 295 294 292 291 291 290 289 290 288 287 285 284 284 283 283 283 281 281 280 280 280 280 280 280 280 279 279 280 280 280 280 279 280

GFSNGP_850_thetae_048.txt.gz
Theta_e
312 312 311 311 312 312 313 312 313 312 314 314 315 314 312 313 312 311 311 313 314 313 314 316 317 314 314 313 312 311 310 308 305 305 306 305 305 305 306 303 302 300 301 300
309 311 311 312 312 313 314 315 316 317 318 315 314 313 313 313 313 312 311 311 312 312 313 315 312 310 310 309 307 306 304 301 301 303 305 305 305 303 302 301 301 301 300 297
314 313 314 317 316 316 319 318 318 319 317 315 315 315 313 312 312 313 312 312 311 311 311 308 306 306 305 302 300 300 299 299 302 303 302 302 302 302 300 300 301 300 297 294
311 312 319 315 317 317 317 318 317 317 317 317 316 312 311 312 313 310 312 312 310 307 307 307 304 303 300 298 297 297 297 298 299 300 301 300 300 300 300 300 300 296 294 294
315 314 314 316 317 316 317 319 316 315 316 317 315 315 311 309 308 307 305 304 302 302 300 298 297 296 295 295 295 295 296 298 300 302 300 298 299 300 300 300 297 295 293 292
313 314 315 316 314 314 315 321 316 314 315 315 313 319 312 306 305 302 302 301 299 296 295 295 294 294 294 295 297 298 300 300 301 301 301 301 299 302 301 297 293 292 292 292
314 314 313 312 315 315 322 319 315 314 313 312 311 312 308 304 303 301 299 297 296 296 296 295 295 296 298 300 302 303 304 305 302 299 296 299 304 300 295 292 292 291 292 291
313 314 314 315 315 319 316 315 316 313 313 310 309 307 304 302 301 300 300 300 300 299 299 299 299 302 303 303 304 304 301 297 296 297 303 303 295 292 291 291 291 291 290 288
313 313 312 316 315 316 315 313 313 312 312 312 310 306 304 302 301 300 299 298 297 296 296 296 300 304 302 296 295 296 298 302 302 302 296 293 291 291 291 290 291 289 287 286
315 316 314 315 315 313 312 310 309 309 310 314 312 307 304 304 302 301 299 298 297 297 297 296 297 298 300 299 300 300 300 299 297 295 292 291 290 290 290 291 289 286 286 285
314 313 315 313 312 310 310 308 306 307 308 313 310 305 305 305 302 303 303 302 302 303 303 301 300 299 297 298 299 300 298 296 295 292 290 290 289 290 290 288 286 286 285 284
317 315 315 312 311 309 308 306 305 306 308 310 311 309 306 302 301 300 297 299 302 302 300 298 298 298 298 298 297 298 297 295 292 290 290 289 290 291 288 286 286 285 284 283
315 314 313 311 310 307 306 305 304 304 305 305 305 306 305 300 299 299 300 300 301 299 299 298 299 298 297 296 296 296 296 292 290 289 289 290 290 287 286 285 284 283 282 282
315 314 312 311 309 307 307 305 303 302 301 303 302 301 301 299 296 298 301 300 298 299 299 299 298 298 296 296 296 295 291 290 289 289 290 289 286 285 285 284 284 282 282 281
314 313 312 312 310 307 307 305 304 300 298 298 299 299 299 297 298 299 299 298 300 299 297 297 297 296 295 295 293 291 289 289 289 290 288 286 285 285 284 283 282 282 281 282
312 311 310 309 307 306 304 302 303 299 299 297 297 296 298 298 298 297 298 298 299 297 296 296 297 296 294 292 290 289 289 290 290 287 286 285 284 283 282 282 282 281 281 281
310 308 307 306 306 305 303 302 303 302 299 297 298 297 298 298 297 295 295 296 297 297 296 297 297 294 291 289 289 289 290 289 286 285 285 284 283 282 282 281 281 281 281 280
310 310 309 308 307 305 304 303 305 304 301 300 297 298 297 298 297 295 295 295 296 296 295 294 293 290 289 289 289 290 287 286 285 285 284 283 282 281 281 281 281 281 280 280
308 309 309 308 309 308 307 306 305 305 302 300 298 296 297 298 297 296 296 297 297 296 293 291 290 289 289 289 289 287 286 285 285 284 283 282 281 281 281 281 280 280 280 280
307 308 312 309 309 308 308 307 306 304 301 299 299 298 297 297 297 297 296 296 295 294 292 290 289 289 289 289 287 286 285 284 284 283 282 281 281 281 280 280 280 279 279 279
307 307 308 307 307 308 308 306 304 303 300 300 301 300 299 297 297 297 296 295 292 291 290 289 289 289 289 287 286 285 284 284 283 282 281 281 281 280 280 280 279 279 279 279
305 306 305 305 306 306 305 304 303 303 302 301 300 299 298 297 295 294 294 294 292 290 289 289 290 288 287 286 285 284 284 283 282 281 281 281 280 280 280 280 279 279 279 279
303 303 303 304 304 303 302 302 302 302 301 300 299 298 298 297 296 295 294 291 291 290 289 289 288 286 286 285 285 284 283 282 281 281 281 280 280 280 280 280 279 279 279 279
301 301 301 301 301 302 301 299 300 300 299 298 298 298 297 296 295 293 292 291 290 290 289 289 287 286 285 285 284 283 282 281 281 281 281 280 280 280 280 280 280 279 279 279
300 300 300 299 299 299 300 299 298 297 297 297 296 296 295 295 295 293 291 291 290 290 289 287 286 285 285 284 283 282 281 281 281 281 281 280 280 280 280 280 280 279 280 279
299 299 298 297 298 298 298 297 297 297 297 296 296 295 294 293 293 292 291 290 290 289 287 286 285 285 284 283 282 281 281 281 281 281 281 280 280 280 280 280 280 280 280 280
298 298 298 296 296 296 296 297 297 297 296 297 297 295 294 293 292 291 290 290 289 287 286 285 284 284 283 282 281 281 281 281 281 281 281 280 280 280 280 280 280 280 280 280

GFSNGP_850_thetae_051.txt.gz
Theta_e
309 310 311 310 309 309 306 309 311 311 311 310 312 313 314 314 312 313 313 312 311 313 313 314 314 316 317 317 318 319 320 319 318 314 311 311 308 306 306 305 302 303 304 307
306 309 311 311 310 310 311 311 311 311 313 313 314 315 315 312 312 313 313 312 312 312 313 315 315 315 312 312 311 314 315 314 312 308 307 305 302 302 301 302 303 304 302 302
308 311 311 311 312 312 311 312 314 317 317 317 317 315 311 311 311 311 310 312 311 311 312 311 311 309 306 305 307 308 307 306 302 301 299 298 300 301 300 301 302 299 297 295
308 310 316 314 314 314 314 315 317 318 317 316 316 312 309 306 307 305 308 310 308 307 305 304 304 302 302 302 300 300 298 297 296 296 299 300 299 300 301 301 303 297 294 296
313 314 311 315 317 316 315 317 317 317 315 316 313 313 309 303 302 302 303 302 304 304 304 303 302 299 300 297 297 295 293 294 298 299 296 298 298 299 297 297 297 296 294 293
311 311 313 316 314 314 314 321 316 315 315 313 311 318 311 303 300 299 300 300 299 299 299 298 296 297 296 295 295 295 296 298 296 299 298 297 297 300 300 295 295 294 292 292
310 311 311 310 312 315 319 316 314 314 315 311 312 310 304 302 299 298 297 296 296 296 297 296 296 296 297 299 299 299 298 300 300 301 301 300 300 296 296 294 292 291 291 291
312 314 310 311 314 317 314 315 315 314 313 309 308 304 303 301 300 300 299 297 298 296 295 295 297 298 300 299 300 300 300 299 300 300 299 296 296 293 291 291 291 291 290 288
310 310 308 312 314 314 314 313 312 312 312 311 307 303 302 300 300 301 300 299 299 299 297 298 298 300 300 300 300 300 298 294 296 298 297 292 291 291 291 291 291 289 287 286
312 314 311 312 313 312 312 310 310 309 311 311 308 304 301 299 299 300 300 300 300 300 300 299 300 301 302 299 295 296 300 300 298 293 292 290 290 290 291 290 287 286 286 285
313 312 312 312 312 311 310 309 307 308 308 313 309 306 302 299 299 298 298 298 299 300 299 298 297 298 298 298 301 301 298 294 293 292 290 290 290 290 289 287 286 286 285 284
315 314 314 313 312 311 309 307 306 307 308 311 310 307 306 303 301 299 297 297 297 297 297 296 298 301 301 299 297 296 295 293 291 289 289 289 290 288 286 286 286 285 284 283
313 315 314 313 311 310 309 307 306 307 309 310 307 307 305 300 299 300 301 301 301 301 301 300 298 296 294 293 294 294 294 291 289 289 289 290 288 287 286 285 284 283 282 282
314 314 312 312 312 310 308 308 306 306 305 306 307 305 305 302 298 298 299 299 298 297 296 295 294 293 293 293 294 293 290 289 289 290 290 288 287 286 285 285 284 283 282 282
314 314 314 313 311 308 307 305 305 303 303 301 302 303 303 300 300 299 298 296 296 296 295 294 294 294 293 293 292 290 289 289 290 290 288 287 286 285 284 283 282 282 282 281
312 311 310 310 309 307 306 303 303 300 300 299 299 299 299 300 298 299 296 296 297 296 295 295 296 295 293 291 290 289 290 291 289 287 286 286 285 284 283 282 282 281 281 281
311 309 308 307 306 305 303 303 302 300 299 299 299 298 298 297 297 296 296 297 297 296 295 296 297 294 291 289 289 290 291 289 287 286 286 285 284 282 282 281 281 281 280 280
309 309 310 309 308 305 303 301 300 300 299 299 299 298 297 297 298 298 297 295 295 295 294 295 294 292 289 289 290 291 288 287 286 285 285 283 283 282 281 281 281 280 280 280
308 309 309 308 307 305 304 303 302 301 300 300 299 298 298 297 297 297 296 296 296 296 294 292 290 289 289 290 290 288 287 286 285 285 284 282 282 281 281 280 280 280 280 280
306 307 309 309 307 307 307 306 304 301 302 301 302 300 299 297 297 296 295 296 296 296 293 290 289 289 290 290 288 287 286 285 285 284 283 282 281 281 280 280 280 280 280 279
305 306 309 308 309 308 308 309 308 303 303 302 303 302 300 297 296 296 296 296 293 292 291 289 289 290 290 288 286 286 285 285 284 282 282 282 281 281 281 280 280 279 279 279
304 304 306 306 307 308 307 306 304 303 303 302 301 301 299 297 296 295 295 296 294 291 290 289 290 290 288 286 286 285 285 284 283 282 281 281 281 281 280 280 280 279 279 279
302 303 303 303 304 305 304 303 302 302 302 301 300 300 299 298 297 296 295 293 292 291 289 289 290 288 287 286 285 285 284 283 282 282 281 281 281 281 280 280 280 280 279 280
301 301 301 301 301 301 302 301 301 300 300 299 299 298 298 297 296 295 294 293 291 290 289 290 288 287 286 285 285 284 283 282 282 281 281 281 281 281 280 280 280 280 280 280
300 300 299 299 299 299 299 300 299 298 297 298 298 297 296 296 296 295 293 292 291 290 289 289 287 286 285 285 284 283 282 282 282 282 281 281 281 281 280 280 280 281 280 280
299 298 297 297 297 297 298 297 297 297 296 296 296 295 295 294 294 293 292 291 290 290 289 287 286 285 285 285 284 282 282 282 282 281 281 281 281 281 280 280 280 281 280 280
299 299 297 296 296 296 296 296 296 295 295 296 297 295 294 294 293 292 291 290 290 290 288 286 285 285 285 284 282 282 282 282 282 281 281 281 281 280 280 280 280 280 281 281

GFSNGP_850_thetae_054.txt.gz
Theta_e
307 309 310 310 308 307 307 309 306 309 308 308 309 310 312 315 312 312 313 313 313 312 312 312 314 313 313 314 316 316 318 319 320 319 319 316 317 313 310 305 304 303 302 297
305 308 309 309 310 309 308 308 309 309 309 309 310 315 315 311 309 310 309 310 312 312 312 312 312 312 311 310 308 308 308 308 310 310 309 307 307 304 303 300 299 298 301 301
307 309 310 309 310 310 309 308 311 312 311 313 316 316 310 305 305 305 305 311 311 310 310 309 308 307 307 304 302 302 302 301 301 302 305 302 301 299 299 299 301 301 299 300
307 309 314 311 311 310 310 310 311 314 316 316 316 311 305 303 302 301 303 302 301 303 304 303 302 302 302 302 302 301 299 298 297 301 299 298 299 299 300 300 298 296 298 300
312 310 309 314 316 315 315 315 314 317 316 315 314 310 306 305 300 300 299 302 301 299 300 301 303 303 305 305 304 301 296 295 296 297 297 298 300 300 298 297 298 299 298 293
312 308 311 314 314 314 314 317 314 316 315 315 312 317 312 304 300 298 297 298 300 299 299 300 299 300 302 300 298 296 294 295 297 300 300 301 301 298 300 299 299 296 290 290
311 312 308 308 309 315 317 314 314 315 314 312 311 310 307 303 299 297 296 296 296 296 297 297 297 298 297 295 297 299 299 300 300 299 300 299 299 299 300 296 290 289 290 290
311 312 309 309 313 317 313 314 314 314 313 310 308 305 305 302 300 297 296 296 296 295 295 295 295 297 298 299 298 298 299 299 300 299 299 299 299 295 290 289 289 290 289 288
308 308 307 310 311 313 313 312 312 312 312 311 306 305 305 302 302 301 300 298 297 297 296 296 297 300 300 299 299 299 299 299 299 300 298 292 290 290 290 290 290 289 287 287
311 312 309 312 313 312 312 310 309 309 311 310 308 305 303 304 303 303 302 300 299 299 299 298 299 300 301 299 299 299 300 300 299 292 290 290 289 289 290 289 287 286 286 286
310 311 313 312 312 312 311 309 308 307 309 310 309 305 305 303 303 303 303 302 302 302 301 301 301 300 299 298 298 300 299 293 290 289 289 289 289 289 288 287 287 287 286 284
312 314 315 314 314 313 311 309 307 307 307 310 310 308 303 303 302 302 302 302 301 302 301 301 301 301 300 300 299 298 293 292 290 289 289 289 290 289 288 287 286 285 284 283
311 313 313 313 314 313 311 309 308 308 309 309 309 309 304 303 301 300 300 300 301 300 301 300 300 300 298 297 295 294 294 291 290 289 290 290 288 286 285 285 284 283 282 282
313 313 312 314 314 312 311 310 308 307 308 309 308 305 306 306 303 301 301 299 300 300 300 300 299 297 294 294 293 293 291 289 289 290 289 287 286 286 285 284 283 283 282 282
313 312 312 312 312 311 309 308 306 305 305 305 305 305 304 305 304 302 302 299 299 300 300 297 295 294 294 294 293 290 289 289 290 288 286 286 285 285 284 283 283 282 282 281
311 311 311 310 310 309 307 305 304 303 302 302 302 302 302 303 302 300 300 301 299 297 296 295 295 295 293 291 289 289 289 290 288 286 286 285 285 284 283 282 282 281 281 281
307 309 310 309 309 308 307 305 303 302 300 299 300 300 299 299 299 298 296 296 297 297 295 294 294 293 290 289 288 289 290 288 286 286 286 285 284 283 282 282 281 281 281 280
305 307 309 309 309 308 305 303 302 301 300 298 298 298 298 299 298 296 296 295 295 294 293 293 293 291 289 288 289 290 288 287 286 286 285 284 283 282 282 281 281 281 280 280
305 306 308 309 309 308 305 304 302 301 299 298 299 298 298 298 297 296 295 294 293 294 293 293 291 289 288 289 290 288 287 286 286 285 284 283 282 282 281 281 281 280 280 280
305 306 307 308 308 306 306 304 303 302 300 300 299 298 297 296 296 297 295 294 295 296 295 293 290 289 289 290 288 287 286 286 286 284 283 282 282 282 281 281 280 280 280 279
303 305 308 309 307 305 305 305 306 306 304 303 301 299 298 297 297 297 295 294 294 294 293 290 289 289 290 289 287 286 286 286 285 283 283 282 282 282 281 281 280 280 280 280
302 304 305 306 306 306 305 306 306 302 302 300 300 300 298 297 296 295 296 297 296 293 291 290 289 289 289 287 286 286 286 285 283 283 282 282 282 281 281 281 281 280 280 280
301 301 303 304 304 304 305 307 306 304 303 302 300 299 299 299 298 297 296 294 294 292 290 289 289 289 288 287 286 286 285 284 283 282 282 282 282 281 281 281 281 281 281 280
300 300 300 301 301 301 302 304 304 304 304 302 300 298 299 298 296 296 295 295 292 291 289 289 290 288 287 286 286 285 285 283 282 282 282 282 282 281 281 281 281 281 281 281
300 300 300 299 299 299 299 300 300 301 300 298 298 297 297 297 297 296 294 293 292 290 289 289 289 287 286 286 285 285 284 283 282 282 282 282 282 281 281 281 281 281 281 281
298 298 298 298 297 296 297 297 298 299 299 297 296 295 295 295 295 294 294 293 291 290 289 289 288 287 286 285 285 284 283 282 282 282 282 282 281 281 281 281 281 281 281 281
297 298 298 298 297 296 296 295 296 297 297 297 298 296 295 295 294 294 293 292 291 290 289 289 287 286 285 285 285 283 282 282 282 282 282 282 281 281 281 281 281 281 281 281

GFSNGP_850_thetae_057.txt.gz
Theta_e
307 308 309 307 308 307 306 307 304 307 307 307 308 308 309 312 312 310 309 307 310 311 312 312 312 312 312 312 312 313 313 315 315 316 315 315 314 315 314 313 312 308 304 299
304 307 308 309 309 307 308 308 308 309 309 309 309 309 315 312 308 306 305 305 310 311 311 312 310 310 310 310 309 309 310 309 309 309 308 310 310 309 308 307 302 299 299 300
304 307 309 309 309 309 308 307 309 310 310 310 312 315 314 309 304 303 302 300 303 307 306 306 308 308 307 306 305 305 307 305 302 301 303 301 301 300 299 298 298 299 301 299
308 307 314 309 308 308 309 309 308 310 311 311 315 314 310 307 303 301 299 301 301 301 302 302 302 303 305 305 305 304 302 301 300 299 299 299 298 298 298 299 299 300 300 300
313 310 307 313 314 309 310 314 310 310 312 316 314 310 309 306 303 298 298 301 300 299 302 301 301 301 302 303 304 302 303 303 302 300 299 298 299 300 300 300 300 301 300 300
311 310 310 310 312 313 312 316 313 314 315 314 312 316 311 303 299 298 298 298 299 298 299 299 298 299 300 299 299 300 298 298 298 297 299 299 300 300 300 299 300 301 297 289
310 311 307 306 307 314 315 314 314 314 314 314 312 310 305 303 300 298 296 296 296 297 297 296 297 297 297 296 296 295 295 296 297 298 298 300 300 299 299 299 295 290 289 289
312 311 308 307 313 316 312 313 313 313 314 314 311 307 304 303 301 299 297 296 296 296 296 295 295 295 297 297 296 296 297 298 298 298 298 299 299 297 291 290 290 289 289 288
307 307 306 308 312 311 311 312 311 311 311 312 309 306 305 304 302 300 299 297 296 295 297 296 297 298 297 296 297 298 298 299 298 298 297 292 290 290 290 290 289 288 287 286
309 310 308 309 312 312 311 311 310 309 309 311 310 307 306 305 303 302 301 299 298 299 298 298 298 299 299 299 299 299 299 298 297 292 290 290 289 289 289 288 287 286 286 286
310 308 311 312 314 313 313 311 309 308 308 310 309 308 306 305 305 303 301 302 302 302 301 300 300 300 300 300 299 299 297 293 291 290 289 289 289 289 289 288 287 287 286 284
309 311 311 312 313 313 312 311 309 308 308 309 310 309 307 306 306 305 303 302 302 301 301 301 300 299 299 299 299 297 293 291 290 289 289 289 290 288 287 287 286 285 284 284
310 311 312 312 312 313 312 310 310 309 309 309 310 308 307 306 305 305 303 303 302 302 301 301 301 300 298 298 296 293 293 290 289 289 289 289 288 287 286 286 285 283 282 282
311 312 312 312 312 311 310 310 309 309 309 309 310 309 307 304 303 303 303 303 303 302 302 301 300 298 297 295 293 292 291 289 289 289 290 288 287 286 285 284 283 282 282 282
310 310 309 310 311 311 310 309 308 307 308 308 308 308 307 304 305 302 302 301 301 301 301 300 299 297 295 293 293 292 290 289 290 290 288 287 286 285 284 283 283 282 282 281
305 307 309 308 309 309 308 307 306 305 305 306 306 305 305 304 304 302 301 299 301 301 300 299 297 295 295 294 293 290 289 290 290 288 287 286 285 285 283 282 282 282 281 281
304 305 306 309 309 309 309 307 305 304 304 303 304 304 303 302 303 302 300 299 300 301 300 298 296 295 295 293 290 289 289 290 288 287 286 285 284 283 283 282 282 281 281 280
303 304 305 305 307 308 308 307 305 303 302 301 300 301 301 301 301 301 300 300 301 299 297 295 295 295 293 290 289 289 289 288 287 286 285 284 283 283 282 282 281 281 280 280
302 304 305 306 307 308 308 306 303 302 301 300 299 299 299 299 300 301 298 297 299 296 297 294 294 294 291 289 289 290 288 287 286 285 285 283 283 282 282 282 281 281 281 280
303 304 306 306 307 307 306 304 303 303 301 301 299 299 299 299 300 298 299 298 297 297 295 294 294 291 289 289 290 288 287 286 286 285 284 283 282 282 282 281 281 281 280 280
301 303 305 306 305 304 303 303 303 302 302 301 301 301 301 300 299 297 296 296 296 294 294 294 292 290 289 290 289 287 286 286 285 284 283 283 282 282 282 281 281 281 280 280
301 301 302 303 304 305 305 305 304 304 303 303 301 299 298 297 296 295 297 298 296 294 294 293 290 289 289 289 288 286 286 286 285 283 283 282 282 282 282 281 281 281 281 281
298 300 301 302 303 304 304 304 305 304 302 303 301 300 299 298 297 297 297 295 294 295 294 291 289 289 290 288 287 286 286 285 284 283 282 282 282 282 281 281 281 281 281 281
298 300 301 300 301 302 302 303 304 305 302 299 299 299 299 298 297 296 296 295 295 294 292 290 289 289 289 288 287 286 285 285 283 282 282 282 282 282 281 281 281 281 281 281
299 298 298 299 299 299 299 299 299 301 302 302 302 298 297 297 298 298 295 295 294 293 291 290 289 289 288 287 286 285 285 284 283 282 282 282 282 281 281 281 281 281 281 281
297 298 299 298 297 297 296 297 297 297 298 300 300 298 297 296 295 294 295 295 294 292 290 289 289 289 288 286 285 285 285 283 282 282 282 282 282 281 281 281 281 281 281 281
295 296 296 297 297 297 296 296 296 296 296 297 298 297 296 295 295 294 294 294 293 292 290 289 289 289 287 286 285 285 284 282 282 283 282 282 282 281 281 281 281 281 281 282

GFSNGP_850_thetae_060.txt.gz
Theta_e
306 308 308 307 308 306 304 304 304 305 304 305 306 307 307 308 312 310 306 305 308 309 309 310 310 310 311 311 310 311 311 311 313 313 312 312 313 312 311 309 311 311 311 306
304 307 307 308 308 307 307 307 306 307 308 308 308 309 309 313 309 306 304 303 307 307 307 309 310 308 307 309 308 308 310 310 310 310 309 308 309 309 307 303 301 302 302 303
304 306 308 308 308 308 307 306 308 308 309 309 310 311 314 309 306 304 302 302 304 305 303 307 305 305 304 304 302 302 303 304 304 305 306 305 302 300 301 301 302 300 298 298
308 307 313 308 306 308 308 308 306 308 309 309 310 314 310 307 305 303 301 301 301 301 302 304 303 303 303 301 300 300 299 299 301 301 302 301 298 297 296 295 297 298 299 299
311 310 307 312 311 308 310 314 307 308 309 309 312 312 308 307 304 302 300 300 299 300 301 302 302 302 303 302 301 300 298 298 298 300 301 300 298 297 298 299 299 299 300 300
310 310 310 308 311 310 312 319 312 310 310 312 313 315 311 306 302 300 299 298 299 299 300 300 300 300 300 301 300 299 298 299 299 298 299 298 298 298 298 298 299 299 299 294
310 311 306 305 307 310 317 314 313 313 313 313 312 311 309 306 302 299 297 297 297 298 298 298 299 297 296 296 295 295 295 296 296 298 298 298 299 298 298 298 298 294 290 289
311 311 308 306 313 315 313 312 312 312 312 313 312 309 308 304 302 299 297 296 296 296 296 296 296 295 296 295 295 296 297 297 298 298 298 298 298 297 293 290 289 289 288 288
307 307 305 307 311 311 309 310 311 311 310 311 310 307 307 303 302 300 297 296 295 295 296 295 297 297 297 297 296 297 298 298 298 298 296 291 290 290 290 289 289 288 287 287
308 309 306 310 311 311 312 311 311 310 309 309 310 308 307 304 303 301 298 298 298 298 299 298 299 298 298 297 298 298 298 298 294 290 289 289 289 290 289 288 287 286 286 285
308 307 311 312 312 314 312 312 310 309 309 308 309 307 307 305 304 303 301 300 301 301 300 300 299 299 299 298 299 299 296 291 290 289 289 289 289 289 287 287 286 286 285 285
308 308 310 310 312 312 312 312 311 310 309 309 309 309 307 307 305 304 303 301 301 301 300 300 300 300 300 299 298 294 292 290 289 289 289 289 289 288 287 287 286 285 285 284
308 309 309 311 312 312 311 311 310 310 309 310 309 309 308 307 305 304 302 301 300 300 301 301 301 300 299 298 295 292 291 290 289 289 290 289 287 286 286 286 285 284 283 282
309 310 311 311 310 310 310 309 309 309 309 309 309 310 311 307 306 304 303 302 302 301 302 301 300 299 298 296 293 292 290 289 289 289 289 287 287 286 285 284 284 283 282 282
308 306 306 308 309 309 309 309 308 308 308 308 308 309 309 307 305 306 303 302 302 302 301 300 299 298 296 294 293 292 289 289 289 290 288 287 286 286 285 284 283 282 282 281
304 306 306 305 308 309 308 307 307 307 306 307 307 307 308 307 305 304 302 302 301 301 301 300 299 297 295 294 293 291 289 289 290 288 287 286 286 285 284 283 282 282 282 281
301 303 304 305 305 306 308 307 308 307 305 305 305 305 305 305 303 302 301 301 299 299 300 301 298 296 295 294 292 290 289 290 289 287 287 286 285 284 283 283 282 282 281 281
301 301 303 303 304 305 305 307 308 307 305 304 303 303 303 303 304 303 302 301 298 298 299 299 296 295 296 295 291 289 290 290 288 287 286 285 284 283 283 282 282 282 281 281
301 301 302 304 305 305 306 306 307 307 303 302 301 301 301 301 301 302 302 300 300 301 300 297 295 295 295 293 290 289 290 288 287 286 285 284 283 283 283 282 282 282 281 281
301 301 303 305 305 305 306 306 306 304 302 301 300 299 299 300 300 300 300 300 301 302 300 296 295 295 295 291 289 290 289 287 286 286 285 284 283 283 283 282 282 281 281 281
300 300 301 303 302 302 303 303 303 302 302 301 300 300 299 299 299 299 299 300 301 300 295 296 295 295 293 290 290 290 288 286 286 285 284 283 283 283 282 282 282 281 281 281
299 300 301 301 301 302 302 302 301 301 301 301 300 299 299 299 299 300 300 301 300 296 295 295 295 294 291 289 290 288 287 286 286 285 284 283 282 282 282 282 281 281 281 281
299 299 299 300 301 301 302 302 302 303 302 302 302 303 303 301 301 300 299 298 295 295 295 294 294 292 289 289 289 287 286 286 285 285 283 283 282 282 282 282 281 281 281 281
299 297 297 297 299 300 300 300 302 303 302 300 301 299 299 299 298 298 297 297 297 295 294 294 293 290 289 289 288 287 286 285 285 284 283 282 282 282 282 282 281 281 281 281
296 297 299 299 298 298 298 298 299 300 302 302 300 299 298 297 296 297 297 296 295 295 294 294 292 289 289 289 288 287 286 285 285 284 282 282 282 282 282 282 281 281 281 281
292 294 296 297 297 298 297 297 297 297 297 298 300 301 302 300 297 296 295 295 294 294 294 293 291 290 289 289 287 286 285 285 284 283 282 283 283 282 282 282 281 281 281 281
288 289 291 294 295 296 296 296 296 295 295 296 296 297 298 298 297 295 296 294 294 294 293 292 290 289 289 289 287 286 285 285 284 283 282 283 283 282 282 281 281 281 281 283

GFSNGP_850_thetae_063.txt.gz
Theta_e
306 308 307 307 308 305 303 304 307 306 304 305 305 305 307 308 310 310 308 307 307 308 307 307 306 306 307 308 307 307 308 310 310 310 310 310 310 310 310 310 310 309 310 310
305 307 307 308 307 307 306 307 305 305 307 308 308 308 309 312 311 308 305 304 305 303 304 304 303 305 305 307 307 305 305 307 308 308 308 307 307 306 304 304 304 302 302 299
305 306 308 309 308 307 307 306 308 309 309 308 309 310 312 310 307 305 303 303 302 301 303 303 304 303 305 304 306 306 304 304 302 302 304 305 304 302 303 301 300 299 296 297
308 306 312 307 306 307 307 307 306 307 309 309 309 311 311 308 307 304 301 301 302 300 302 302 303 303 304 304 305 304 302 300 299 299 300 300 299 299 300 298 298 298 298 298
310 309 307 313 309 307 309 313 307 307 308 308 310 312 309 308 305 302 301 301 300 300 301 302 302 302 303 304 303 303 301 299 298 298 298 298 299 298 296 297 297 297 297 297
306 307 310 307 311 309 309 319 313 308 311 310 313 316 313 307 304 301 300 299 300 300 300 299 299 299 300 301 300 300 300 299 298 298 297 297 296 296 297 297 297 297 297 297
308 306 307 304 306 308 316 316 312 312 312 312 312 311 308 306 302 300 297 298 299 298 298 297 297 297 298 297 297 297 298 298 298 297 297 297 297 297 298 298 298 293 289 289
310 307 307 305 310 315 314 311 310 310 311 312 312 309 306 303 302 300 299 298 297 298 297 296 297 297 297 298 297 297 298 297 297 297 298 297 298 296 290 290 289 289 288 288
306 307 305 307 309 310 310 309 310 310 309 309 310 308 306 304 303 301 299 297 297 297 296 298 298 297 298 296 297 297 297 298 298 298 294 290 290 290 290 289 288 288 287 286
308 308 305 308 310 310 312 311 311 309 308 308 310 308 307 305 304 302 300 298 297 298 298 299 299 298 299 298 298 298 299 298 293 290 290 290 290 289 288 287 287 286 286 285
306 306 309 311 311 312 315 312 312 310 308 308 309 308 308 307 305 303 302 301 301 300 300 300 300 300 299 299 299 298 294 290 290 289 289 290 290 289 287 287 286 286 285 284
307 308 308 309 310 310 311 312 311 310 309 309 309 309 309 307 306 304 303 302 302 302 301 301 300 300 299 299 298 293 291 290 289 289 290 290 288 287 287 287 286 285 284 283
307 308 309 310 310 310 311 310 310 309 308 309 309 308 309 310 307 304 303 301 301 301 301 302 301 300 299 297 293 291 290 290 289 289 290 288 287 286 286 285 284 283 283 282
308 309 309 309 309 309 310 310 309 308 308 309 309 308 307 308 307 305 304 302 300 300 302 302 300 299 298 295 293 291 290 289 289 290 289 287 286 286 286 285 284 283 283 282
306 306 305 305 306 308 308 308 308 308 308 308 308 308 307 307 306 306 304 303 301 302 301 300 300 299 298 295 294 292 289 289 289 289 287 287 286 286 285 284 283 283 282 282
304 304 304 304 305 305 307 308 308 308 308 307 307 307 307 307 306 305 304 303 303 302 302 300 300 299 297 295 294 291 289 289 290 288 287 287 286 285 284 284 283 283 282 282
300 301 302 303 303 304 305 306 307 307 307 306 306 306 306 305 304 304 303 302 302 302 302 301 300 297 295 294 294 291 289 289 290 288 287 286 286 284 284 284 283 283 282 281
299 299 300 300 302 303 304 305 306 306 307 307 304 304 304 304 304 304 303 302 300 299 300 300 298 296 295 295 293 290 289 290 289 287 287 286 285 284 284 283 283 283 282 281
300 300 301 302 303 304 305 305 306 305 306 306 304 304 303 303 303 302 301 300 300 300 300 299 297 295 294 295 292 289 289 290 288 287 287 286 284 284 283 283 283 282 282 281
299 300 300 301 302 302 303 304 305 306 306 304 302 301 301 300 301 301 301 300 300 301 300 300 298 294 294 293 291 289 290 290 288 287 286 286 284 284 283 283 283 282 282 281
298 298 299 300 301 300 300 301 302 302 302 301 300 300 299 299 299 299 299 299 300 299 299 300 299 294 294 293 291 289 290 289 287 287 286 285 284 283 283 283 282 282 282 282
297 298 299 300 300 300 301 300 299 299 300 300 300 300 298 298 298 297 298 299 299 298 299 300 295 293 294 293 290 289 290 288 287 286 286 284 283 283 283 283 282 282 282 281
298 299 299 299 299 299 300 300 300 300 300 300 300 300 299 299 299 299 299 299 299 300 300 296 294 293 293 291 289 290 289 288 287 286 286 284 283 283 283 283 282 282 282 281
297 298 299 298 297 297 298 299 299 300 299 299 299 299 299 300 301 300 299 300 301 300 297 295 294 293 294 291 289 290 289 287 286 286 285 284 283 283 283 283 282 282 281 281
291 294 296 297 298 297 296 296 296 298 299 300 299 298 297 297 297 297 297 298 297 296 294 293 293 293 293 290 289 289 288 287 286 286 285 284 283 283 283 283 282 282 281 281
289 289 290 292 294 295 296 296 296 295 296 296 298 299 299 300 299 297 296 295 297 297 294 293 293 293 292 289 289 289 288 287 286 286 285 283 283 283 283 282 282 282 281 281
287 287 287 288 288 292 294 295 296 296 295 295 295 296 297 298 298 298 297 295 295 295 294 293 293 293 291 289 289 289 287 286 286 285 284 283 283 283 283 282 282 282 282 283

GFSNGP_850_thetae_066.txt.gz
Theta_e
309 310 310 310 311 309 309 311 316 311 310 311 310 311 312 312 312 311 307 306 304 306 305 307 305 305 307 308 308 307 308 309 309 309 309 310 310 310 310 310 311 310 310 310
310 309 309 311 310 310 309 310 310 310 311 311 311 310 310 313 311 308 305 304 303 305 304 306 305 305 306 305 305 306 305 306 307 307 306 308 308 306 305 305 304 304 303 299
313 309 310 313 311 310 310 309 310 312 312 311 311 311 311 312 309 306 304 303 302 303 303 304 303 304 303 304 303 302 303 304 304 305 304 303 303 303 303 302 301 300 297 297
312 310 315 310 308 309 310 310 309 310 310 310 310 310 310 310 307 307 305 301 300 301 302 302 302 302 303 302 301 302 303 302 302 303 303 302 301 301 300 298 298 297 297 297
313 312 311 314 310 310 312 317 311 310 310 310 310 311 310 309 308 306 303 299 300 300 301 302 301 301 301 301 301 302 303 302 301 301 300 299 299 298 298 297 297 297 297 297
311 312 312 312 312 311 311 320 314 310 311 312 313 318 317 307 306 303 300 298 300 300 300 299 300 300 300 300 300 301 302 301 300 299 298 297 297 297 297 297 296 296 296 297
311 312 310 308 307 308 318 319 314 312 312 312 314 313 309 307 304 301 298 299 299 299 297 298 298 298 298 298 300 300 300 299 298 298 298 297 297 297 297 297 297 294 290 289
311 311 312 307 311 315 315 312 310 310 311 312 312 310 307 305 303 300 300 299 297 297 297 297 298 297 297 299 299 299 299 299 298 297 297 297 297 293 291 290 289 288 287 287
310 311 308 307 311 310 310 310 310 310 310 309 309 308 306 304 302 302 299 297 297 297 297 298 297 297 298 299 298 299 299 298 297 297 295 290 290 290 289 288 287 287 286 285
311 311 309 309 310 310 310 312 311 311 309 308 308 308 306 305 304 302 299 297 298 298 299 298 297 298 298 297 297 297 297 297 293 290 290 290 290 289 288 287 286 286 286 285
311 310 310 310 310 311 310 313 313 311 309 308 308 308 307 306 305 303 301 299 299 299 299 300 300 299 299 299 298 298 295 290 290 290 290 290 289 288 287 287 287 286 285 284
310 310 311 311 310 309 310 310 312 311 310 309 309 309 308 307 306 305 303 302 301 300 301 301 301 300 300 299 298 294 291 290 290 290 290 289 288 288 287 287 286 285 284 284
310 308 308 309 309 309 309 309 309 309 309 308 309 308 309 309 306 305 304 303 302 302 302 301 301 301 300 298 294 291 290 290 290 290 290 288 288 287 286 286 285 284 283 283
308 308 308 308 309 308 309 309 309 308 308 308 308 309 308 308 307 305 305 304 302 302 302 302 302 300 299 295 293 291 290 289 290 290 289 288 287 287 286 285 284 284 283 283
306 307 306 306 307 307 306 308 308 308 308 308 308 308 308 308 308 307 304 303 302 302 302 302 301 300 298 295 293 291 290 289 290 290 288 287 287 286 285 284 284 284 283 283
304 304 303 304 304 305 305 305 306 308 307 307 307 308 308 307 307 307 305 302 302 303 302 301 301 300 298 296 294 292 290 289 290 290 288 287 287 286 285 284 284 284 283 283
302 302 301 302 302 303 304 304 304 305 307 306 306 306 306 306 306 306 305 303 302 302 302 301 300 300 299 296 294 293 290 289 290 289 288 287 287 286 284 284 284 283 283 283
300 299 300 300 300 301 303 304 304 305 305 306 306 305 305 306 306 306 305 303 302 302 301 301 300 300 298 296 294 292 290 289 290 289 287 287 287 285 284 284 284 283 283 282
299 300 300 300 301 301 302 303 304 304 305 305 305 307 306 304 305 305 304 303 302 301 301 300 300 299 297 295 294 293 289 289 290 289 287 287 286 285 284 284 284 283 283 282
298 299 299 299 300 300 301 301 302 304 305 305 304 304 303 303 303 303 303 302 302 302 301 300 300 299 296 294 293 292 289 289 290 288 287 287 286 285 284 284 284 283 283 282
298 298 298 299 300 300 300 299 299 301 302 303 303 302 301 301 301 301 300 301 301 300 300 299 300 300 294 293 293 291 289 289 289 288 287 287 286 285 284 284 284 283 283 282
297 297 297 298 298 298 299 299 299 298 298 298 299 299 298 298 298 299 298 299 300 299 298 298 299 299 297 293 293 291 289 289 289 288 287 287 286 285 284 284 283 283 283 282
297 297 297 298 298 298 298 298 299 299 299 299 298 298 298 298 298 298 298 298 298 297 298 298 299 298 296 292 292 291 289 289 289 287 287 287 286 285 284 283 283 283 283 282
291 294 295 297 298 298 299 298 298 298 299 299 299 298 298 298 298 298 298 297 297 298 298 298 298 298 293 293 292 290 289 289 288 287 287 286 286 284 283 283 283 283 283 282
289 289 290 291 294 296 296 298 297 296 297 298 298 299 299 299 298 299 299 299 299 299 298 298 298 295 292 292 292 290 289 289 288 287 287 286 285 284 283 283 283 283 282 282
288 288 288 288 288 289 293 295 296 296 295 296 296 297 298 297 297 296 296 296 298 299 299 297 294 292 293 292 292 290 289 289 288 287 286 286 285 284 283 283 283 283 282 282
287 287 287 287 287 287 288 291 293 295 295 295 295 295 295 296 297 297 296 294 294 294 294 293 292 293 293 292 291 289 289 289 288 286 286 285 284 283 283 283 283 283 282 282

GFSNGP_850_thetae_069.txt.gz
Theta_e
312 311 312 313 313 312 311 313 319 313 313 311 312 312 312 314 314 315 312 310 308 307 306 305 304 305 306 307 307 307 307 308 308 309 309 309 309 309 310 310 310 310 309 309
312 311 311 312 312 312 311 311 312 312 312 312 311 313 313 315 315 313 310 307 305 304 304 304 303 305 305 305 305 305 305 307 307 307 307 308 308 308 308 307 306 305 304 303
315 311 312 314 313 312 312 311 312 313 312 313 312 313 312 313 312 311 307 306 304 303 303 303 302 304 303 305 304 304 305 305 304 303 304 305 303 303 303 302 301 300 299 299
314 312 316 312 310 311 312 311 311 312 312 312 312 312 311 310 311 308 305 304 303 302 302 303 301 304 304 304 304 303 302 301 302 302 303 303 301 300 300 300 299 298 298 298
314 314 313 314 311 311 313 315 311 311 311 312 312 311 312 309 308 305 305 302 301 301 301 303 301 303 303 303 302 302 301 300 300 301 300 300 299 299 299 298 297 297 297 297
313 314 314 316 314 312 313 320 314 312 313 314 314 318 318 306 308 306 302 301 299 301 301 301 301 301 301 301 302 302 300 300 299 299 299 299 299 297 297 297 297 297 297 293
312 313 312 311 309 310 318 319 313 312 313 313 315 313 310 309 307 303 300 300 300 300 300 300 299 299 300 300 301 300 299 298 298 298 299 299 298 297 297 296 295 290 289 289
311 312 313 312 312 313 316 314 313 313 313 313 312 311 309 308 305 301 299 298 299 299 299 298 298 297 298 299 299 299 298 299 298 298 298 298 297 295 291 289 289 288 288 287
311 312 311 310 313 311 311 312 312 312 311 310 311 308 307 306 303 301 300 298 299 298 297 298 297 296 298 299 299 297 298 298 298 297 294 290 290 290 289 288 288 287 287 286
311 312 311 310 311 312 310 311 312 311 310 309 310 308 305 305 304 302 299 298 297 296 297 297 297 297 299 298 298 298 297 298 295 290 290 290 290 288 288 288 287 287 286 285
312 312 312 311 311 312 310 310 312 312 312 310 309 308 307 306 305 302 300 298 298 297 298 298 298 297 297 297 297 297 297 292 290 290 290 290 289 288 288 288 287 286 286 285
312 311 311 312 312 310 310 310 310 310 310 310 309 309 306 307 306 303 300 299 299 299 299 299 298 297 298 298 298 296 291 290 290 290 290 289 289 288 288 287 287 286 285 285
309 310 310 310 310 309 309 309 310 309 309 309 308 308 307 307 308 306 302 301 301 300 300 300 300 300 299 299 297 292 291 290 290 290 290 289 288 288 288 287 286 286 285 285
309 308 309 310 310 307 308 308 310 310 308 308 307 307 307 307 308 307 305 303 301 301 301 300 300 300 300 299 295 291 290 290 290 291 290 289 288 287 287 286 285 285 285 284
307 307 307 307 307 306 306 306 307 308 307 307 308 308 307 307 308 308 306 304 302 301 301 301 301 301 300 298 294 292 291 290 290 291 290 288 288 287 287 285 285 285 285 285
305 304 305 305 305 304 304 305 305 305 307 306 306 307 307 307 306 307 307 305 304 302 302 302 302 302 300 298 294 293 291 290 290 291 290 289 288 287 286 285 285 285 285 284
302 303 303 303 303 302 302 302 303 304 304 305 306 306 306 306 306 307 307 307 305 303 303 302 302 301 300 298 296 294 292 290 290 290 290 288 288 287 286 285 285 285 285 284
300 300 300 300 300 300 301 301 301 302 303 304 304 305 306 305 306 306 306 306 304 302 302 302 302 301 300 299 297 295 293 291 289 290 290 288 287 287 286 285 285 285 285 284
299 299 300 300 300 300 301 301 302 303 303 303 304 305 305 306 305 305 305 305 305 303 303 302 302 300 300 299 298 296 294 292 289 290 290 288 287 287 286 285 285 285 284 284
298 298 298 298 299 299 300 300 300 300 301 301 302 303 304 304 305 304 304 304 305 305 303 302 301 300 300 299 297 295 294 292 289 289 289 288 287 287 286 285 285 284 284 284
298 297 297 297 298 298 298 299 299 298 298 300 302 302 302 302 302 302 302 302 303 303 302 301 300 300 300 300 298 294 293 292 289 289 289 288 287 287 286 285 284 284 284 284
298 298 298 298 298 297 297 298 298 298 298 297 298 298 299 299 300 300 300 300 301 300 300 300 299 299 299 299 299 294 293 292 289 289 289 287 287 287 286 285 284 284 284 284
294 294 295 297 298 298 297 297 297 298 298 298 298 298 298 298 298 298 299 299 299 299 299 298 298 298 298 298 299 294 293 292 289 289 289 287 287 286 286 285 284 284 284 284
290 290 290 291 294 296 297 298 298 298 297 298 298 298 298 298 298 298 298 298 297 297 297 297 297 297 297 297 298 297 294 291 289 289 288 287 286 286 286 285 284 284 284 284
289 288 288 288 288 289 292 295 296 296 295 297 297 298 298 298 298 298 298 297 297 297 297 297 296 296 296 297 297 298 295 292 289 289 288 287 286 286 286 285 284 284 284 284
288 287 287 287 287 287 288 289 292 294 295 295 295 295 296 297 298 298 298 298 298 298 298 297 297 296 297 298 297 296 291 291 289 288 288 287 286 286 286 285 284 284 284 283
287 286 287 287 287 287 287 287 287 289 292 294 295 294 294 294 295 296 296 297 297 298 297 297 297 296 296 296 296 291 290 290 288 288 288 287 286 286 285 284 284 284 284 283

GFSNGP_850_thetae_072.txt.gz
Theta_e
311 311 312 313 313 311 306 310 309 311 311 309 310 309 310 314 313 314 313 311 310 309 307 306 305 305 306 307 307 307 307 307 308 308 309 309 309 308 309 309 309 308 308 308
309 311 311 311 312 312 310 310 310 311 311 310 310 311 313 314 315 315 313 310 308 307 306 304 304 305 306 307 307 306 306 306 306 307 307 308 308 308 307 306 305 305 305 304
311 311 311 311 311 311 311 310 310 311 310 312 311 312 312 313 315 314 312 309 306 305 304 304 304 304 305 306 306 306 305 304 304 305 306 307 307 303 302 302 301 301 301 300
311 311 314 311 310 311 311 311 310 310 311 311 311 312 311 312 313 312 310 307 305 304 304 303 303 303 304 304 304 305 304 303 304 304 304 303 301 300 300 299 300 300 300 299
311 312 312 312 310 311 311 312 310 310 310 310 312 312 312 310 311 310 307 305 303 303 302 302 302 303 304 304 304 303 303 302 303 302 301 300 299 298 299 299 299 299 299 298
312 312 314 316 312 311 312 318 311 310 310 313 314 315 312 310 309 308 306 303 303 302 302 303 303 302 303 302 302 303 301 301 301 300 299 298 298 298 298 298 299 298 294 290
311 311 311 313 311 310 318 317 312 312 313 313 313 312 311 309 308 306 302 302 302 302 300 301 301 301 301 301 301 301 300 299 299 298 298 298 297 297 297 295 291 290 290 289
311 311 310 311 310 313 315 314 313 313 313 313 313 311 309 308 306 303 303 302 301 300 301 300 300 300 300 300 301 300 299 298 298 298 298 297 296 294 290 289 289 288 288 287
308 309 310 312 310 310 311 312 312 312 311 310 311 310 308 308 305 303 303 302 300 300 299 299 299 299 298 300 300 298 298 298 298 298 296 292 291 290 289 288 288 288 287 287
310 310 309 310 311 312 311 311 312 311 311 310 310 310 308 307 305 303 301 301 300 298 298 298 299 298 298 299 299 298 298 296 297 292 290 290 290 289 288 288 288 288 287 287
309 310 311 311 311 313 310 310 311 311 311 311 310 310 309 307 307 305 303 301 299 297 298 299 298 299 299 298 298 297 297 296 291 291 290 290 289 289 289 288 288 287 286 286
310 309 310 311 311 311 310 309 309 310 310 310 310 309 309 308 307 306 304 302 300 298 299 299 299 298 298 298 297 296 297 291 291 291 291 290 289 289 288 288 288 287 287 286
309 309 309 310 310 310 309 309 309 310 310 309 309 309 309 309 308 307 304 304 303 302 301 300 299 297 297 296 296 297 292 291 291 291 291 290 290 289 288 288 287 287 286 286
309 309 308 309 309 309 308 308 308 308 309 308 307 308 308 308 308 308 306 305 304 303 301 301 300 300 299 298 298 294 291 291 291 291 291 290 289 289 289 288 287 287 286 286
309 308 307 307 308 307 306 306 307 306 307 307 307 307 307 307 308 308 307 305 303 303 301 301 301 300 300 299 298 293 291 291 291 291 291 290 289 289 288 287 286 286 286 286
307 307 306 306 305 305 305 305 305 305 305 306 306 306 306 306 306 307 307 306 304 304 302 301 302 301 301 300 298 293 291 290 290 290 291 290 289 288 288 287 286 286 286 285
305 304 304 304 303 302 302 302 302 303 303 304 304 305 305 305 305 306 306 306 305 303 303 303 302 302 302 300 298 295 293 291 290 290 291 290 289 288 288 287 286 286 285 285
302 301 301 300 300 300 300 300 300 301 302 303 303 304 304 305 305 305 306 305 305 304 302 302 302 302 302 301 299 296 294 292 291 290 290 291 289 288 288 287 286 286 285 285
300 300 300 300 300 300 301 301 301 302 302 302 303 304 304 304 304 305 304 304 305 305 305 302 301 301 301 301 300 298 296 294 292 291 290 290 290 288 288 287 287 286 285 285
299 299 299 299 299 299 299 299 300 300 300 299 300 301 302 302 303 304 304 305 305 305 305 304 302 301 301 300 300 299 298 296 294 292 290 289 290 289 288 287 287 286 285 285
299 299 298 298 298 298 297 298 298 299 299 298 298 300 301 301 301 302 302 303 304 303 303 303 302 301 300 300 300 299 299 297 294 293 291 289 290 289 288 287 287 286 285 284
298 297 297 298 298 298 298 297 297 297 297 298 297 297 298 299 299 299 300 301 301 301 301 302 301 301 299 299 299 299 299 298 295 293 293 290 289 289 288 287 287 286 285 284
293 292 292 292 294 295 296 297 297 296 296 297 297 297 297 297 297 297 298 298 299 298 299 299 300 299 298 297 298 298 298 299 296 294 297 290 289 289 287 287 286 286 285 284
290 289 289 288 289 290 290 293 296 297 296 296 296 296 297 297 297 297 297 297 297 297 298 298 298 298 296 296 296 297 297 298 297 296 295 290 289 289 287 287 286 286 284 284
290 289 288 288 288 287 287 288 290 293 295 295 295 295 296 296 296 296 296 297 297 296 297 297 296 296 295 296 296 296 296 297 299 297 296 289 289 288 287 286 286 285 284 284
289 288 287 287 287 287 287 287 287 288 289 292 293 294 294 294 295 295 296 296 297 297 297 296 295 295 295 295 295 296 296 297 297 297 292 288 288 288 287 286 286 285 284 284
287 286 286 286 286 287 287 287 287 287 287 287 288 291 293 293 294 294 294 295 296 296 296 296 295 294 294 295 296 296 296 296 296 294 290 288 288 288 287 286 286 285 284 284

GFSNGP_850_thetae_075.txt.gz
Theta_e
310 311 311 311 311 309 303 309 308 311 310 309 308 307 308 310 312 313 314 312 311 310 309 308 308 307 306 306 306 307 307 307 308 308 308 308 308 308 308 309 309 309 308 307
305 310 310 310 311 310 309 309 309 309 310 307 309 309 308 310 311 313 313 312 310 309 309 308 306 306 306 306 306 306 306 306 306 307 307 307 308 307 307 306 306 306 306 304
307 310 310 309 309 310 309 308 309 309 309 310 308 309 311 313 313 314 314 312 310 309 308 307 305 305 305 305 305 305 305 305 305 305 306 306 305 304 304 304 304 302 301 300
307 309 311 308 309 310 310 310 308 309 309 309 310 311 312 313 314 314 313 312 310 308 306 305 304 304 304 304 304 304 304 304 304 305 304 304 303 302 302 302 301 299 299 300
308 308 309 311 309 309 310 310 309 308 309 310 311 312 312 311 311 312 312 310 308 306 305 304 303 303 303 303 303 303 304 304 304 303 303 302 301 301 301 300 299 298 298 298
310 309 312 315 310 310 311 316 309 308 308 309 312 312 311 311 310 310 309 308 307 305 304 303 303 303 303 303 303 303 303 302 302 301 301 300 300 300 299 298 298 296 291 290
307 307 309 312 311 311 317 314 311 311 312 312 311 311 313 311 309 308 307 305 303 302 302 302 302 302 302 302 301 302 302 301 301 300 299 299 299 298 298 294 291 290 290 289
310 311 309 309 309 312 313 312 313 313 313 313 313 312 310 309 308 306 306 305 303 302 302 302 301 301 301 301 301 302 301 300 300 300 299 299 297 293 290 289 289 289 288 288
307 307 307 310 310 312 313 313 312 312 311 311 311 310 310 309 307 306 305 304 303 302 301 301 300 300 300 300 301 301 300 299 299 299 298 295 292 290 289 289 288 288 288 287
308 309 307 311 310 311 311 311 312 311 311 310 311 310 310 308 306 304 304 304 302 301 300 300 300 299 299 299 300 299 299 299 299 298 293 290 289 289 289 289 288 288 287 287
307 307 309 309 311 312 311 311 311 312 311 311 310 310 310 309 307 306 306 304 302 301 300 300 299 299 298 299 300 299 298 298 297 292 291 291 290 289 289 288 288 287 287 286
308 308 309 309 311 310 310 310 309 309 309 309 309 309 310 309 308 307 306 304 302 301 300 300 300 299 299 299 299 299 298 298 293 291 291 290 289 289 289 288 288 287 286 286
308 309 310 310 310 310 309 309 309 308 309 309 309 308 309 309 308 308 307 305 303 302 301 301 300 299 300 299 298 297 299 296 291 291 291 290 290 289 288 288 287 287 286 286
309 309 308 309 309 309 308 308 307 307 308 308 308 308 308 308 308 308 308 307 304 303 302 302 301 300 298 298 297 298 298 293 290 291 291 290 290 289 289 288 287 287 287 287
308 308 308 308 308 307 307 306 306 306 306 306 307 307 307 307 307 308 307 307 305 303 303 302 302 302 301 299 299 299 296 291 290 290 290 290 290 289 288 288 288 287 287 287
307 307 306 306 305 305 305 305 304 304 304 305 305 305 306 306 306 306 306 306 306 306 304 303 303 303 302 301 300 299 296 291 290 290 290 291 290 289 288 288 288 287 286 286
306 305 305 304 304 303 303 302 302 302 302 303 303 304 304 305 305 305 306 306 306 306 305 304 304 303 302 301 301 300 297 292 290 290 290 290 290 290 289 288 288 287 286 286
304 303 303 302 301 301 301 301 300 300 300 300 301 303 303 304 304 305 305 305 305 305 305 305 303 303 302 301 301 300 298 294 291 291 290 290 290 290 289 288 288 288 286 286
301 301 300 300 300 300 300 300 301 301 301 301 302 302 302 304 304 304 304 303 304 305 306 305 304 302 301 301 301 300 299 296 293 292 290 289 289 290 289 288 288 288 287 286
299 299 299 298 298 299 299 299 299 299 300 300 300 299 299 301 302 302 303 303 304 305 304 304 303 303 302 301 300 301 300 298 295 293 292 290 289 289 290 289 288 288 287 286
299 299 299 299 298 298 297 297 297 297 298 298 298 298 297 300 301 301 301 302 303 302 303 303 303 303 303 301 300 300 300 299 297 295 293 293 291 289 289 290 288 287 287 286
298 295 294 294 294 295 296 297 297 296 296 296 297 297 297 297 298 299 299 300 301 301 301 301 302 302 302 300 299 299 299 299 298 298 296 294 292 290 290 290 289 287 287 286
294 291 290 289 289 290 291 292 294 296 295 295 296 296 296 296 297 297 297 297 298 298 299 299 299 299 299 298 298 298 298 298 299 298 298 296 292 294 291 289 289 288 287 286
292 291 289 288 288 288 288 288 289 292 294 295 295 295 295 296 296 296 296 296 297 297 297 298 297 297 297 297 297 296 296 296 297 297 297 296 294 295 290 291 289 287 287 286
291 290 288 288 287 287 287 287 287 287 288 291 293 294 294 294 294 295 295 296 296 296 296 296 296 296 295 295 295 295 295 295 296 296 296 296 296 295 293 288 289 287 286 286
290 288 287 287 287 287 287 287 287 287 287 287 287 290 292 293 293 294 294 294 295 295 295 295 295 295 295 295 295 294 294 294 294 295 295 296 295 295 290 289 288 287 286 286
290 288 286 286 286 286 286 287 287 287 287 287 287 287 288 290 292 292 293 293 294 294 295 295 295 295 295 295 294 294 294 294 294 294 294 294 294 293 289 288 287 286 285 285

GFSNGP_850_thetae_078.txt.gz
Theta_e
309 311 310 309 309 308 305 307 308 309 309 309 309 308 309 312 314 314 314 313 313 313 311 310 309 308 308 307 307 307 307 307 307 308 308 308 308 308 308 308 309 309 309 309
304 309 310 310 310 308 307 308 309 308 309 309 309 308 308 310 311 313 313 313 312 312 311 310 309 308 307 306 306 306 306 306 306 306 307 307 307 307 308 308 307 307 306 306
305 309 309 308 308 309 308 308 309 309 308 308 308 307 307 309 310 311 312 313 313 312 311 310 309 307 306 306 306 305 305 305 305 305 306 307 307 306 305 305 304 303 303 303
306 308 311 306 308 308 309 309 307 308 308 309 308 309 309 310 310 311 312 313 312 311 310 308 307 306 305 305 305 305 304 304 304 304 305 305 304 303 302 302 301 302 302 302
308 307 306 309 309 309 309 309 307 307 307 309 310 311 310 312 313 313 314 314 313 310 309 307 306 305 305 304 304 303 303 303 304 304 304 303 302 301 301 300 300 301 300 299
305 307 311 311 309 309 310 313 309 307 307 309 311 310 308 312 311 311 311 311 310 308 306 305 304 304 303 303 303 303 303 303 303 303 301 301 300 300 300 299 300 297 292 290
307 305 307 307 310 311 315 310 310 308 308 310 310 309 312 314 311 310 310 310 308 306 306 304 303 303 303 303 302 302 302 302 302 301 300 300 299 299 299 298 292 290 290 289
306 308 306 309 309 313 311 312 312 312 312 312 312 312 313 312 311 310 309 308 306 305 304 303 302 302 302 302 302 301 301 301 301 300 299 299 298 298 293 290 290 289 289 288
306 306 305 309 310 311 313 313 312 312 312 313 312 312 311 310 309 309 308 306 305 304 302 302 302 302 301 301 301 301 301 300 300 299 299 298 296 292 290 290 289 289 288 288
308 307 307 309 310 311 311 312 312 311 310 311 311 310 310 309 308 308 306 305 305 303 302 302 301 301 300 299 300 300 300 299 299 299 298 295 291 290 289 289 289 288 288 287
306 306 308 308 310 311 311 311 311 311 312 311 310 311 310 310 309 308 307 306 305 303 302 301 301 300 300 299 300 300 299 299 299 298 295 291 290 289 289 289 288 288 287 287
308 307 307 309 309 311 311 310 310 309 309 309 309 309 309 309 309 308 308 306 305 303 302 300 300 300 300 299 299 299 298 298 299 297 291 291 290 290 289 289 288 288 287 287
308 309 310 310 310 310 310 309 309 308 308 308 309 309 308 309 309 308 307 307 306 304 302 301 300 300 299 299 299 299 298 298 298 293 291 291 291 290 289 289 288 288 287 286
308 309 309 310 310 309 308 308 308 307 307 307 308 308 308 308 308 308 308 308 306 304 303 302 301 301 300 300 301 299 298 298 297 291 291 291 290 289 289 289 288 287 287 287
308 308 308 308 308 308 307 307 307 306 306 306 306 306 306 307 307 307 307 307 306 305 304 302 302 302 300 299 299 298 298 298 296 291 290 290 290 290 289 289 288 288 287 287
307 307 307 306 306 306 305 305 304 304 304 305 305 305 305 305 306 306 306 306 306 306 306 305 304 303 301 300 299 298 299 298 295 291 290 290 290 290 289 289 288 288 288 286
306 305 305 305 304 303 303 303 303 302 302 303 303 303 304 304 304 305 305 306 306 306 306 306 305 303 302 301 300 300 299 298 295 291 290 290 290 290 290 289 288 288 288 287
304 304 304 303 303 302 301 301 300 300 300 300 299 300 302 303 304 304 304 304 305 305 306 306 305 303 302 302 301 301 300 299 297 293 291 290 290 290 290 290 288 288 288 287
301 301 301 300 300 300 300 300 299 300 300 300 300 300 301 302 302 303 303 303 304 304 306 305 304 304 303 302 301 300 300 300 299 297 292 290 289 290 289 290 289 288 288 287
299 300 300 300 299 299 299 298 298 298 298 298 299 300 301 301 300 301 301 302 303 304 303 303 303 304 304 303 301 300 300 301 300 299 296 292 290 290 289 289 290 289 288 288
299 299 299 298 298 298 298 297 297 297 297 297 297 298 298 299 298 299 301 301 302 302 302 302 302 303 303 303 301 301 300 300 300 299 298 295 292 291 290 289 289 289 288 288
298 296 295 293 290 291 292 292 293 295 296 296 296 296 297 297 297 298 298 299 299 299 300 301 301 301 301 301 301 300 300 299 299 299 299 297 296 294 292 290 289 289 290 289
297 292 291 290 289 288 288 288 288 290 293 295 296 296 296 296 296 296 297 296 296 297 298 299 299 300 299 299 300 299 299 298 298 298 298 298 297 297 295 293 289 292 291 289
292 291 289 288 288 288 287 288 288 288 288 289 292 294 295 296 296 295 294 295 295 296 297 297 297 297 297 298 298 298 297 297 296 296 296 296 297 296 295 295 293 293 290 292
292 291 289 288 287 287 287 287 287 287 287 287 287 289 291 292 293 295 295 295 295 295 296 296 295 295 295 296 296 296 295 295 294 294 294 295 295 295 295 295 294 294 292 288
292 291 289 287 286 286 286 286 287 287 287 287 287 287 287 289 291 292 293 293 294 295 295 295 295 295 295 294 294 294 294 293 293 293 293 293 294 294 294 294 294 293 290 288
296 292 288 287 286 286 285 286 286 286 286 286 287 286 287 287 287 287 289 291 292 292 293 294 294 294 293 293 293 293 293 292 292 292 293 293 293 294 294 293 293 293 289 287

GFSNGP_850_thetae_081.txt.gz
Theta_e
308 309 308 309 309 312 312 311 309 310 307 307 306 306 308 313 314 314 314 314 314 314 313 313 311 310 309 308 308 307 307 307 307 307 308 308 308 308 308 308 308 308 308 308
305 309 309 310 309 310 311 311 308 308 308 306 308 308 308 311 314 314 314 314 314 313 313 312 311 310 309 308 307 307 307 306 306 306 306 306 306 306 306 307 307 307 307 306
303 308 308 307 307 308 309 307 309 310 309 307 307 307 308 310 312 314 314 313 313 313 313 312 310 309 308 307 306 306 306 305 305 305 306 306 305 306 306 306 305 304 304 303
306 307 307 304 307 307 309 308 306 307 307 307 307 308 309 311 311 312 312 312 312 312 312 311 309 308 307 306 306 305 305 305 304 305 305 305 305 304 304 303 303 302 302 302
307 306 305 308 308 308 308 308 307 307 307 309 308 308 309 308 309 310 310 311 312 313 312 311 309 307 306 305 305 305 304 304 304 304 304 304 304 302 301 301 301 301 301 300
303 306 309 308 309 307 308 309 309 306 306 308 309 308 307 311 312 313 313 313 313 313 311 309 307 306 305 304 304 304 303 303 303 304 303 303 302 301 301 300 300 299 296 292
307 304 306 304 309 309 313 308 309 308 308 308 309 308 310 312 312 312 311 311 311 310 309 308 306 305 304 304 304 303 303 303 303 303 302 301 301 300 299 299 296 291 290 290
307 310 305 308 309 310 309 312 311 309 308 309 311 312 312 312 312 311 311 310 309 308 307 305 304 303 303 303 303 302 302 302 302 302 301 300 299 298 298 294 290 290 289 289
304 304 304 308 309 310 312 312 312 312 312 311 311 311 311 311 311 310 309 308 307 306 305 304 303 302 302 302 302 301 301 301 301 300 299 299 298 298 292 290 290 289 289 288
307 306 305 308 309 311 312 312 312 311 312 311 311 310 310 310 310 309 308 308 306 305 305 303 302 302 302 301 301 300 301 301 300 299 299 298 297 293 290 290 289 289 288 288
305 305 307 308 309 310 310 310 311 311 311 311 312 312 313 312 310 309 308 307 306 306 305 303 301 301 301 300 300 300 300 300 299 299 298 298 294 291 290 289 289 288 288 288
307 307 307 307 308 310 310 310 311 310 309 309 309 309 309 309 309 309 308 307 307 307 305 302 301 300 300 299 299 299 300 300 299 299 298 295 291 290 289 289 289 289 288 287
307 308 309 310 309 310 310 309 309 308 308 308 308 308 308 309 308 308 308 307 307 307 305 302 301 300 300 300 299 299 299 299 299 299 298 292 291 290 289 289 289 289 288 287
307 308 309 310 310 309 309 308 307 307 307 307 307 307 307 307 308 308 308 307 307 306 305 304 302 301 300 300 299 299 299 297 299 299 297 291 291 290 290 289 289 288 288 288
307 308 308 308 309 308 307 307 307 307 306 306 305 305 306 306 307 307 307 306 306 306 306 304 303 302 301 300 300 299 299 298 298 298 295 291 291 290 290 289 289 289 289 288
306 307 307 307 307 306 306 306 305 304 304 304 304 304 304 304 305 305 306 306 306 307 307 306 305 303 302 301 300 299 299 298 298 298 295 291 291 290 290 290 289 289 289 288
305 305 305 305 305 304 304 303 303 303 303 302 302 302 302 303 303 304 304 304 305 305 305 305 305 304 303 302 301 301 299 298 298 297 296 292 290 290 291 291 290 289 289 288
304 304 304 303 303 302 302 301 301 300 300 300 300 300 299 299 301 302 303 303 304 304 305 305 304 304 303 302 302 301 300 299 298 298 297 294 291 290 290 290 291 290 289 288
302 302 302 301 300 300 300 300 300 300 300 300 300 300 300 299 299 301 301 302 303 304 305 304 304 304 304 303 302 301 301 300 300 299 298 297 292 290 290 290 290 290 290 289
299 300 300 300 299 299 299 298 298 298 298 298 298 298 299 299 300 300 300 301 301 302 302 303 302 303 304 303 302 301 301 300 300 300 299 299 298 294 291 290 290 290 290 289
297 297 296 294 293 293 294 294 294 295 296 297 296 296 297 297 298 298 299 299 300 301 302 301 301 302 302 302 301 301 301 301 300 300 299 299 299 298 295 291 290 290 289 289
297 297 298 296 291 289 289 289 288 289 291 293 295 295 296 296 297 297 297 297 298 299 299 299 299 300 301 300 301 300 300 300 300 299 299 299 299 299 298 293 293 293 290 289
298 295 292 290 289 288 288 288 288 288 288 288 290 291 293 294 295 296 296 296 296 296 297 297 297 298 298 299 300 300 300 299 299 298 298 298 298 298 298 298 298 297 294 290
293 292 290 289 288 288 287 287 287 287 287 287 287 287 288 290 291 293 294 294 294 295 295 295 296 296 296 297 297 298 298 298 297 297 297 296 296 296 297 297 297 296 296 295
292 291 291 289 288 287 287 286 286 287 287 287 287 286 287 287 288 289 291 292 293 294 295 295 295 295 295 295 295 295 295 295 295 295 295 295 294 294 295 295 296 295 295 295
295 293 292 289 288 287 286 286 286 286 286 287 286 286 286 286 286 287 287 288 289 291 292 293 294 294 294 294 294 293 293 293 293 293 293 293 293 293 293 293 294 295 295 294
296 296 294 290 288 286 286 285 285 285 286 286 286 286 286 286 286 286 286 286 286 287 289 290 291 292 293 293 293 292 292 292 292 292 291 292 292 292 292 293 294 294 294 293

GFSNGP_850_thetae_084.txt.gz
Theta_e
307 308 310 310 310 310 308 309 308 309 307 308 306 305 306 311 312 313 313 314 314 314 313 313 313 312 311 310 309 309 308 308 308 307 307 307 308 308 308 308 308 308 308 308
305 308 309 310 308 309 310 310 308 308 307 305 307 306 307 310 313 313 314 314 314 313 313 313 313 312 310 310 309 308 308 307 307 307 307 306 306 306 306 307 307 307 307 307
304 308 308 307 307 308 310 309 310 310 310 308 307 306 307 309 313 314 315 315 314 314 313 313 312 311 310 309 308 307 307 307 306 306 306 306 305 305 306 306 306 306 305 305
307 306 308 305 306 306 308 308 307 307 307 306 306 308 309 310 312 313 314 314 314 313 313 312 311 310 309 308 307 307 306 306 305 305 305 305 303 302 303 304 304 303 302 302
307 306 305 307 307 307 307 308 306 306 307 307 309 308 307 308 310 311 312 313 313 312 312 312 311 310 308 307 306 306 305 305 304 304 304 303 302 302 302 301 300 300 300 300
304 306 308 306 309 307 306 309 308 306 306 306 308 307 306 309 309 309 309 310 309 311 312 312 311 309 307 306 305 305 304 304 303 303 304 303 302 301 300 299 299 299 299 298
309 306 305 303 305 308 311 307 309 307 306 307 307 307 308 310 310 311 311 312 312 313 312 311 309 308 306 305 304 303 303 303 302 302 303 302 301 300 299 298 298 297 293 290
308 310 305 304 308 310 307 311 311 309 307 307 310 310 311 311 312 312 312 311 311 310 309 309 307 306 305 304 303 303 302 302 301 301 301 301 300 299 298 298 296 290 289 289
304 305 303 305 309 309 310 312 312 312 310 309 310 310 311 311 311 310 310 310 309 308 307 307 305 304 303 303 302 302 302 301 301 300 300 299 299 298 297 295 290 290 289 289
306 305 304 306 308 309 311 312 312 311 311 311 311 311 310 310 309 309 309 308 308 307 307 306 305 303 302 301 301 301 301 301 300 300 299 298 298 297 296 291 290 289 289 288
305 305 306 307 308 310 310 310 311 310 310 312 312 313 312 313 313 311 309 308 307 306 306 306 304 303 302 302 301 301 300 300 300 299 298 298 298 297 292 290 289 288 288 288
306 306 306 307 308 309 310 310 310 310 309 309 309 309 309 309 309 309 309 308 307 306 307 306 304 302 301 301 300 300 299 299 300 299 299 298 298 295 290 289 289 288 288 288
306 306 308 309 308 309 310 309 308 308 308 307 307 307 307 308 308 308 308 308 307 307 306 305 304 302 302 301 300 299 299 299 299 299 299 298 297 293 290 289 289 289 288 288
307 306 308 309 309 309 308 308 307 307 307 307 306 306 306 306 307 307 307 307 306 306 306 305 304 303 302 300 299 298 298 298 298 299 299 298 296 291 290 290 289 289 289 288
307 307 307 307 308 308 307 307 306 306 306 305 305 305 305 305 305 305 306 306 306 306 305 306 305 304 303 301 300 299 299 297 298 298 298 298 295 291 290 290 290 289 288 288
306 306 307 307 307 306 306 306 306 305 304 304 304 303 303 303 304 304 304 304 305 305 305 306 306 304 303 301 301 300 300 299 298 297 297 297 294 290 290 290 290 289 289 289
304 304 305 305 305 304 304 303 303 303 303 302 302 301 301 301 301 301 302 303 304 304 305 305 305 304 304 303 301 301 301 300 299 297 298 297 296 292 291 290 290 290 290 289
304 304 304 304 303 303 302 302 301 301 300 300 300 300 300 300 300 299 300 301 302 303 303 304 304 304 304 304 303 301 301 300 299 298 298 298 298 295 291 290 290 290 290 290
301 302 302 301 301 301 300 300 299 299 299 299 299 299 298 298 299 299 299 299 300 301 302 302 303 303 304 304 303 302 301 300 300 299 299 298 298 297 295 292 290 290 290 290
299 299 299 299 299 299 299 298 298 297 297 297 297 297 297 297 297 298 299 299 299 300 300 301 301 302 302 303 302 302 302 301 300 300 300 300 299 299 298 297 293 291 290 290
297 295 294 292 291 291 291 291 290 289 290 291 292 294 296 296 296 297 297 298 298 298 299 300 300 301 301 301 301 301 301 301 301 300 299 300 300 299 299 299 298 295 291 290
297 296 297 297 293 289 288 288 288 288 288 288 288 289 290 292 294 295 295 295 296 296 297 297 298 298 299 299 299 300 299 300 300 300 299 299 299 300 300 299 299 299 298 293
297 297 293 290 289 288 288 287 287 287 287 287 287 287 287 287 289 290 293 293 294 295 295 296 296 296 296 297 297 297 298 298 299 299 299 298 299 299 298 298 298 298 298 297
292 292 291 290 289 288 287 287 286 286 287 287 287 287 287 287 287 288 288 290 291 292 293 294 295 295 295 295 295 295 296 296 296 297 297 296 296 296 296 296 296 297 297 297
294 292 292 292 291 289 288 287 286 286 286 286 286 286 286 286 286 286 286 286 287 287 289 290 292 293 294 294 293 293 293 294 294 294 294 294 294 294 294 294 294 294 294 294
295 296 296 296 293 290 289 287 286 286 286 286 285 285 286 286 286 286 286 286 286 286 286 287 288 290 291 293 293 292 292 292 292 292 292 292 292 292 292 292 292 292 292 293
294 296 296 295 293 290 289 286 286 285 285 285 285 285 285 285 285 286 286 286 286 286 286 286 286 286 287 289 291 292 291 291 291 291 291 291 291 291 291 291 291 291 291 292

GFSNGP_850_thetae_087.txt.gz
Theta_e
308 308 310 310 310 309 305 307 309 308 308 309 307 306 305 307 310 311 312 313 313 313 314 313 313 312 311 310 310 310 310 310 308 308 308 308 308 308 308 307 308 308 308 308
306 308 309 310 309 308 309 309 308 307 308 305 307 307 307 308 311 311 312 313 314 314 313 313 312 312 311 310 310 309 309 309 308 308 307 307 307 307 307 307 307 307 307 307
306 307 307 306 306 308 309 307 309 311 310 306 307 306 308 308 311 312 313 314 314 314 314 313 313 312 312 310 309 309 308 307 307 307 306 306 306 306 306 306 305 305 306 306
308 306 307 304 305 306 308 308 308 308 307 307 308 309 308 309 309 312 314 314 315 315 314 313 313 312 310 309 309 308 307 307 306 306 305 305 305 304 303 303 304 304 304 303
308 307 305 307 307 307 308 308 306 308 308 306 307 308 308 310 309 311 314 314 314 314 314 313 312 312 310 309 308 307 306 306 305 304 304 304 304 302 302 302 302 302 301 301
305 307 308 306 308 306 306 310 307 306 305 304 307 308 307 308 308 309 310 311 311 312 312 312 312 311 310 309 308 307 306 305 304 304 304 304 303 301 300 298 298 299 300 299
307 307 305 303 303 306 310 308 308 308 306 305 306 306 308 309 308 308 309 310 311 309 310 311 311 311 310 308 307 306 304 304 303 303 303 302 301 300 298 297 296 297 298 297
308 308 305 303 307 310 307 311 311 310 307 306 308 309 310 310 309 310 310 311 311 311 311 311 310 309 308 307 305 304 303 303 302 302 301 301 300 299 297 296 296 297 294 290
304 305 303 304 308 309 309 311 311 312 310 308 309 309 310 310 310 310 310 310 310 310 309 309 308 307 306 305 304 303 303 302 302 301 301 300 299 298 296 296 297 294 289 289
305 305 303 306 306 307 310 311 311 311 311 311 311 311 312 311 311 310 309 308 308 308 308 307 306 306 304 303 302 302 302 302 301 301 300 300 298 297 297 297 295 289 289 288
304 304 306 307 307 308 310 310 310 310 310 310 311 311 311 311 312 312 312 309 308 307 307 306 305 304 303 302 302 302 301 301 300 300 299 299 298 298 297 296 291 290 289 288
306 305 305 306 308 308 309 309 310 310 309 308 308 308 308 308 308 308 308 308 308 307 307 306 307 305 303 302 301 301 300 300 300 300 299 298 297 297 296 292 289 289 288 288
305 306 306 307 308 308 309 309 308 308 307 307 307 307 307 307 307 307 307 307 307 306 306 305 305 305 305 302 301 300 300 299 299 299 299 298 298 297 296 291 289 289 289 288
305 306 307 308 308 308 308 308 307 307 306 306 306 305 305 305 305 305 306 306 306 306 306 305 305 305 304 303 302 300 299 298 298 298 299 299 298 298 296 291 290 290 289 289
306 306 306 306 307 307 307 306 306 306 305 305 304 304 304 304 304 304 304 304 305 306 306 305 305 305 304 302 302 301 300 298 298 298 299 298 298 298 296 291 290 289 289 289
304 304 305 306 306 306 305 305 305 304 303 303 303 303 303 302 302 302 301 302 303 304 305 305 305 305 304 303 302 301 300 300 298 298 298 298 298 298 296 291 290 290 289 289
303 304 304 304 304 304 304 303 303 303 302 302 301 301 300 300 300 300 300 300 300 301 302 303 304 304 304 303 302 302 301 300 300 299 298 297 298 298 297 292 291 290 291 290
302 303 303 303 303 303 302 302 301 300 300 300 299 299 299 299 299 299 299 299 298 299 300 301 302 303 303 303 303 302 302 300 300 300 299 298 298 298 298 296 292 291 291 290
300 300 301 301 300 300 300 299 299 299 298 298 298 298 298 297 297 297 298 298 299 299 300 300 301 302 303 302 302 302 302 301 300 300 300 299 298 298 298 298 297 293 291 290
298 298 298 298 298 298 297 296 294 292 291 290 291 292 293 295 296 296 297 297 297 297 297 298 299 300 301 301 301 301 301 301 301 300 300 299 299 299 299 298 298 297 296 293
296 297 295 292 290 290 290 289 289 289 289 288 288 289 289 290 291 293 295 296 295 296 296 297 297 299 299 300 300 300 300 300 300 300 300 300 300 299 299 299 299 299 299 298
295 295 296 296 294 291 289 288 288 288 288 288 288 288 287 287 288 288 290 292 292 294 295 296 296 296 296 297 297 298 298 298 298 298 298 298 298 299 299 299 299 299 299 299
295 295 293 290 289 288 288 288 287 287 287 287 287 287 287 287 287 287 288 287 288 288 290 292 294 295 295 295 295 295 296 296 296 296 296 296 297 297 297 297 298 298 298 298
296 295 292 292 292 291 289 288 287 287 286 286 286 286 287 287 286 286 286 286 286 287 287 287 288 290 291 293 294 294 294 294 294 294 294 294 294 295 295 295 296 296 296 296
296 296 294 294 294 293 291 289 288 287 286 286 286 285 285 285 286 286 286 286 286 286 286 286 287 287 287 289 291 292 293 293 293 292 293 293 293 293 293 293 293 294 294 294
295 294 294 295 295 294 292 290 289 287 286 285 285 285 285 285 285 285 285 286 286 286 286 286 286 286 286 286 287 288 290 291 292 292 291 291 291 291 291 292 292 292 292 292
294 294 294 295 295 293 291 291 288 286 285 286 286 285 285 285 285 285 285 285 285 286 286 286 286 286 286 286 286 286 286 287 289 291 291 291 291 291 291 290 290 290 290 290

GFSNGP_850_thetae_090.txt.gz
Theta_e
311 311 312 313 314 312 313 314 317 314 313 313 313 312 311 310 311 312 312 312 312 312 312 313 313 313 313 312 311 311 310 310 310 309 309 309 308 308 308 308 308 308 308 308
310 311 311 313 312 313 313 313 312 311 312 310 310 311 310 311 311 312 312 312 312 312 313 313 314 313 313 312 311 310 310 309 309 309 309 308 307 307 307 307 307 307 307 307
313 309 310 311 310 312 312 311 312 314 313 311 310 310 310 311 310 312 312 313 312 313 314 314 314 313 312 312 311 310 309 309 308 308 307 307 307 306 306 306 305 306 306 306
311 309 310 307 307 308 310 310 311 311 311 311 311 311 310 309 309 311 313 313 313 314 314 314 313 313 312 311 310 310 309 308 308 307 307 306 306 305 305 304 303 303 305 305
311 310 309 311 310 310 310 311 309 310 310 310 310 309 310 309 309 309 312 313 313 314 315 314 314 313 312 311 310 309 308 308 307 306 306 305 305 305 303 302 302 302 303 303
310 311 309 311 309 307 308 315 310 309 310 309 308 311 311 308 308 308 309 312 314 314 314 314 313 313 312 311 310 310 308 307 306 305 305 304 304 303 301 301 300 299 299 299
310 310 308 307 307 307 313 314 310 310 308 307 309 309 308 308 308 307 308 309 310 311 311 312 312 312 311 311 310 309 307 306 305 304 304 303 302 302 300 300 299 297 296 297
310 309 309 305 309 311 311 310 312 310 307 307 308 308 309 308 308 308 309 310 311 311 310 310 310 310 310 310 309 307 305 304 304 303 302 302 302 301 299 298 297 296 295 296
309 308 306 305 309 309 308 310 311 311 308 308 308 309 310 309 309 310 310 310 311 311 310 310 310 310 309 308 307 305 304 303 303 302 302 301 301 300 299 297 296 296 296 293
308 307 307 307 306 306 308 311 310 311 310 310 309 310 310 311 311 310 310 309 309 309 309 309 308 308 307 306 305 304 303 302 302 302 301 301 300 299 298 297 296 295 295 290
308 308 308 307 307 307 309 310 309 310 310 311 311 310 310 309 310 310 311 310 310 308 308 307 307 307 306 305 304 303 302 302 301 301 301 300 300 299 298 297 297 297 293 289
309 306 307 307 307 307 309 309 309 310 309 308 308 308 307 308 308 308 308 308 308 308 309 306 305 305 306 304 303 302 302 301 301 301 300 300 299 298 297 296 296 295 289 289
306 305 305 306 307 307 308 309 308 308 307 307 306 306 306 306 306 306 306 307 307 307 306 306 305 305 305 304 303 302 301 301 300 299 299 299 299 298 297 297 296 290 289 289
304 305 306 307 307 308 308 307 307 306 306 306 305 305 305 305 304 304 304 304 305 306 306 306 305 305 304 304 303 302 301 300 299 299 299 298 298 298 297 297 296 292 290 289
304 304 305 305 307 306 306 306 306 305 305 304 304 304 304 303 303 302 302 302 303 303 304 305 305 305 304 305 303 302 301 301 300 298 297 297 297 297 297 297 296 292 290 289
303 303 304 305 305 305 305 305 305 304 304 303 303 303 303 302 302 301 300 300 301 301 301 303 303 304 303 304 304 303 302 300 300 299 297 297 297 297 297 297 297 294 290 289
301 303 303 303 304 304 304 304 303 303 302 302 301 301 300 300 300 300 299 299 299 299 299 300 301 302 303 303 303 303 302 301 300 300 299 298 297 297 297 298 298 296 292 290
300 301 302 302 302 302 302 301 301 301 300 299 299 299 299 298 298 298 298 298 299 298 298 298 300 300 302 302 302 302 302 301 300 300 300 299 298 298 297 298 298 298 294 291
298 299 300 301 301 300 300 299 298 299 298 295 293 293 293 295 296 297 297 297 297 298 298 298 299 300 300 301 301 302 302 301 301 300 300 300 298 298 298 297 297 298 297 295
297 297 297 297 298 297 296 294 291 290 290 289 289 289 289 290 290 291 293 296 295 296 296 297 298 299 299 299 299 300 300 300 300 300 299 299 299 299 298 298 298 298 298 298
295 295 296 291 290 290 289 289 288 288 288 288 288 288 288 288 288 288 289 291 292 293 294 295 296 296 297 298 298 298 299 299 299 299 299 298 298 298 298 298 298 298 298 298
295 294 294 295 295 292 292 289 288 288 288 288 287 287 287 287 287 287 288 288 287 288 288 289 291 293 295 296 296 296 297 296 296 296 297 297 297 297 297 297 297 298 297 297
295 295 294 290 289 289 291 291 289 289 288 288 287 287 287 287 287 287 287 286 287 287 287 287 287 287 288 290 293 294 295 295 295 295 294 294 295 295 295 295 296 296 296 296
296 296 296 294 291 291 291 290 289 289 288 287 287 286 286 286 286 286 286 286 286 286 286 286 287 287 287 287 287 289 291 293 293 293 293 293 293 293 293 293 294 294 294 294
296 296 296 295 293 293 293 291 290 290 289 286 286 285 285 285 285 285 285 285 285 286 286 286 286 286 286 286 286 287 287 288 290 291 292 292 292 292 292 292 292 292 292 292
294 295 295 293 294 295 294 291 291 290 287 285 285 285 285 285 285 285 285 285 285 285 285 286 286 286 286 286 286 286 286 286 286 287 289 290 291 291 291 291 291 291 291 291
289 292 293 293 293 294 294 292 291 289 286 286 286 286 286 286 285 285 285 285 285 285 285 285 286 286 286 286 286 286 286 286 286 286 286 286 288 290 290 290 289 290 290 290

GFSNGP_850_thetae_093.txt.gz
Theta_e
312 313 313 314 316 315 314 316 319 315 315 314 314 314 312 312 313 314 315 314 314 314 313 313 312 312 312 313 313 312 312 311 311 311 310 310 310 310 309 308 308 308 308 308
313 313 313 314 314 315 314 314 314 314 314 313 313 312 312 312 312 313 314 314 314 314 313 312 312 312 312 313 312 312 311 311 311 310 310 310 310 309 309 308 307 307 307 307
315 311 312 314 314 314 314 313 314 315 314 313 313 312 312 312 312 312 313 314 314 314 313 313 312 311 312 312 312 311 310 310 310 310 309 309 309 308 308 307 307 306 306 306
312 310 312 310 309 310 312 312 312 312 312 312 311 312 312 311 311 311 313 314 314 314 313 313 312 312 312 312 312 311 310 310 310 309 309 308 308 307 307 306 306 305 305 305
313 311 310 312 311 311 312 313 312 312 312 311 311 311 310 311 310 310 311 314 314 314 314 313 313 313 313 313 312 312 311 310 309 308 308 307 307 306 305 305 305 302 302 302
312 312 310 312 310 309 310 315 313 312 312 311 310 313 312 309 308 308 308 313 314 315 314 314 313 313 313 312 312 312 311 310 309 308 307 306 306 305 304 304 303 302 301 300
312 312 310 309 309 309 314 316 313 312 310 309 311 310 309 308 307 307 308 310 313 313 313 313 312 313 312 312 312 311 310 309 308 307 306 305 304 304 303 303 302 301 300 299
311 311 310 308 310 312 312 312 313 313 309 309 310 309 308 308 308 308 308 309 309 310 310 310 311 312 311 311 311 310 309 308 307 305 304 304 303 302 302 301 301 299 298 297
310 310 308 307 308 309 309 310 313 313 309 309 309 309 309 308 308 309 309 310 310 310 310 310 310 309 309 310 310 309 308 307 305 304 304 303 302 302 302 301 299 298 297 296
309 309 309 309 308 308 307 311 310 311 311 311 310 310 309 309 309 310 309 309 309 309 309 309 309 309 308 309 308 307 306 305 304 303 303 302 302 302 301 301 299 298 296 296
309 309 309 309 309 308 310 310 309 309 310 311 311 310 309 309 309 308 309 309 310 309 308 308 308 307 307 307 306 305 304 303 303 302 302 302 301 301 301 300 299 297 296 296
310 307 307 308 307 308 309 310 309 309 308 308 308 307 307 307 307 307 307 307 307 307 307 308 309 309 307 306 306 304 304 303 302 302 301 301 301 300 300 299 297 296 295 295
306 305 305 306 306 307 308 308 308 308 307 306 306 306 306 306 305 305 305 305 306 306 307 307 306 306 305 305 305 304 304 302 302 301 300 300 300 300 299 298 296 295 295 295
304 304 307 307 307 307 307 307 307 307 307 306 306 305 304 304 304 303 303 303 303 303 304 305 306 305 304 304 304 304 303 302 301 301 300 299 299 298 298 297 296 296 297 295
302 303 303 304 305 306 306 305 305 305 305 305 304 304 303 303 303 303 302 302 302 301 301 302 303 304 304 304 304 304 303 302 301 301 300 299 297 296 297 296 296 296 296 295
300 302 303 304 304 304 304 304 304 304 304 304 303 303 303 302 302 301 301 300 300 300 300 300 300 301 302 303 303 304 304 302 302 300 300 299 298 297 297 296 296 296 297 298
298 302 302 303 303 302 302 303 302 302 302 302 301 301 300 300 299 299 299 299 299 299 299 299 299 299 300 301 302 303 303 302 301 301 301 300 299 298 297 297 297 297 298 298
298 298 298 301 301 301 302 301 301 301 300 299 299 299 298 298 297 297 298 298 298 298 298 297 298 298 299 300 300 301 302 302 301 300 301 300 299 298 298 297 297 297 298 298
297 297 298 299 300 299 299 299 299 298 298 295 292 291 291 291 291 291 293 295 297 297 297 297 297 297 298 298 299 300 300 300 300 300 300 299 299 299 298 298 297 297 297 297
295 296 296 297 297 297 297 297 293 292 290 289 289 289 289 288 288 288 289 290 291 294 294 295 296 297 297 297 298 299 299 299 300 300 300 299 299 299 299 298 298 297 297 297
295 295 295 295 295 291 289 288 288 289 289 288 288 288 288 288 288 288 288 288 289 287 288 288 290 292 294 296 296 297 297 297 298 298 298 298 297 297 298 298 298 297 297 297
295 294 294 294 294 294 294 292 288 287 288 288 288 287 287 287 287 287 287 287 287 287 287 287 287 287 288 288 289 292 294 295 296 296 296 295 295 295 295 296 296 296 296 296
296 295 294 294 294 293 291 292 294 291 289 288 288 287 287 286 286 286 286 286 286 286 286 286 286 287 287 287 287 287 288 289 292 293 294 294 294 293 293 293 293 294 294 294
296 296 295 295 295 294 292 289 289 289 289 289 288 287 286 286 285 285 285 285 286 286 286 286 286 286 286 286 286 286 286 287 287 287 289 291 292 292 292 292 292 292 292 293
295 296 295 295 295 296 294 293 292 291 290 290 287 286 285 286 285 285 285 285 285 285 285 286 286 286 286 286 286 286 286 286 286 286 286 286 287 289 291 291 291 291 291 291
291 293 294 295 295 293 294 295 294 291 291 289 286 286 287 286 286 287 287 287 286 286 286 286 286 286 286 286 286 286 286 286 286 285 285 286 286 286 286 288 289 290 290 289
289 289 289 290 293 293 293 294 294 293 290 289 286 286 287 287 287 286 287 287 287 287 287 286 286 285 286 285 285 285 285 285 285 284 285 285 285 285 285 285 286 287 288 289

GFSNGP_850_thetae_096.txt.gz
Theta_e
313 313 313 313 314 314 312 314 315 315 314 312 311 311 311 312 313 314 315 314 314 313 313 313 313 313 312 312 312 312 312 312 312 312 312 311 311 310 310 310 310 309 309 308
311 313 313 314 315 314 314 314 313 313 313 312 311 311 312 312 312 313 314 314 314 314 313 313 313 312 312 312 312 312 312 312 311 311 310 310 310 310 310 310 309 309 308 307
315 311 312 313 313 314 314 313 314 314 313 311 311 311 312 312 312 312 313 314 314 314 313 312 312 312 312 312 312 312 311 311 311 310 310 310 310 309 309 309 308 307 307 307
310 310 312 309 308 309 313 312 311 311 310 310 311 311 311 311 311 311 313 314 314 314 313 313 312 312 312 312 312 312 311 311 310 310 310 309 309 309 308 308 307 307 306 306
311 310 309 310 310 310 311 312 311 311 311 311 311 311 310 311 310 310 310 313 314 314 314 313 313 312 312 312 312 312 312 311 310 310 310 309 309 308 308 307 306 306 305 304
309 311 311 311 309 309 310 313 312 312 311 309 310 309 308 308 309 309 308 313 314 314 314 314 313 313 312 312 312 312 311 311 310 310 309 309 308 307 306 306 305 305 304 302
310 310 309 308 309 309 313 314 313 312 309 309 308 308 308 308 307 307 308 312 314 314 314 314 313 313 312 312 312 311 311 310 309 309 308 308 307 306 305 304 304 303 302 301
310 310 309 309 309 312 311 313 313 313 309 309 310 309 309 308 308 307 308 308 311 313 313 313 313 312 312 312 311 311 310 309 308 308 307 307 306 305 304 303 303 302 301 300
308 309 307 307 307 307 308 308 312 312 310 309 310 309 308 308 308 307 308 308 309 309 309 309 309 309 309 310 309 309 309 308 307 306 306 305 304 303 303 302 302 301 300 299
308 308 308 309 308 308 308 311 311 311 311 311 310 310 309 309 309 310 309 309 308 308 308 309 309 309 309 309 309 309 308 307 306 305 305 304 303 303 302 301 301 301 300 299
308 307 309 308 307 308 309 310 310 310 311 311 311 309 310 308 308 308 308 308 308 308 308 308 307 307 307 307 308 307 306 305 305 304 303 303 302 302 301 301 300 299 298 297
310 305 305 306 306 307 309 310 309 309 309 308 308 308 307 307 306 306 306 306 306 307 307 307 307 307 307 307 306 305 304 304 304 304 303 302 302 301 301 300 300 299 297 296
304 304 304 306 306 307 308 308 308 308 307 307 306 306 306 305 305 305 304 304 304 304 304 305 306 306 306 305 304 304 304 304 304 303 303 302 301 300 300 299 299 298 297 296
304 303 306 306 305 305 306 307 306 306 307 307 308 306 304 304 304 303 303 303 302 302 302 302 303 303 304 304 304 304 303 303 304 303 302 302 301 300 298 297 297 297 297 295
302 302 302 303 304 304 305 305 304 304 304 304 304 304 304 304 303 303 303 303 302 301 301 301 300 301 301 302 303 303 304 303 303 302 301 301 301 299 298 296 296 297 297 296
300 301 303 303 304 304 304 304 303 303 303 303 303 303 302 302 301 300 300 300 299 299 299 299 299 299 299 299 301 302 302 303 302 302 301 301 300 299 298 297 296 296 296 297
298 299 298 300 302 302 302 302 302 303 303 302 302 301 300 299 299 298 298 298 298 298 298 298 298 298 298 298 299 299 301 301 301 301 301 301 300 299 299 298 297 297 297 297
297 297 298 298 299 301 301 300 301 301 300 299 299 298 296 294 293 292 292 293 296 297 297 297 297 297 297 297 298 297 299 300 300 300 300 300 300 299 299 298 298 298 297 297
296 296 297 298 298 299 299 299 298 297 296 294 292 290 290 289 289 289 289 289 290 292 294 295 295 296 296 297 297 298 298 298 299 299 299 299 299 299 299 298 298 298 298 297
295 295 296 296 296 296 296 296 296 294 293 289 288 288 288 288 288 288 288 288 289 289 287 288 288 290 292 294 296 296 297 297 297 298 298 298 298 298 298 298 298 298 297 297
295 295 295 295 294 294 294 293 289 289 293 292 289 288 288 288 288 287 287 287 287 286 286 286 287 287 287 287 288 288 291 294 295 295 295 295 295 295 295 296 296 296 296 296
296 295 295 295 294 293 292 293 293 290 290 293 292 290 289 288 287 287 286 286 286 286 286 286 286 286 286 286 287 287 287 287 288 289 292 293 293 292 292 292 292 293 293 294
296 296 295 295 295 295 295 295 294 294 290 288 288 288 288 287 286 286 286 286 285 286 286 286 286 286 286 286 286 286 286 286 286 286 287 287 288 289 289 289 290 290 291 291
296 296 296 295 295 296 296 296 295 292 291 290 290 289 287 286 286 286 286 285 286 286 286 286 286 286 286 286 286 286 286 286 286 286 286 286 286 286 286 286 287 288 289 289
292 294 295 294 295 295 296 295 295 294 292 291 291 287 286 286 286 286 287 287 287 288 288 288 287 287 286 286 286 286 286 286 286 285 285 285 285 285 285 286 286 286 286 287
290 290 291 291 293 294 294 293 293 294 293 291 291 289 287 287 287 287 287 287 287 287 288 288 288 287 286 286 286 285 285 285 285 284 284 284 283 284 284 285 285 285 285 285
289 289 289 289 289 289 291 292 293 294 293 293 291 289 287 286 286 285 285 285 285 286 287 287 287 287 286 285 285 285 285 284 284 284 283 283 283 283 283 283 283 284 284 284

GFSNGP_850_thetae_099.txt.gz
Theta_e
311 312 312 311 311 313 312 313 315 315 312 312 310 309 310 311 314 314 314 314 314 314 314 314 314 314 314 314 313 313 313 312 312 312 312 312 312 312 311 310 310 310 310 310
307 312 312 313 313 313 313 313 313 312 313 309 310 311 311 311 312 314 314 314 313 313 313 313 313 313 312 312 311 311 311 311 311 311 312 312 311 310 310 310 310 310 309 309
310 310 311 312 312 313 313 312 313 313 311 309 310 310 310 311 311 312 314 314 314 313 313 313 313 313 312 312 311 311 311 311 311 311 311 310 310 310 310 309 309 309 309 309
307 308 311 308 307 309 312 311 310 310 309 310 310 311 310 310 311 310 312 314 314 314 313 313 312 312 312 311 311 312 311 311 310 310 310 310 310 309 309 309 309 308 308 308
309 307 308 310 309 309 310 312 310 310 310 309 310 310 309 309 310 310 310 311 314 314 313 313 312 312 312 312 311 311 311 310 310 310 310 310 309 309 309 308 308 307 307 306
306 308 310 310 308 309 308 311 311 311 308 308 309 309 307 308 308 309 309 310 313 314 314 313 313 312 312 311 311 311 311 311 310 310 309 309 309 308 307 307 306 306 305 305
308 308 307 308 308 309 309 311 312 310 308 309 307 307 308 307 307 307 308 311 314 314 314 313 313 313 312 311 311 311 311 310 310 309 309 308 308 307 306 305 305 304 304 303
305 308 307 309 309 311 309 311 312 311 308 309 309 309 308 308 308 308 308 308 313 314 314 314 313 312 312 311 310 310 310 309 309 308 308 308 307 306 305 304 304 303 303 302
306 307 305 307 306 307 307 308 312 311 309 309 309 308 308 308 308 308 308 308 309 310 312 313 312 312 311 310 310 310 309 309 308 308 308 307 306 305 304 303 303 302 302 301
306 307 306 308 308 308 309 310 311 311 311 310 309 309 309 309 309 309 309 308 308 308 308 309 309 309 308 308 308 308 308 308 308 307 306 305 304 303 303 302 302 301 301 300
307 305 306 306 306 306 308 310 309 310 311 311 310 309 308 307 307 307 307 307 307 307 307 307 307 307 307 307 307 307 307 306 305 305 305 304 303 303 302 302 301 301 301 300
306 304 305 305 305 306 308 309 309 309 308 309 308 307 307 306 306 306 305 305 305 306 306 306 306 306 306 306 305 305 305 305 305 304 304 303 303 302 302 301 300 300 299 299
303 304 303 304 306 306 307 308 308 308 307 306 306 306 305 304 304 304 303 303 303 303 303 303 303 304 304 304 304 303 303 303 303 304 303 302 302 302 302 301 299 298 298 297
303 303 304 304 303 304 305 306 306 306 307 307 308 308 307 305 303 303 303 303 303 302 302 302 301 301 302 302 303 303 302 302 302 302 302 302 302 301 300 300 299 298 297 296
302 301 301 302 303 304 304 305 304 304 304 304 304 303 303 303 302 302 302 301 300 300 300 300 300 300 300 300 300 301 302 302 301 301 301 301 301 300 300 300 299 298 297 296
299 300 301 302 303 303 303 303 303 303 303 302 303 304 302 301 300 300 299 299 299 299 299 298 298 298 298 298 298 299 299 300 300 301 301 301 301 300 299 299 299 298 297 297
297 297 298 298 300 301 302 302 302 301 301 301 302 300 299 299 299 298 296 294 295 297 297 298 298 297 298 297 297 297 297 298 299 300 300 300 300 300 299 299 299 299 299 298
296 295 296 297 298 299 300 300 300 300 300 299 298 296 295 293 291 290 290 289 290 292 294 295 296 296 296 296 297 297 297 298 298 299 299 299 299 299 298 298 298 298 299 298
295 295 295 296 297 297 299 299 298 298 297 297 292 290 289 289 288 288 288 288 289 289 289 288 288 288 290 293 294 295 296 297 297 298 298 297 297 297 297 297 297 297 298 297
295 294 295 294 296 295 296 296 296 295 294 290 288 288 288 288 288 288 288 288 288 287 287 287 287 287 287 287 287 288 288 291 294 296 296 296 296 296 296 296 295 295 295 296
294 294 294 294 294 294 294 294 293 289 291 292 291 289 290 290 289 288 287 287 287 286 286 286 286 286 286 286 286 286 287 287 287 287 288 291 292 293 293 293 293 293 293 293
295 294 294 294 294 293 293 293 294 294 293 292 294 295 294 291 289 287 286 286 286 286 286 286 286 286 286 286 286 286 286 286 286 286 286 287 287 287 287 288 288 289 290 290
295 295 294 295 294 293 293 294 294 294 292 290 289 289 289 288 286 286 286 286 285 285 286 286 286 286 286 286 286 286 286 286 286 286 286 286 286 286 286 286 286 286 286 286
293 293 294 294 294 294 295 294 295 294 294 295 294 292 289 286 286 286 286 286 287 287 287 288 287 287 287 287 286 286 286 285 285 285 285 285 285 285 285 285 285 285 286 286
291 291 292 293 293 294 294 294 294 294 294 293 291 291 290 287 287 287 288 287 287 287 287 287 287 287 287 287 286 286 285 285 285 285 284 284 284 284 284 284 284 285 285 285
290 290 290 290 291 291 292 293 294 292 292 294 293 291 290 288 286 286 286 286 285 285 285 285 286 287 287 286 285 285 285 284 284 284 284 284 284 284 284 284 284 284 284 284
291 290 289 289 289 289 288 289 290 292 292 293 293 292 291 289 287 285 285 285 285 284 284 284 285 286 286 286 285 284 284 284 284 284 284 284 283 283 283 283 283 283 283 283

GFSNGP_850_thetae_102.txt.gz
Theta_e
311 310 310 309 310 311 306 312 315 314 313 311 308 308 309 311 313 313 313 313 313 315 316 317 317 317 316 316 316 315 315 315 315 315 315 315 314 312 311 311 311 311 311 310
307 310 311 312 311 312 313 312 313 313 312 309 309 310 309 310 312 313 313 313 313 314 314 314 315 315 315 314 314 314 314 314 314 314 313 311 311 311 310 310 310 310 310 310
308 308 310 309 312 311 312 312 311 312 310 309 310 310 309 310 310 312 313 313 313 313 313 313 313 313 312 312 312 312 311 311 311 311 311 311 310 310 310 310 310 310 310 309
305 305 309 308 306 310 311 310 309 309 309 309 309 309 309 309 309 309 311 313 314 313 313 313 313 312 312 311 311 311 311 311 311 311 310 310 310 309 309 310 310 309 309 308
307 306 306 309 309 309 310 311 309 310 309 308 309 309 308 308 308 309 309 310 313 314 313 313 312 312 312 311 311 311 311 311 310 310 309 309 309 309 309 309 309 308 307 307
305 307 310 309 307 308 308 312 311 310 308 308 308 308 307 308 308 308 308 309 311 314 314 313 313 312 312 311 311 311 311 310 310 310 309 309 309 309 309 308 307 307 306 306
307 308 306 307 307 308 308 309 312 309 308 308 307 307 308 308 307 307 307 309 312 313 314 313 313 312 312 312 311 311 310 310 310 309 309 308 308 308 308 307 306 306 305 304
304 307 307 308 308 311 308 310 312 310 308 309 309 308 308 308 307 307 307 309 312 313 313 313 313 312 312 311 310 310 310 310 309 309 308 308 308 308 307 306 306 305 304 304
305 305 304 306 306 307 307 307 311 311 309 309 309 308 308 308 308 307 307 308 310 312 312 313 312 311 310 310 310 309 309 309 308 308 308 308 307 307 306 304 304 304 303 303
305 305 305 306 306 307 309 310 310 310 310 310 309 309 309 308 308 308 308 308 307 307 308 309 309 310 310 309 309 308 308 307 307 307 307 306 306 305 304 304 303 303 302 302
305 305 304 305 304 306 308 309 309 310 310 309 309 309 308 307 307 306 306 307 307 307 307 307 307 307 307 307 306 306 307 306 306 306 305 304 304 303 303 303 302 302 302 301
305 304 305 306 306 306 307 308 308 308 309 309 308 308 307 306 305 305 305 305 304 305 305 305 305 305 306 306 305 305 305 305 304 304 303 303 303 303 303 303 303 302 301 300
303 303 304 305 304 305 304 306 307 307 307 307 306 306 306 305 304 303 303 302 302 302 302 302 302 303 303 303 304 304 304 303 303 303 302 302 302 302 303 302 302 302 301 299
302 302 303 303 303 303 304 304 305 305 306 305 306 307 307 306 306 304 302 303 303 303 302 302 301 301 301 301 301 301 302 302 302 302 301 301 301 301 301 301 301 301 299 298
301 301 300 301 302 303 304 304 304 304 304 304 304 303 303 303 302 302 301 300 300 300 299 299 299 299 299 299 299 299 299 299 301 301 301 301 300 300 300 300 300 300 299 298
299 298 299 300 300 301 302 303 303 303 303 302 302 302 303 303 300 299 299 298 298 298 298 298 298 298 298 298 298 298 298 297 297 300 300 300 300 300 300 300 300 299 299 299
297 297 297 296 297 299 300 301 301 302 301 301 300 300 300 300 298 297 295 292 291 292 294 296 297 297 297 298 298 297 297 297 297 298 299 299 299 299 299 299 299 299 299 298
297 297 296 296 296 297 298 299 300 300 300 299 299 298 298 294 292 290 289 289 289 289 291 292 291 291 292 294 295 296 296 296 297 297 298 298 299 299 298 298 298 298 298 298
296 295 296 296 295 296 297 298 298 298 298 297 296 296 293 290 288 288 288 288 288 289 288 287 287 287 287 287 287 288 289 291 294 296 296 297 297 297 297 297 297 297 297 296
295 294 294 294 294 294 295 296 296 295 295 295 293 290 288 287 287 288 288 287 287 288 286 286 286 286 286 286 286 286 287 287 287 287 289 292 294 295 295 294 294 295 295 295
294 294 294 294 294 294 294 293 293 292 289 290 291 289 289 291 294 294 290 288 287 286 286 286 286 286 286 286 286 286 286 286 286 286 286 287 287 287 288 288 289 289 290 291
295 294 294 293 293 294 294 293 292 292 292 292 292 292 292 292 290 287 286 286 285 285 285 285 285 286 286 286 286 286 286 286 286 286 286 286 286 286 286 286 286 286 286 287
294 294 294 294 295 294 294 294 294 294 293 291 289 287 287 287 286 286 285 285 285 286 287 288 288 288 288 288 288 287 286 286 286 286 286 286 286 286 286 286 286 285 285 285
293 292 293 293 293 293 294 294 294 294 294 294 294 292 291 290 287 287 286 286 287 287 287 287 287 287 287 287 287 287 286 286 286 285 285 285 285 284 284 284 285 284 284 285
292 291 291 290 292 292 293 294 293 294 294 294 293 290 290 289 288 286 287 287 286 286 285 285 285 285 286 286 287 287 286 286 285 285 285 285 284 284 284 284 284 284 284 284
291 290 290 290 290 290 291 291 291 293 293 292 292 293 292 290 289 287 286 286 285 285 285 285 284 284 285 286 286 286 286 285 285 284 284 284 284 284 284 284 284 284 284 284
292 291 290 289 289 289 289 289 289 289 290 291 292 292 292 292 290 289 287 285 285 285 284 284 284 285 285 286 286 285 284 284 284 284 284 284 284 284 284 283 283 283 283 283

GFSNGP_850_thetae_105.txt.gz
Theta_e
311 310 309 309 310 311 303 309 305 312 312 309 307 306 308 309 312 312 313 312 313 314 316 319 320 319 319 319 318 317 315 315 315 315 315 315 314 313 314 314 313 311 310 310
306 309 310 311 310 310 312 311 312 311 312 309 309 309 309 310 312 312 313 313 313 314 315 316 317 317 316 316 315 315 315 315 315 314 314 314 314 314 313 311 311 310 310 309
306 305 310 308 308 310 311 311 311 313 311 309 309 308 308 309 309 310 311 313 313 313 313 314 315 315 315 315 315 314 314 314 314 314 314 313 311 311 310 310 309 309 309 309
305 304 308 306 306 309 310 309 309 309 309 308 308 308 308 308 309 309 310 312 313 313 313 313 313 313 312 312 312 312 311 311 311 311 310 310 310 310 309 309 309 309 309 309
306 305 306 309 308 309 310 311 309 310 309 308 308 308 308 308 308 308 309 309 311 313 313 313 313 312 312 311 311 311 311 311 310 310 310 310 309 309 309 309 309 309 309 308
305 306 310 308 306 306 307 312 310 309 307 307 308 307 306 308 307 307 307 309 310 311 313 313 313 312 312 311 311 311 311 310 310 310 309 309 309 308 308 308 308 308 308 307
306 305 305 304 306 307 308 306 311 309 308 308 306 306 308 308 307 307 307 308 309 311 313 313 312 312 312 311 311 310 310 310 310 309 309 309 308 308 308 308 308 308 307 306
303 307 306 304 307 310 306 309 311 310 308 308 308 308 308 307 307 307 307 309 312 312 313 313 312 312 312 311 310 310 310 310 309 309 309 308 308 308 307 307 307 306 305 305
303 304 303 306 306 307 308 307 310 310 309 309 308 308 307 308 308 307 307 307 310 311 312 312 312 311 311 310 310 310 309 309 309 309 308 308 307 307 307 306 306 305 305 305
304 304 303 304 305 306 309 309 310 310 310 309 308 308 308 308 307 307 307 307 307 308 310 311 311 311 310 310 310 310 309 308 308 307 307 307 307 306 306 305 305 304 304 304
303 303 303 304 305 306 308 308 309 309 310 309 309 309 308 308 306 306 306 306 306 307 307 307 307 307 307 307 307 307 307 307 307 307 306 306 305 305 304 304 303 304 304 303
307 303 304 305 305 306 305 306 307 308 308 309 309 309 308 306 305 305 305 304 304 304 305 305 305 306 306 306 306 306 305 305 305 305 305 304 304 303 304 304 303 303 304 304
303 303 304 304 304 304 305 304 305 306 307 307 307 308 307 305 304 303 303 302 302 302 302 302 302 302 302 303 303 303 304 304 304 303 303 303 303 303 302 302 303 303 303 303
302 302 302 302 303 303 302 303 304 304 306 305 305 305 305 304 304 305 304 304 303 302 302 301 301 301 301 301 301 301 301 301 302 302 302 302 302 301 301 301 302 303 301 301
301 301 301 301 301 302 302 303 303 303 303 304 304 304 304 304 303 303 302 301 300 300 299 299 299 299 299 299 299 299 299 299 299 299 299 300 300 301 301 300 301 301 301 300
300 299 298 299 299 299 300 301 301 301 302 302 301 301 301 302 302 302 301 299 298 297 297 297 298 298 298 298 298 298 298 298 298 298 297 298 299 300 300 300 300 300 300 300
299 298 297 297 297 297 298 300 300 301 301 301 301 300 300 299 299 298 297 296 292 290 291 292 294 295 296 296 297 297 297 297 297 297 297 297 298 298 299 298 299 299 299 299
298 297 296 296 296 296 298 298 299 299 299 299 299 298 298 297 296 292 289 289 289 289 290 290 289 288 288 288 290 292 293 294 295 296 296 296 296 297 297 297 297 297 298 298
297 295 295 295 295 294 295 296 297 298 297 297 297 296 295 294 294 292 289 288 288 288 288 287 287 287 287 287 287 287 287 287 287 288 290 294 295 295 295 295 295 295 295 295
295 295 294 294 294 294 293 294 295 296 295 295 294 294 293 291 289 289 290 289 287 287 287 286 286 286 286 286 286 286 286 286 286 286 286 287 287 288 290 292 292 292 292 292
295 295 294 294 293 293 294 294 294 294 293 291 291 291 290 289 289 291 292 292 292 292 288 286 286 286 286 286 286 286 286 286 286 286 286 286 286 286 286 286 287 287 287 286
294 294 294 294 293 293 293 294 293 292 293 292 292 291 292 291 290 288 288 288 286 285 285 285 286 286 287 288 288 288 288 287 287 286 286 286 286 286 286 286 286 286 286 286
293 293 293 293 293 293 293 292 292 293 294 293 293 292 290 289 288 287 286 286 285 286 286 288 288 288 288 287 288 288 288 287 287 286 286 286 286 286 286 286 285 285 285 284
293 293 292 292 292 292 292 294 293 294 294 294 293 293 293 293 290 287 286 287 288 288 288 288 287 286 286 286 286 286 286 286 286 286 285 285 285 285 285 285 285 284 284 284
293 292 292 291 291 290 291 292 293 292 293 294 294 294 293 290 290 289 287 286 287 287 286 285 285 285 284 284 285 286 286 286 286 285 285 285 284 284 284 284 284 284 284 284
292 291 291 290 290 290 290 290 291 291 292 293 293 292 292 292 292 290 288 287 286 285 285 285 284 284 284 284 285 285 285 285 285 284 284 284 284 284 284 284 284 284 284 284
292 291 291 291 290 289 289 289 289 289 289 289 289 290 291 292 292 291 289 288 287 286 285 284 284 284 284 284 285 285 285 284 284 284 284 283 283 283 283 283 283 283 283 283

GFSNGP_850_thetae_108.txt.gz
Theta_e
311 310 309 309 309 310 302 307 304 310 310 308 307 306 306 309 312 312 312 312 312 314 316 317 317 318 320 320 319 318 318 318 318 318 319 319 318 318 318 314 313 313 313 312
306 306 310 309 308 310 310 311 311 310 311 308 308 308 308 308 309 310 312 312 312 313 314 316 317 317 317 317 317 316 316 315 315 315 315 314 313 313 313 314 314 313 310 310
305 304 309 306 306 310 311 310 310 312 310 308 307 307 307 308 308 308 310 312 313 313 313 314 315 316 316 315 315 315 315 314 314 314 314 313 313 314 314 312 310 310 310 309
305 304 308 305 306 307 309 308 307 308 308 308 308 307 307 307 308 308 308 310 312 313 313 312 313 313 313 314 314 314 314 314 313 313 313 313 312 311 310 310 309 309 309 309
306 304 305 309 307 311 310 310 309 309 308 307 307 307 307 307 307 308 308 308 309 311 313 313 312 312 312 312 312 312 311 311 311 310 310 310 310 309 309 309 309 309 309 309
304 305 309 307 305 305 307 311 310 308 307 307 307 306 304 307 307 307 307 307 308 309 312 313 312 312 312 311 311 310 310 310 310 309 309 309 309 308 308 308 309 309 309 309
305 304 305 303 305 306 307 304 310 308 307 307 305 306 307 306 307 307 307 308 310 310 312 312 312 312 311 311 310 310 309 309 309 309 309 308 308 308 309 309 309 309 309 308
303 306 305 303 305 308 304 307 310 309 308 308 308 307 307 307 307 307 307 309 311 311 311 312 312 312 311 311 310 310 309 309 308 308 308 308 308 308 308 308 308 308 307 307
303 303 302 305 305 307 308 307 309 309 309 308 308 308 307 308 308 307 307 307 308 310 311 311 311 311 311 310 310 310 309 309 309 309 308 308 308 308 308 308 308 307 307 307
303 303 302 304 305 307 308 308 308 309 309 309 308 308 308 308 307 307 307 307 306 306 309 310 310 310 310 310 310 309 309 309 308 308 308 308 308 308 307 307 306 305 305 305
301 302 302 304 305 305 307 308 308 308 309 309 308 308 308 308 306 306 305 306 306 306 306 307 307 307 308 308 308 308 308 308 307 307 306 306 306 306 306 306 305 305 305 305
303 303 303 304 304 305 305 304 306 307 308 308 308 308 308 307 305 304 304 304 303 303 303 303 304 304 305 305 306 306 305 305 305 306 306 306 306 305 305 304 303 304 305 304
303 304 305 303 303 303 304 304 303 305 306 306 307 307 308 307 305 304 303 302 302 302 302 302 302 302 302 302 302 302 302 303 304 304 304 303 303 303 303 302 303 303 303 303
303 303 302 301 303 303 303 303 303 303 304 305 305 305 305 305 304 303 303 304 304 303 301 300 300 300 300 300 300 300 300 300 300 300 301 301 301 301 301 302 302 301 301 301
301 301 301 301 301 301 301 302 302 302 303 303 304 304 304 304 304 303 302 302 302 302 299 299 298 298 298 298 298 298 299 299 299 299 298 298 298 298 299 299 300 301 301 300
301 300 299 299 299 299 299 300 300 300 301 301 301 302 301 301 301 301 300 301 300 300 299 296 295 295 296 297 297 297 298 298 298 298 297 297 297 297 297 298 297 299 299 300
299 298 298 298 297 296 296 297 298 300 300 301 301 300 300 300 300 299 298 298 297 294 290 290 291 291 292 292 293 294 295 295 296 296 296 296 296 296 297 297 297 297 298 298
300 299 297 296 296 296 296 296 297 298 299 299 299 298 298 298 298 297 296 293 289 288 289 289 289 287 287 287 287 287 287 287 288 290 291 294 295 295 296 296 296 296 296 297
299 297 296 295 295 295 294 295 296 295 297 297 297 296 296 296 295 294 293 291 289 290 290 288 286 286 286 286 286 286 286 286 286 286 286 286 287 289 293 293 293 294 294 294
298 296 295 294 294 294 294 294 295 295 295 295 295 295 294 293 292 290 289 289 290 290 290 289 287 287 286 286 286 286 286 286 286 286 286 286 286 286 286 286 286 287 289 290
297 296 294 293 293 293 293 293 294 294 294 293 293 292 292 291 290 291 292 292 291 288 287 287 286 286 286 286 287 288 288 288 287 287 286 286 286 286 286 286 286 286 286 286
297 295 293 293 292 293 293 293 294 293 292 293 293 293 292 292 292 291 289 288 286 286 286 285 286 287 288 288 288 287 287 287 287 287 286 286 285 285 285 285 285 285 285 285
295 294 293 292 292 292 292 292 292 292 293 294 294 293 293 292 290 290 292 290 289 288 286 286 288 287 287 286 286 286 286 286 286 286 286 285 285 285 284 284 285 284 285 285
295 293 293 292 291 291 292 293 293 293 294 294 294 294 293 293 293 292 289 288 286 286 286 287 286 286 285 285 284 284 284 285 285 286 286 285 284 284 284 284 284 284 284 284
294 293 292 292 291 291 291 290 291 293 293 292 293 293 293 293 293 293 289 289 288 286 286 286 285 285 284 284 284 284 284 285 285 285 285 284 284 284 284 284 284 284 284 284
292 292 292 291 291 290 290 290 290 290 291 291 292 291 293 292 291 291 292 291 289 288 287 285 285 284 284 284 284 284 285 285 285 284 284 284 284 284 283 283 283 283 283 283
292 292 292 291 291 290 290 290 290 290 289 289 289 289 289 289 290 291 292 291 290 288 287 287 286 285 285 285 284 284 285 285 284 284 284 284 283 283 283 283 283 283 283 283

GFSNGP_850_thetae_111.txt.gz
Theta_e
309 310 309 308 309 309 307 307 308 310 309 307 306 305 305 307 309 311 312 312 313 314 316 315 316 318 322 323 323 322 322 323 321 323 324 324 324 324 323 322 320 319 314 313
305 308 307 308 308 309 310 310 309 309 310 307 306 308 307 307 307 309 310 312 312 313 314 316 317 317 318 319 318 318 318 318 319 319 319 319 319 318 318 317 315 313 313 311
305 304 308 306 306 309 310 308 309 311 309 306 306 306 306 307 307 307 308 310 311 312 312 314 315 316 316 317 316 316 316 315 315 315 315 315 314 314 313 312 312 312 310 309
304 303 307 304 305 306 309 308 306 307 307 306 306 306 307 307 307 307 308 308 309 311 312 312 313 314 314 314 314 314 314 314 314 314 314 313 312 312 312 312 310 309 309 310
305 304 305 308 306 310 311 311 308 308 305 306 307 306 306 307 307 306 307 307 308 309 311 312 312 312 312 312 313 313 313 313 313 313 313 313 313 312 310 309 309 309 309 309
304 305 309 307 304 305 307 311 308 307 306 306 306 306 304 307 307 307 307 307 308 309 310 313 312 312 312 311 311 311 310 310 310 310 310 309 309 309 308 308 308 308 309 309
306 304 304 303 303 305 306 306 309 307 307 307 305 305 307 307 307 307 307 308 310 310 310 312 312 312 311 311 310 310 309 309 309 308 308 308 308 308 308 308 308 308 308 309
302 305 306 303 304 307 303 306 309 308 307 307 307 307 307 308 308 308 307 308 310 310 311 311 311 311 311 310 310 310 310 310 309 309 308 308 308 307 307 307 307 308 308 308
302 303 301 305 305 306 307 307 308 309 308 308 308 307 307 308 307 307 308 307 308 309 310 311 311 311 310 310 310 309 309 309 308 308 308 308 307 307 308 308 308 307 307 306
303 303 303 304 305 307 307 308 308 309 309 308 308 308 308 308 307 306 306 307 307 306 307 309 309 309 309 309 309 309 309 308 308 308 308 308 308 307 307 306 306 306 306 305
300 301 303 304 304 306 306 307 307 308 308 309 308 308 308 307 306 305 305 305 305 305 306 306 305 306 307 308 308 307 307 307 307 306 306 306 306 306 306 306 306 305 304 304
302 302 302 303 305 305 305 304 304 306 307 307 308 308 308 307 305 305 304 303 302 302 302 302 303 303 303 304 304 305 304 305 305 305 304 306 306 305 305 304 304 303 303 304
304 303 305 305 304 303 304 304 303 303 305 306 306 307 307 307 305 303 303 302 302 302 302 302 302 302 302 302 302 302 302 302 302 302 303 302 302 302 302 302 302 302 303 303
304 304 302 302 303 302 303 303 302 303 303 304 305 305 305 305 304 303 302 303 303 303 302 301 301 300 299 299 299 299 300 300 300 300 300 300 300 300 300 300 301 301 301 301
303 302 302 301 301 301 301 301 301 301 301 302 302 303 303 303 303 303 303 302 301 301 300 300 299 297 297 297 297 298 298 298 298 298 298 298 298 298 297 297 298 299 299 299
301 301 300 300 300 300 300 300 300 300 300 300 301 301 301 301 301 301 301 301 301 300 298 295 293 294 292 292 294 295 296 297 297 297 297 297 297 297 297 296 297 297 298 298
301 299 299 299 299 298 297 297 297 298 299 300 300 300 300 300 300 299 299 299 298 297 295 294 293 291 291 288 288 288 288 289 290 292 293 294 294 295 296 296 296 296 296 296
301 300 300 299 298 296 296 296 296 296 296 297 298 298 299 298 297 297 296 295 293 290 289 289 289 287 287 287 286 286 286 286 286 286 286 287 287 291 294 294 295 295 295 295
300 300 299 297 296 295 295 295 295 295 296 295 296 297 296 296 296 295 294 293 292 290 290 290 290 289 288 288 288 287 286 286 286 286 286 286 286 286 286 287 289 292 292 292
300 298 297 296 294 293 294 294 295 294 295 295 295 295 295 294 293 292 291 290 290 290 291 291 292 291 291 290 288 286 286 287 287 287 286 286 286 286 286 286 286 286 285 286
299 297 296 295 294 292 292 293 293 293 294 294 294 293 293 292 292 291 292 292 292 291 288 286 286 285 285 285 286 287 288 287 287 287 286 286 286 286 285 285 285 285 285 285
298 297 296 294 293 292 292 292 293 293 293 293 293 293 293 293 292 292 291 289 288 286 286 285 285 286 287 287 287 287 286 286 286 286 286 286 286 286 285 285 285 285 285 285
297 296 294 293 293 292 292 292 292 292 292 293 293 293 293 293 292 292 292 292 291 289 289 288 286 288 289 290 288 286 285 284 284 285 286 286 285 285 285 284 284 284 284 285
296 295 293 293 292 292 291 291 292 292 292 293 294 293 294 294 293 293 293 292 290 289 287 286 286 286 286 285 285 284 284 284 284 285 285 285 284 284 284 284 284 284 284 284
296 294 293 293 292 292 291 291 291 291 291 292 292 292 292 292 293 293 293 292 291 289 289 286 286 285 285 284 284 284 284 284 284 285 285 284 284 283 283 283 283 283 283 283
295 293 292 292 292 292 291 291 291 291 291 290 291 291 291 291 291 292 292 291 291 291 290 288 287 285 285 284 284 284 284 284 284 284 284 283 283 283 283 283 283 283 283 283
296 293 292 292 292 291 291 291 290 291 290 290 290 289 289 288 289 289 290 290 291 291 290 288 288 287 286 286 286 285 284 284 284 284 283 283 283 283 283 283 283 283 283 283

GFSNGP_850_thetae_114.txt.gz
Theta_e
311 311 311 312 313 312 312 311 316 313 313 311 310 310 309 308 310 310 309 310 313 314 314 315 315 320 324 324 323 323 323 323 323 322 323 324 326 326 324 323 322 321 321 320
311 309 311 312 311 313 313 312 313 313 312 310 310 310 310 309 308 308 308 308 310 312 314 315 316 317 319 321 322 323 323 323 322 323 324 325 324 323 322 322 321 320 318 314
312 308 310 313 311 312 312 311 313 315 311 311 311 309 308 308 308 307 307 307 309 311 312 314 315 315 316 316 317 319 321 322 323 323 323 323 323 322 321 320 318 315 312 312
310 308 312 309 309 309 312 311 311 311 310 309 309 308 308 307 307 306 306 307 308 309 312 312 313 314 315 315 315 314 315 316 316 317 317 316 316 316 315 313 312 312 311 310
311 310 309 309 309 311 312 313 310 309 309 308 308 308 309 307 306 305 306 307 308 309 310 312 312 312 313 314 314 314 314 313 313 313 313 313 312 312 311 311 311 310 309 309
310 310 311 309 307 307 309 314 310 309 309 309 308 311 311 306 307 307 307 309 309 309 310 311 312 312 312 312 311 312 312 313 313 312 311 311 311 311 311 309 308 308 308 309
310 310 309 306 306 306 310 313 310 308 308 309 310 308 306 307 307 306 307 309 310 310 310 311 311 311 311 310 310 310 310 310 310 310 310 309 309 308 308 307 307 307 307 308
309 310 310 305 306 309 309 308 309 308 307 308 307 306 307 307 307 307 307 308 310 310 309 310 310 310 310 309 309 309 309 309 309 309 309 308 308 307 307 307 307 308 308 308
307 308 305 305 307 306 306 309 309 309 308 307 307 307 308 307 307 306 306 306 307 308 309 309 309 309 309 309 308 308 308 307 307 307 307 307 307 307 307 307 307 307 307 307
307 305 306 305 305 306 307 307 308 309 308 308 307 308 307 307 307 307 306 306 305 305 306 308 309 309 309 309 308 308 307 307 306 306 306 305 305 305 305 305 306 306 306 306
305 304 304 304 304 306 307 307 307 307 308 308 308 307 307 308 306 305 304 304 304 303 304 304 305 305 305 306 307 307 307 308 307 307 306 305 305 304 304 304 304 305 305 305
308 306 306 306 304 305 304 304 305 306 307 308 307 307 308 307 306 305 304 303 303 302 302 302 302 302 302 302 302 302 304 305 305 305 305 305 304 304 304 305 304 304 304 304
306 304 305 304 305 305 305 305 304 304 304 306 306 307 307 307 306 305 305 305 304 304 303 304 304 303 302 300 300 300 300 300 301 301 302 302 303 304 303 303 302 303 303 302
305 304 303 304 304 304 304 304 303 303 303 303 304 305 305 305 305 304 303 303 304 304 303 302 301 301 302 301 301 299 298 298 298 299 299 299 300 300 300 300 300 301 301 301
303 304 305 305 304 303 302 302 302 302 302 302 302 303 303 303 303 303 303 303 302 301 301 301 301 300 299 298 298 298 296 296 297 297 297 297 298 297 297 297 297 297 297 298
303 303 302 302 301 301 300 300 300 300 300 300 300 300 300 300 301 300 300 300 300 299 299 299 298 296 293 292 292 292 293 293 294 295 295 295 296 296 296 296 296 296 297 297
301 299 300 300 300 299 299 299 298 298 298 299 299 299 299 299 299 299 299 299 298 298 297 296 293 292 291 292 292 291 290 288 287 287 287 288 290 293 294 294 294 295 296 296
303 303 302 300 300 300 298 297 296 297 297 296 297 297 297 297 297 297 296 296 295 294 293 291 290 289 287 286 286 286 286 287 287 286 286 286 286 286 287 290 293 293 294 294
301 300 300 300 299 298 297 296 296 296 295 296 296 296 296 296 296 296 295 294 293 292 291 290 290 289 288 287 288 289 289 288 287 287 286 286 286 286 286 286 286 287 289 291
300 300 300 298 297 296 296 295 295 295 295 295 294 294 295 295 294 294 293 292 291 291 291 292 291 291 291 289 289 289 286 288 288 287 287 287 287 286 286 285 285 285 285 285
300 300 299 297 296 295 294 293 293 293 293 293 294 294 294 293 293 292 292 292 292 292 290 289 287 286 286 286 286 287 288 288 287 286 286 286 286 286 285 285 285 285 285 285
300 299 298 297 295 294 293 292 291 292 293 293 293 293 293 293 293 293 293 292 290 289 288 287 286 285 286 287 287 288 288 289 288 288 286 286 287 286 285 285 285 284 284 285
299 298 297 295 294 293 293 292 291 291 292 292 293 293 293 293 293 293 293 292 292 292 290 289 288 287 286 288 289 288 286 284 284 284 284 285 285 285 285 285 284 284 284 284
298 297 295 293 293 293 293 292 291 291 292 291 292 293 293 293 293 294 293 293 293 293 290 289 288 286 285 286 286 285 284 284 283 283 284 285 285 284 283 283 283 283 284 284
297 296 294 293 293 293 292 292 291 291 291 291 291 292 292 292 292 293 292 293 292 292 292 290 289 287 286 285 285 284 284 284 284 284 284 284 284 283 283 283 283 283 283 283
297 296 294 293 293 292 292 292 291 291 291 291 291 290 290 291 290 290 290 291 292 291 290 290 290 288 287 286 285 285 285 285 285 284 284 284 283 283 283 283 282 283 283 283
296 296 295 293 292 292 292 291 291 290 290 290 290 290 290 289 289 289 289 289 289 290 291 290 290 288 287 287 286 286 285 285 284 284 284 283 283 283 282 282 282 282 282 282

GFSNGP_850_thetae_117.txt.gz
Theta_e
312 312 313 313 314 314 315 315 316 314 314 312 312 311 310 310 310 309 310 310 315 314 313 315 320 324 325 324 324 324 323 324 324 325 325 325 326 326 326 326 326 325 322 321
311 312 313 313 313 313 314 314 314 314 314 312 311 310 310 309 309 309 309 309 310 312 315 314 316 319 322 323 323 323 324 324 323 324 325 324 325 325 325 325 324 323 321 320
313 311 311 313 312 313 313 313 314 315 313 312 311 310 309 309 309 308 308 308 309 310 311 313 314 316 318 321 323 323 323 324 324 323 323 324 325 324 324 323 322 321 321 321
312 311 313 311 311 312 313 313 312 311 311 310 310 309 308 308 308 307 308 308 309 309 310 311 312 313 314 315 318 321 321 322 322 322 322 323 323 322 322 321 321 320 319 316
313 312 311 311 311 313 314 313 310 311 310 309 309 311 309 307 307 307 307 308 308 308 310 311 312 312 313 313 314 314 315 317 319 321 321 321 321 321 320 319 317 314 312 311
311 312 313 311 309 309 310 314 311 310 310 310 311 312 309 307 306 306 307 307 308 308 309 310 311 311 311 311 312 312 312 312 313 313 313 314 314 314 313 312 311 310 310 309
311 312 310 308 308 308 312 314 311 310 310 310 310 309 307 307 306 305 306 309 307 309 310 310 310 309 309 309 310 310 310 311 311 311 311 311 311 310 310 310 310 309 308 308
310 311 312 308 309 311 312 312 311 310 310 309 309 308 308 307 307 307 307 307 308 309 310 310 310 310 310 309 308 308 308 308 308 308 309 309 309 309 309 308 307 307 307 307
309 310 307 307 309 308 309 310 310 310 309 309 309 308 308 307 307 306 306 307 306 306 308 309 310 310 310 310 309 308 307 307 307 307 307 307 306 306 306 306 306 306 307 307
308 307 308 308 308 308 309 309 309 309 309 309 309 308 307 307 306 306 305 305 304 305 305 305 306 307 308 308 309 309 308 308 306 306 306 306 306 305 304 304 304 304 305 305
308 307 307 307 308 308 307 307 307 308 309 308 308 308 307 307 306 305 304 304 303 303 302 302 302 303 303 304 305 306 307 307 306 306 306 305 304 304 304 304 304 304 304 304
308 308 308 308 307 307 307 306 306 307 307 307 308 308 307 307 306 305 305 305 303 303 304 303 303 303 303 302 301 301 302 303 303 304 304 304 304 303 302 301 301 302 303 303
308 307 307 307 306 305 305 305 305 305 304 306 306 307 307 306 306 305 304 304 303 303 303 302 301 301 300 300 301 302 300 299 299 300 301 301 301 302 302 301 301 300 300 300
305 305 305 305 305 305 305 305 305 304 304 303 304 305 305 305 305 304 303 303 303 303 303 302 301 301 301 301 301 299 299 300 298 297 298 299 299 299 299 299 300 300 300 300
305 305 306 305 304 305 305 304 303 302 302 302 302 302 302 303 303 303 303 303 302 302 301 300 300 300 300 299 297 296 296 296 296 295 296 296 297 297 297 297 297 297 297 297
304 304 304 305 305 305 303 302 301 301 300 301 300 300 300 300 300 300 300 300 300 300 299 299 299 298 297 296 295 294 291 289 288 289 289 291 292 294 294 294 294 295 295 295
302 302 302 303 304 302 302 300 300 300 299 299 299 299 300 299 299 299 299 299 299 298 298 297 296 294 291 290 288 288 289 290 290 288 287 287 287 287 287 290 292 293 294 294
304 304 303 303 303 301 300 300 299 298 297 297 297 297 297 297 297 297 297 297 296 296 296 295 293 292 290 289 288 287 288 289 289 289 289 289 288 287 286 286 286 287 291 293
303 303 302 302 301 300 300 298 297 297 296 296 296 296 296 296 296 296 296 295 295 295 294 292 292 291 291 290 289 289 290 288 287 287 287 287 287 287 287 286 286 285 286 286
302 302 301 300 300 299 297 296 296 296 295 295 295 295 295 295 295 295 295 294 294 292 292 292 292 292 291 290 287 286 287 287 287 288 288 288 287 287 286 286 286 286 286 285
301 301 300 300 298 297 296 295 294 294 294 294 294 294 293 294 294 293 293 293 293 293 292 292 290 289 288 287 286 287 287 287 287 287 287 288 288 288 288 288 286 286 285 285
301 300 300 299 298 296 295 294 293 293 292 292 292 293 293 293 293 293 293 293 293 292 290 290 289 288 286 285 286 287 287 288 288 287 285 284 284 284 285 285 286 285 285 286
301 300 299 298 297 295 293 294 293 293 292 291 292 292 293 292 292 293 293 294 293 292 292 292 290 289 287 287 286 287 288 288 286 284 284 283 283 284 285 284 284 284 284 284
300 299 298 297 295 294 294 293 292 292 291 291 292 291 292 293 293 293 293 293 293 293 293 293 292 289 288 287 286 285 286 285 285 284 283 283 284 284 284 284 283 283 283 283
299 298 297 296 294 293 293 293 292 292 292 291 291 291 291 292 291 292 292 291 291 292 292 292 292 291 289 288 287 286 285 284 284 283 283 284 283 284 284 283 283 283 283 283
299 297 297 295 294 293 293 292 292 291 291 291 291 291 291 291 290 290 290 290 290 289 290 291 291 290 289 289 287 286 285 285 284 284 284 284 283 283 283 283 282 282 282 282
298 297 296 296 295 293 292 292 292 291 290 290 289 289 289 289 290 289 289 289 289 289 289 289 290 290 289 288 287 286 286 285 285 285 284 283 283 283 282 282 282 282 282 282

GFSNGP_850_thetae_123.txt.gz
Theta_e
313 312 312 313 313 313 312 312 313 312 311 309 308 307 307 308 308 309 310 310 311 315 320 321 324 324 325 325 325 326 326 325 324 323 322 323 325 325 325 324 324 325 325 325
310 310 311 312 312 312 312 311 310 311 311 308 307 307 307 307 307 308 308 310 311 313 316 319 321 322 322 323 323 325 325 324 324 324 325 325 324 323 322 323 323 325 324 323
309 309 308 309 313 311 310 309 309 310 309 307 307 306 306 306 306 307 308 309 310 312 314 316 319 320 320 320 321 321 322 322 323 323 323 323 324 323 323 323 324 324 323 324
306 307 309 310 311 311 310 310 309 309 309 307 306 306 305 305 306 307 308 309 309 310 311 313 314 317 318 320 320 319 319 319 321 322 322 321 321 321 322 323 323 324 323 323
307 306 309 310 310 311 311 310 307 308 307 308 308 307 306 305 306 306 307 308 309 309 309 310 311 313 314 314 314 317 318 318 319 319 319 319 318 319 320 318 319 319 321 321
307 308 311 308 308 309 308 311 308 308 306 306 308 307 306 305 306 307 308 308 309 309 310 310 309 310 311 311 312 313 313 313 314 317 318 319 318 317 318 318 318 318 318 317
307 305 307 307 307 308 311 310 309 308 308 308 305 306 306 306 306 306 308 309 309 310 310 309 309 309 310 309 309 308 309 310 311 312 312 312 312 313 314 315 315 314 314 313
305 307 306 307 307 308 309 309 309 308 308 308 307 306 306 305 305 306 306 307 308 309 309 308 309 309 309 309 308 308 308 308 308 308 309 309 309 310 309 309 309 308 309 309
304 304 306 308 308 310 310 309 309 309 308 308 308 307 306 306 305 304 304 305 305 307 307 308 309 309 309 308 308 308 308 308 308 308 307 307 307 307 307 307 306 306 306 306
304 305 306 308 309 310 310 310 309 308 309 308 307 306 306 306 305 304 304 304 304 304 303 303 303 303 303 303 305 305 305 305 306 307 307 307 306 306 305 305 305 304 304 304
303 305 307 307 308 309 309 308 308 308 308 308 308 307 306 305 305 305 306 305 305 305 305 304 304 304 303 303 302 303 303 302 302 303 304 304 304 304 305 304 304 304 303 303
303 305 306 307 308 308 308 307 307 307 307 308 308 307 307 306 304 303 303 304 304 304 304 304 304 303 303 302 301 301 300 301 301 301 301 300 301 302 302 303 303 303 302 301
306 307 307 308 308 308 307 306 306 306 306 306 307 307 307 306 304 303 302 302 302 302 302 301 300 301 301 301 300 300 299 299 299 299 299 299 299 299 299 299 299 300 301 301
306 307 307 307 308 307 306 305 305 305 304 304 304 304 304 304 304 303 303 302 302 301 301 300 300 300 299 299 298 298 298 298 298 298 297 297 298 297 296 296 297 297 297 298
307 307 306 307 306 307 306 305 305 304 304 303 302 302 302 301 301 301 301 301 300 300 299 299 299 298 298 297 296 295 294 294 293 293 293 292 291 289 289 289 291 293 295 295
306 306 306 306 305 305 305 305 304 304 302 301 300 300 300 300 300 300 299 299 299 299 298 298 298 297 296 295 295 294 292 291 289 288 288 288 288 288 288 288 287 287 288 288
305 305 305 305 305 305 305 305 304 303 301 300 300 299 299 299 299 298 297 296 296 297 297 296 296 295 295 295 293 292 291 290 290 290 291 291 290 290 289 289 288 288 288 287
303 304 305 305 305 305 304 304 303 301 300 299 297 297 297 296 296 296 296 296 295 296 296 295 295 294 294 292 292 292 291 291 291 291 289 288 289 289 288 288 287 287 287 287
303 304 304 305 305 304 304 303 301 300 299 297 296 296 296 295 295 295 294 295 296 295 295 295 294 293 292 293 292 291 290 288 287 287 287 288 289 288 288 288 288 287 287 288
303 303 303 304 304 304 303 301 300 299 297 296 295 295 295 294 294 294 292 295 295 294 294 294 293 293 293 292 290 289 288 288 287 288 288 288 288 288 288 285 284 284 284 285
302 303 303 303 303 302 301 300 299 297 296 295 294 294 294 293 293 293 294 295 295 293 293 293 293 293 291 290 289 288 288 287 286 287 288 287 288 288 285 284 283 283 284 285
302 302 302 302 302 301 300 298 297 296 294 294 294 294 293 293 292 294 294 294 294 293 293 293 293 293 292 291 291 290 289 288 287 286 286 287 288 286 284 283 283 283 284 284
301 302 302 302 301 300 299 298 297 294 294 294 293 293 293 292 292 293 294 293 293 292 292 292 292 292 292 292 292 291 290 288 287 285 285 285 285 284 283 283 283 283 283 283
301 301 301 300 299 299 298 297 294 294 294 293 293 293 292 292 292 292 292 292 292 292 292 291 291 290 290 291 291 291 291 290 287 286 285 285 284 284 283 283 284 283 283 283
301 301 300 299 300 299 297 295 294 294 294 293 292 292 291 291 290 290 290 290 290 290 290 290 290 290 289 289 289 290 290 289 288 287 286 285 284 284 284 284 283 283 283 282
300 300 300 300 300 298 296 294 294 294 293 293 292 292 291 290 290 289 289 289 289 289 289 289 288 288 288 288 288 289 288 288 288 286 285 285 285 284 284 283 283 282 282 281
300 300 299 299 298 297 295 294 294 294 293 293 292 291 291 290 290 290 289 288 288 288 288 288 288 288 288 289 289 288 288 288 287 286 286 285 284 284 283 283 282 282 281 281